<?xml version="1.0" encoding="UTF-8" standalone="no" ?>
<gpx xmlns="http://www.topografix.com/GPX/1/1" xmlns:xsi="http://www.w3.org/2001/XMLSchema-instance" xsi:schemaLocation="http://www.topografix.com/GPX/1/1 http://www.topografix.com/GPX/1/1/gpx.xsd" version="1.1" creator="VisuGPX - https://www.visugpx.com">
  <metadata>
    <name>Monte Gimont (Gran Charvia)</name>
    <desc><![CDATA[Claviere - Monte Gimont (Gran Charvia)]]></desc>
  </metadata>
  <trk>
    <name><![CDATA[M_Gimont_12 DIC 2018]]></name>
    <trkseg>
      <trkpt lat="44.93722" lon="6.74781">
        <ele>1790.11</ele>
        <time>2018-12-12T07:36:05Z</time>
      </trkpt>
      <trkpt lat="44.93723" lon="6.7478">
        <ele>1791.55</ele>
        <time>2018-12-12T07:36:19Z</time>
      </trkpt>
      <trkpt lat="44.93724" lon="6.7478">
        <ele>1791.55</ele>
        <time>2018-12-12T07:36:21Z</time>
      </trkpt>
      <trkpt lat="44.93716" lon="6.74779">
        <ele>1790.11</ele>
        <time>2018-12-12T07:36:37Z</time>
      </trkpt>
      <trkpt lat="44.93717" lon="6.74782">
        <ele>1790.11</ele>
        <time>2018-12-12T07:36:54Z</time>
      </trkpt>
      <trkpt lat="44.93721" lon="6.74781">
        <ele>1789.63</ele>
        <time>2018-12-12T07:37:10Z</time>
      </trkpt>
      <trkpt lat="44.9372" lon="6.74778">
        <ele>1789.63</ele>
        <time>2018-12-12T07:37:22Z</time>
      </trkpt>
      <trkpt lat="44.93721" lon="6.74778">
        <ele>1789.63</ele>
        <time>2018-12-12T07:37:36Z</time>
      </trkpt>
      <trkpt lat="44.93718" lon="6.74778">
        <ele>1789.63</ele>
        <time>2018-12-12T07:37:51Z</time>
      </trkpt>
      <trkpt lat="44.93718" lon="6.74781">
        <ele>1789.63</ele>
        <time>2018-12-12T07:38:06Z</time>
      </trkpt>
      <trkpt lat="44.93715" lon="6.74783">
        <ele>1789.15</ele>
        <time>2018-12-12T07:38:41Z</time>
      </trkpt>
      <trkpt lat="44.93714" lon="6.7478">
        <ele>1788.67</ele>
        <time>2018-12-12T07:39:15Z</time>
      </trkpt>
      <trkpt lat="44.93712" lon="6.74779">
        <ele>1788.67</ele>
        <time>2018-12-12T07:39:53Z</time>
      </trkpt>
      <trkpt lat="44.93714" lon="6.74779">
        <ele>1788.67</ele>
        <time>2018-12-12T07:40:24Z</time>
      </trkpt>
      <trkpt lat="44.93714" lon="6.74778">
        <ele>1788.67</ele>
        <time>2018-12-12T07:40:55Z</time>
      </trkpt>
      <trkpt lat="44.93713" lon="6.74778">
        <ele>1788.19</ele>
        <time>2018-12-12T07:41:28Z</time>
      </trkpt>
      <trkpt lat="44.93712" lon="6.74779">
        <ele>1788.19</ele>
        <time>2018-12-12T07:41:59Z</time>
      </trkpt>
      <trkpt lat="44.93712" lon="6.74778">
        <ele>1788.19</ele>
        <time>2018-12-12T07:42:31Z</time>
      </trkpt>
      <trkpt lat="44.9371" lon="6.74778">
        <ele>1787.71</ele>
        <time>2018-12-12T07:42:56Z</time>
      </trkpt>
      <trkpt lat="44.93709" lon="6.74779">
        <ele>1787.71</ele>
        <time>2018-12-12T07:43:27Z</time>
      </trkpt>
      <trkpt lat="44.93709" lon="6.74777">
        <ele>1787.71</ele>
        <time>2018-12-12T07:44:01Z</time>
      </trkpt>
      <trkpt lat="44.93713" lon="6.74777">
        <ele>1787.71</ele>
        <time>2018-12-12T07:44:21Z</time>
      </trkpt>
      <trkpt lat="44.93716" lon="6.7478">
        <ele>1789.15</ele>
        <time>2018-12-12T07:44:55Z</time>
      </trkpt>
      <trkpt lat="44.93719" lon="6.74779">
        <ele>1788.19</ele>
        <time>2018-12-12T07:45:08Z</time>
      </trkpt>
      <trkpt lat="44.93717" lon="6.7478">
        <ele>1788.19</ele>
        <time>2018-12-12T07:45:21Z</time>
      </trkpt>
      <trkpt lat="44.93721" lon="6.74785">
        <ele>1788.19</ele>
        <time>2018-12-12T07:45:33Z</time>
      </trkpt>
      <trkpt lat="44.93722" lon="6.74784">
        <ele>1787.71</ele>
        <time>2018-12-12T07:45:53Z</time>
      </trkpt>
      <trkpt lat="44.93723" lon="6.74789">
        <ele>1787.71</ele>
        <time>2018-12-12T07:46:11Z</time>
      </trkpt>
      <trkpt lat="44.93724" lon="6.7479">
        <ele>1787.23</ele>
        <time>2018-12-12T07:46:29Z</time>
      </trkpt>
      <trkpt lat="44.93727" lon="6.7479">
        <ele>1786.27</ele>
        <time>2018-12-12T07:46:44Z</time>
      </trkpt>
      <trkpt lat="44.93724" lon="6.74786">
        <ele>1787.23</ele>
        <time>2018-12-12T07:47:11Z</time>
      </trkpt>
      <trkpt lat="44.93727" lon="6.74796">
        <ele>1786.75</ele>
        <time>2018-12-12T07:47:25Z</time>
      </trkpt>
      <trkpt lat="44.93726" lon="6.74803">
        <ele>1786.75</ele>
        <time>2018-12-12T07:47:40Z</time>
      </trkpt>
      <trkpt lat="44.93724" lon="6.74803">
        <ele>1786.75</ele>
        <time>2018-12-12T07:47:55Z</time>
      </trkpt>
      <trkpt lat="44.93726" lon="6.74804">
        <ele>1785.79</ele>
        <time>2018-12-12T07:48:10Z</time>
      </trkpt>
      <trkpt lat="44.93727" lon="6.74802">
        <ele>1786.27</ele>
        <time>2018-12-12T07:48:35Z</time>
      </trkpt>
      <trkpt lat="44.93724" lon="6.74801">
        <ele>1785.79</ele>
        <time>2018-12-12T07:48:51Z</time>
      </trkpt>
      <trkpt lat="44.93722" lon="6.74798">
        <ele>1786.27</ele>
        <time>2018-12-12T07:49:12Z</time>
      </trkpt>
      <trkpt lat="44.93723" lon="6.74798">
        <ele>1786.27</ele>
        <time>2018-12-12T07:49:31Z</time>
      </trkpt>
      <trkpt lat="44.93718" lon="6.74793">
        <ele>1785.79</ele>
        <time>2018-12-12T07:49:44Z</time>
      </trkpt>
      <trkpt lat="44.93713" lon="6.7479">
        <ele>1786.27</ele>
        <time>2018-12-12T07:49:59Z</time>
      </trkpt>
      <trkpt lat="44.93706" lon="6.74783">
        <ele>1785.79</ele>
        <time>2018-12-12T07:50:11Z</time>
      </trkpt>
      <trkpt lat="44.93706" lon="6.74782">
        <ele>1785.79</ele>
        <time>2018-12-12T07:50:12Z</time>
      </trkpt>
      <trkpt lat="44.93705" lon="6.74782">
        <ele>1785.79</ele>
        <time>2018-12-12T07:50:13Z</time>
      </trkpt>
      <trkpt lat="44.93704" lon="6.74781">
        <ele>1786.27</ele>
        <time>2018-12-12T07:50:14Z</time>
      </trkpt>
      <trkpt lat="44.93703" lon="6.7478">
        <ele>1785.79</ele>
        <time>2018-12-12T07:50:15Z</time>
      </trkpt>
      <trkpt lat="44.93699" lon="6.74772">
        <ele>1785.79</ele>
        <time>2018-12-12T07:50:28Z</time>
      </trkpt>
      <trkpt lat="44.93696" lon="6.74766">
        <ele>1785.79</ele>
        <time>2018-12-12T07:50:40Z</time>
      </trkpt>
      <trkpt lat="44.93689" lon="6.74752">
        <ele>1786.75</ele>
        <time>2018-12-12T07:50:53Z</time>
      </trkpt>
      <trkpt lat="44.93681" lon="6.74739">
        <ele>1787.71</ele>
        <time>2018-12-12T07:51:07Z</time>
      </trkpt>
      <trkpt lat="44.93672" lon="6.74727">
        <ele>1788.67</ele>
        <time>2018-12-12T07:51:21Z</time>
      </trkpt>
      <trkpt lat="44.93666" lon="6.74727">
        <ele>1788.67</ele>
        <time>2018-12-12T07:51:29Z</time>
      </trkpt>
      <trkpt lat="44.93655" lon="6.74732">
        <ele>1787.71</ele>
        <time>2018-12-12T07:51:42Z</time>
      </trkpt>
      <trkpt lat="44.93648" lon="6.74724">
        <ele>1787.23</ele>
        <time>2018-12-12T07:51:55Z</time>
      </trkpt>
      <trkpt lat="44.93648" lon="6.74714">
        <ele>1787.23</ele>
        <time>2018-12-12T07:52:09Z</time>
      </trkpt>
      <trkpt lat="44.93647" lon="6.74704">
        <ele>1786.75</ele>
        <time>2018-12-12T07:52:21Z</time>
      </trkpt>
      <trkpt lat="44.93641" lon="6.74691">
        <ele>1786.27</ele>
        <time>2018-12-12T07:52:34Z</time>
      </trkpt>
      <trkpt lat="44.93635" lon="6.74679">
        <ele>1785.79</ele>
        <time>2018-12-12T07:52:49Z</time>
      </trkpt>
      <trkpt lat="44.93631" lon="6.74673">
        <ele>1785.79</ele>
        <time>2018-12-12T07:52:59Z</time>
      </trkpt>
      <trkpt lat="44.93629" lon="6.74668">
        <ele>1785.79</ele>
        <time>2018-12-12T07:53:06Z</time>
      </trkpt>
      <trkpt lat="44.93626" lon="6.74654">
        <ele>1786.27</ele>
        <time>2018-12-12T07:53:20Z</time>
      </trkpt>
      <trkpt lat="44.93621" lon="6.74637">
        <ele>1786.27</ele>
        <time>2018-12-12T07:53:34Z</time>
      </trkpt>
      <trkpt lat="44.93615" lon="6.74622">
        <ele>1786.27</ele>
        <time>2018-12-12T07:53:48Z</time>
      </trkpt>
      <trkpt lat="44.93609" lon="6.74613">
        <ele>1786.27</ele>
        <time>2018-12-12T07:53:59Z</time>
      </trkpt>
      <trkpt lat="44.93608" lon="6.74612">
        <ele>1786.27</ele>
        <time>2018-12-12T07:54:16Z</time>
      </trkpt>
      <trkpt lat="44.93604" lon="6.74601">
        <ele>1788.19</ele>
        <time>2018-12-12T07:54:28Z</time>
      </trkpt>
      <trkpt lat="44.93597" lon="6.74594">
        <ele>1786.75</ele>
        <time>2018-12-12T07:54:41Z</time>
      </trkpt>
      <trkpt lat="44.93589" lon="6.74586">
        <ele>1787.71</ele>
        <time>2018-12-12T07:54:56Z</time>
      </trkpt>
      <trkpt lat="44.93587" lon="6.74573">
        <ele>1788.19</ele>
        <time>2018-12-12T07:55:09Z</time>
      </trkpt>
      <trkpt lat="44.93586" lon="6.74563">
        <ele>1788.19</ele>
        <time>2018-12-12T07:55:21Z</time>
      </trkpt>
      <trkpt lat="44.93581" lon="6.74557">
        <ele>1788.67</ele>
        <time>2018-12-12T07:55:35Z</time>
      </trkpt>
      <trkpt lat="44.93583" lon="6.74556">
        <ele>1788.19</ele>
        <time>2018-12-12T07:56:02Z</time>
      </trkpt>
      <trkpt lat="44.93581" lon="6.74559">
        <ele>1788.19</ele>
        <time>2018-12-12T07:56:25Z</time>
      </trkpt>
      <trkpt lat="44.93583" lon="6.74556">
        <ele>1788.19</ele>
        <time>2018-12-12T07:56:38Z</time>
      </trkpt>
      <trkpt lat="44.93585" lon="6.74554">
        <ele>1788.19</ele>
        <time>2018-12-12T07:57:07Z</time>
      </trkpt>
      <trkpt lat="44.93584" lon="6.74556">
        <ele>1788.67</ele>
        <time>2018-12-12T07:57:36Z</time>
      </trkpt>
      <trkpt lat="44.93583" lon="6.7455">
        <ele>1788.67</ele>
        <time>2018-12-12T07:57:50Z</time>
      </trkpt>
      <trkpt lat="44.93578" lon="6.74538">
        <ele>1789.15</ele>
        <time>2018-12-12T07:58:02Z</time>
      </trkpt>
      <trkpt lat="44.93572" lon="6.74526">
        <ele>1789.63</ele>
        <time>2018-12-12T07:58:18Z</time>
      </trkpt>
      <trkpt lat="44.93565" lon="6.74514">
        <ele>1790.11</ele>
        <time>2018-12-12T07:58:33Z</time>
      </trkpt>
      <trkpt lat="44.93558" lon="6.745">
        <ele>1790.11</ele>
        <time>2018-12-12T07:58:48Z</time>
      </trkpt>
      <trkpt lat="44.9355" lon="6.74484">
        <ele>1790.59</ele>
        <time>2018-12-12T07:59:04Z</time>
      </trkpt>
      <trkpt lat="44.93545" lon="6.74476">
        <ele>1790.59</ele>
        <time>2018-12-12T07:59:12Z</time>
      </trkpt>
      <trkpt lat="44.93536" lon="6.74458">
        <ele>1791.07</ele>
        <time>2018-12-12T07:59:30Z</time>
      </trkpt>
      <trkpt lat="44.93531" lon="6.7444">
        <ele>1792.03</ele>
        <time>2018-12-12T07:59:45Z</time>
      </trkpt>
      <trkpt lat="44.93524" lon="6.74425">
        <ele>1793</ele>
        <time>2018-12-12T08:00:00Z</time>
      </trkpt>
      <trkpt lat="44.93519" lon="6.74415">
        <ele>1793</ele>
        <time>2018-12-12T08:00:13Z</time>
      </trkpt>
      <trkpt lat="44.93511" lon="6.74403">
        <ele>1793.48</ele>
        <time>2018-12-12T08:00:29Z</time>
      </trkpt>
      <trkpt lat="44.93506" lon="6.74392">
        <ele>1794.44</ele>
        <time>2018-12-12T08:00:43Z</time>
      </trkpt>
      <trkpt lat="44.935" lon="6.7438">
        <ele>1794.92</ele>
        <time>2018-12-12T08:00:56Z</time>
      </trkpt>
      <trkpt lat="44.93496" lon="6.74368">
        <ele>1794.92</ele>
        <time>2018-12-12T08:01:09Z</time>
      </trkpt>
      <trkpt lat="44.93493" lon="6.74354">
        <ele>1795.4</ele>
        <time>2018-12-12T08:01:23Z</time>
      </trkpt>
      <trkpt lat="44.93488" lon="6.74342">
        <ele>1795.88</ele>
        <time>2018-12-12T08:01:37Z</time>
      </trkpt>
      <trkpt lat="44.93483" lon="6.74333">
        <ele>1796.36</ele>
        <time>2018-12-12T08:01:48Z</time>
      </trkpt>
      <trkpt lat="44.93476" lon="6.74322">
        <ele>1796.84</ele>
        <time>2018-12-12T08:02:02Z</time>
      </trkpt>
      <trkpt lat="44.93466" lon="6.7432">
        <ele>1796.84</ele>
        <time>2018-12-12T08:02:15Z</time>
      </trkpt>
      <trkpt lat="44.93462" lon="6.74318">
        <ele>1797.32</ele>
        <time>2018-12-12T08:02:30Z</time>
      </trkpt>
      <trkpt lat="44.93457" lon="6.74321">
        <ele>1797.8</ele>
        <time>2018-12-12T08:02:40Z</time>
      </trkpt>
      <trkpt lat="44.93451" lon="6.7432">
        <ele>1797.8</ele>
        <time>2018-12-12T08:02:50Z</time>
      </trkpt>
      <trkpt lat="44.93439" lon="6.74309">
        <ele>1798.76</ele>
        <time>2018-12-12T08:03:03Z</time>
      </trkpt>
      <trkpt lat="44.93431" lon="6.743">
        <ele>1799.24</ele>
        <time>2018-12-12T08:03:15Z</time>
      </trkpt>
      <trkpt lat="44.93425" lon="6.74293">
        <ele>1799.73</ele>
        <time>2018-12-12T08:03:25Z</time>
      </trkpt>
      <trkpt lat="44.93415" lon="6.74282">
        <ele>1800.21</ele>
        <time>2018-12-12T08:03:40Z</time>
      </trkpt>
      <trkpt lat="44.93408" lon="6.74271">
        <ele>1800.69</ele>
        <time>2018-12-12T08:03:54Z</time>
      </trkpt>
      <trkpt lat="44.934" lon="6.74257">
        <ele>1801.65</ele>
        <time>2018-12-12T08:04:08Z</time>
      </trkpt>
      <trkpt lat="44.93392" lon="6.74246">
        <ele>1802.13</ele>
        <time>2018-12-12T08:04:22Z</time>
      </trkpt>
      <trkpt lat="44.93386" lon="6.74237">
        <ele>1804.53</ele>
        <time>2018-12-12T08:04:32Z</time>
      </trkpt>
      <trkpt lat="44.93385" lon="6.74236">
        <ele>1802.61</ele>
        <time>2018-12-12T08:04:34Z</time>
      </trkpt>
      <trkpt lat="44.93377" lon="6.74223">
        <ele>1803.57</ele>
        <time>2018-12-12T08:04:50Z</time>
      </trkpt>
      <trkpt lat="44.9337" lon="6.74211">
        <ele>1804.53</ele>
        <time>2018-12-12T08:05:04Z</time>
      </trkpt>
      <trkpt lat="44.93365" lon="6.74201">
        <ele>1805.01</ele>
        <time>2018-12-12T08:05:16Z</time>
      </trkpt>
      <trkpt lat="44.93359" lon="6.74189">
        <ele>1805.49</ele>
        <time>2018-12-12T08:05:30Z</time>
      </trkpt>
      <trkpt lat="44.93355" lon="6.74182">
        <ele>1805.97</ele>
        <time>2018-12-12T08:05:37Z</time>
      </trkpt>
      <trkpt lat="44.93349" lon="6.74165">
        <ele>1806.94</ele>
        <time>2018-12-12T08:05:52Z</time>
      </trkpt>
      <trkpt lat="44.93345" lon="6.74155">
        <ele>1807.42</ele>
        <time>2018-12-12T08:06:04Z</time>
      </trkpt>
      <trkpt lat="44.93341" lon="6.74143">
        <ele>1808.86</ele>
        <time>2018-12-12T08:06:17Z</time>
      </trkpt>
      <trkpt lat="44.93337" lon="6.74132">
        <ele>1809.82</ele>
        <time>2018-12-12T08:06:30Z</time>
      </trkpt>
      <trkpt lat="44.93338" lon="6.74127">
        <ele>1811.26</ele>
        <time>2018-12-12T08:06:38Z</time>
      </trkpt>
      <trkpt lat="44.93335" lon="6.74115">
        <ele>1812.7</ele>
        <time>2018-12-12T08:06:51Z</time>
      </trkpt>
      <trkpt lat="44.93329" lon="6.74105">
        <ele>1813.18</ele>
        <time>2018-12-12T08:07:04Z</time>
      </trkpt>
      <trkpt lat="44.93326" lon="6.74101">
        <ele>1813.66</ele>
        <time>2018-12-12T08:07:11Z</time>
      </trkpt>
      <trkpt lat="44.93322" lon="6.74084">
        <ele>1813.18</ele>
        <time>2018-12-12T08:07:30Z</time>
      </trkpt>
      <trkpt lat="44.93316" lon="6.74066">
        <ele>1813.18</ele>
        <time>2018-12-12T08:07:44Z</time>
      </trkpt>
      <trkpt lat="44.93313" lon="6.74049">
        <ele>1813.66</ele>
        <time>2018-12-12T08:07:57Z</time>
      </trkpt>
      <trkpt lat="44.93309" lon="6.74034">
        <ele>1813.18</ele>
        <time>2018-12-12T08:08:09Z</time>
      </trkpt>
      <trkpt lat="44.93304" lon="6.74016">
        <ele>1814.63</ele>
        <time>2018-12-12T08:08:25Z</time>
      </trkpt>
      <trkpt lat="44.93302" lon="6.74004">
        <ele>1815.11</ele>
        <time>2018-12-12T08:08:37Z</time>
      </trkpt>
      <trkpt lat="44.93299" lon="6.73987">
        <ele>1815.59</ele>
        <time>2018-12-12T08:08:51Z</time>
      </trkpt>
      <trkpt lat="44.93295" lon="6.73972">
        <ele>1816.55</ele>
        <time>2018-12-12T08:09:07Z</time>
      </trkpt>
      <trkpt lat="44.93293" lon="6.73966">
        <ele>1817.03</ele>
        <time>2018-12-12T08:09:13Z</time>
      </trkpt>
      <trkpt lat="44.93292" lon="6.73963">
        <ele>1817.03</ele>
        <time>2018-12-12T08:09:15Z</time>
      </trkpt>
      <trkpt lat="44.93288" lon="6.73948">
        <ele>1817.51</ele>
        <time>2018-12-12T08:09:28Z</time>
      </trkpt>
      <trkpt lat="44.93285" lon="6.73935">
        <ele>1817.99</ele>
        <time>2018-12-12T08:09:40Z</time>
      </trkpt>
      <trkpt lat="44.93281" lon="6.7392">
        <ele>1818.47</ele>
        <time>2018-12-12T08:09:53Z</time>
      </trkpt>
      <trkpt lat="44.93279" lon="6.73909">
        <ele>1818.95</ele>
        <time>2018-12-12T08:10:04Z</time>
      </trkpt>
      <trkpt lat="44.93277" lon="6.73893">
        <ele>1819.91</ele>
        <time>2018-12-12T08:10:17Z</time>
      </trkpt>
      <trkpt lat="44.93274" lon="6.7388">
        <ele>1820.39</ele>
        <time>2018-12-12T08:10:29Z</time>
      </trkpt>
      <trkpt lat="44.93267" lon="6.73864">
        <ele>1820.87</ele>
        <time>2018-12-12T08:10:44Z</time>
      </trkpt>
      <trkpt lat="44.93261" lon="6.73854">
        <ele>1821.35</ele>
        <time>2018-12-12T08:10:56Z</time>
      </trkpt>
      <trkpt lat="44.93254" lon="6.73841">
        <ele>1821.84</ele>
        <time>2018-12-12T08:11:10Z</time>
      </trkpt>
      <trkpt lat="44.93247" lon="6.73832">
        <ele>1822.8</ele>
        <time>2018-12-12T08:11:23Z</time>
      </trkpt>
      <trkpt lat="44.93239" lon="6.73821">
        <ele>1823.76</ele>
        <time>2018-12-12T08:11:37Z</time>
      </trkpt>
      <trkpt lat="44.93232" lon="6.73811">
        <ele>1824.24</ele>
        <time>2018-12-12T08:11:49Z</time>
      </trkpt>
      <trkpt lat="44.93223" lon="6.738">
        <ele>1824.72</ele>
        <time>2018-12-12T08:12:03Z</time>
      </trkpt>
      <trkpt lat="44.93215" lon="6.73794">
        <ele>1825.68</ele>
        <time>2018-12-12T08:12:16Z</time>
      </trkpt>
      <trkpt lat="44.93215" lon="6.73794">
        <ele>1825.68</ele>
        <time>2018-12-12T08:12:17Z</time>
      </trkpt>
      <trkpt lat="44.9321" lon="6.7379">
        <ele>1826.16</ele>
        <time>2018-12-12T08:12:24Z</time>
      </trkpt>
      <trkpt lat="44.93199" lon="6.73783">
        <ele>1826.64</ele>
        <time>2018-12-12T08:12:37Z</time>
      </trkpt>
      <trkpt lat="44.9319" lon="6.73776">
        <ele>1827.12</ele>
        <time>2018-12-12T08:12:50Z</time>
      </trkpt>
      <trkpt lat="44.93184" lon="6.73772">
        <ele>1827.6</ele>
        <time>2018-12-12T08:13:01Z</time>
      </trkpt>
      <trkpt lat="44.93176" lon="6.73767">
        <ele>1828.08</ele>
        <time>2018-12-12T08:13:13Z</time>
      </trkpt>
      <trkpt lat="44.93165" lon="6.73761">
        <ele>1828.56</ele>
        <time>2018-12-12T08:13:28Z</time>
      </trkpt>
      <trkpt lat="44.93156" lon="6.73755">
        <ele>1829.53</ele>
        <time>2018-12-12T08:13:41Z</time>
      </trkpt>
      <trkpt lat="44.9315" lon="6.73743">
        <ele>1830.49</ele>
        <time>2018-12-12T08:13:55Z</time>
      </trkpt>
      <trkpt lat="44.93141" lon="6.73729">
        <ele>1830.97</ele>
        <time>2018-12-12T08:14:11Z</time>
      </trkpt>
      <trkpt lat="44.93138" lon="6.73723">
        <ele>1830.97</ele>
        <time>2018-12-12T08:14:19Z</time>
      </trkpt>
      <trkpt lat="44.93128" lon="6.7371">
        <ele>1831.93</ele>
        <time>2018-12-12T08:14:34Z</time>
      </trkpt>
      <trkpt lat="44.93119" lon="6.73698">
        <ele>1832.41</ele>
        <time>2018-12-12T08:14:50Z</time>
      </trkpt>
      <trkpt lat="44.93111" lon="6.7369">
        <ele>1834.33</ele>
        <time>2018-12-12T08:15:05Z</time>
      </trkpt>
      <trkpt lat="44.93105" lon="6.73684">
        <ele>1835.29</ele>
        <time>2018-12-12T08:15:17Z</time>
      </trkpt>
      <trkpt lat="44.93103" lon="6.73682">
        <ele>1835.29</ele>
        <time>2018-12-12T08:15:31Z</time>
      </trkpt>
      <trkpt lat="44.93096" lon="6.73675">
        <ele>1834.81</ele>
        <time>2018-12-12T08:15:44Z</time>
      </trkpt>
      <trkpt lat="44.93094" lon="6.73665">
        <ele>1835.77</ele>
        <time>2018-12-12T08:16:00Z</time>
      </trkpt>
      <trkpt lat="44.93091" lon="6.73662">
        <ele>1835.77</ele>
        <time>2018-12-12T08:16:13Z</time>
      </trkpt>
      <trkpt lat="44.93083" lon="6.73655">
        <ele>1835.77</ele>
        <time>2018-12-12T08:16:29Z</time>
      </trkpt>
      <trkpt lat="44.93076" lon="6.73649">
        <ele>1835.29</ele>
        <time>2018-12-12T08:16:40Z</time>
      </trkpt>
      <trkpt lat="44.93071" lon="6.73646">
        <ele>1835.29</ele>
        <time>2018-12-12T08:16:55Z</time>
      </trkpt>
      <trkpt lat="44.93065" lon="6.73649">
        <ele>1835.29</ele>
        <time>2018-12-12T08:17:02Z</time>
      </trkpt>
      <trkpt lat="44.93059" lon="6.73662">
        <ele>1835.29</ele>
        <time>2018-12-12T08:17:14Z</time>
      </trkpt>
      <trkpt lat="44.9305" lon="6.73672">
        <ele>1836.26</ele>
        <time>2018-12-12T08:17:29Z</time>
      </trkpt>
      <trkpt lat="44.93045" lon="6.73686">
        <ele>1837.7</ele>
        <time>2018-12-12T08:17:42Z</time>
      </trkpt>
      <trkpt lat="44.93044" lon="6.73689">
        <ele>1837.7</ele>
        <time>2018-12-12T08:17:45Z</time>
      </trkpt>
      <trkpt lat="44.9303" lon="6.73693">
        <ele>1839.62</ele>
        <time>2018-12-12T08:18:02Z</time>
      </trkpt>
      <trkpt lat="44.93023" lon="6.73688">
        <ele>1840.58</ele>
        <time>2018-12-12T08:18:11Z</time>
      </trkpt>
      <trkpt lat="44.93012" lon="6.73679">
        <ele>1842.5</ele>
        <time>2018-12-12T08:18:26Z</time>
      </trkpt>
      <trkpt lat="44.93005" lon="6.73668">
        <ele>1845.39</ele>
        <time>2018-12-12T08:18:39Z</time>
      </trkpt>
      <trkpt lat="44.93" lon="6.73654">
        <ele>1843.47</ele>
        <time>2018-12-12T08:18:56Z</time>
      </trkpt>
      <trkpt lat="44.92993" lon="6.73641">
        <ele>1844.43</ele>
        <time>2018-12-12T08:19:11Z</time>
      </trkpt>
      <trkpt lat="44.92987" lon="6.73636">
        <ele>1845.39</ele>
        <time>2018-12-12T08:19:22Z</time>
      </trkpt>
      <trkpt lat="44.92975" lon="6.73623">
        <ele>1847.31</ele>
        <time>2018-12-12T08:19:37Z</time>
      </trkpt>
      <trkpt lat="44.92968" lon="6.73615">
        <ele>1848.27</ele>
        <time>2018-12-12T08:19:50Z</time>
      </trkpt>
      <trkpt lat="44.92965" lon="6.73611">
        <ele>1849.23</ele>
        <time>2018-12-12T08:19:55Z</time>
      </trkpt>
      <trkpt lat="44.92956" lon="6.73604">
        <ele>1850.68</ele>
        <time>2018-12-12T08:20:10Z</time>
      </trkpt>
      <trkpt lat="44.92949" lon="6.73596">
        <ele>1852.12</ele>
        <time>2018-12-12T08:20:23Z</time>
      </trkpt>
      <trkpt lat="44.92942" lon="6.73589">
        <ele>1853.56</ele>
        <time>2018-12-12T08:20:34Z</time>
      </trkpt>
      <trkpt lat="44.92932" lon="6.7358">
        <ele>1854.52</ele>
        <time>2018-12-12T08:20:48Z</time>
      </trkpt>
      <trkpt lat="44.92924" lon="6.73572">
        <ele>1856.44</ele>
        <time>2018-12-12T08:21:01Z</time>
      </trkpt>
      <trkpt lat="44.92914" lon="6.73563">
        <ele>1856.92</ele>
        <time>2018-12-12T08:21:16Z</time>
      </trkpt>
      <trkpt lat="44.92902" lon="6.73553">
        <ele>1857.89</ele>
        <time>2018-12-12T08:21:33Z</time>
      </trkpt>
      <trkpt lat="44.92893" lon="6.73545">
        <ele>1859.33</ele>
        <time>2018-12-12T08:21:46Z</time>
      </trkpt>
      <trkpt lat="44.92884" lon="6.73537">
        <ele>1860.77</ele>
        <time>2018-12-12T08:21:58Z</time>
      </trkpt>
      <trkpt lat="44.92876" lon="6.7353">
        <ele>1861.25</ele>
        <time>2018-12-12T08:22:11Z</time>
      </trkpt>
      <trkpt lat="44.92874" lon="6.73528">
        <ele>1861.73</ele>
        <time>2018-12-12T08:22:13Z</time>
      </trkpt>
      <trkpt lat="44.92865" lon="6.73518">
        <ele>1862.69</ele>
        <time>2018-12-12T08:22:27Z</time>
      </trkpt>
      <trkpt lat="44.92864" lon="6.73517">
        <ele>1862.69</ele>
        <time>2018-12-12T08:22:29Z</time>
      </trkpt>
      <trkpt lat="44.92855" lon="6.73505">
        <ele>1863.65</ele>
        <time>2018-12-12T08:22:43Z</time>
      </trkpt>
      <trkpt lat="44.92849" lon="6.7349">
        <ele>1864.61</ele>
        <time>2018-12-12T08:22:57Z</time>
      </trkpt>
      <trkpt lat="44.92845" lon="6.73477">
        <ele>1866.06</ele>
        <time>2018-12-12T08:23:11Z</time>
      </trkpt>
      <trkpt lat="44.92839" lon="6.73467">
        <ele>1867.5</ele>
        <time>2018-12-12T08:23:23Z</time>
      </trkpt>
      <trkpt lat="44.92832" lon="6.73458">
        <ele>1869.42</ele>
        <time>2018-12-12T08:23:37Z</time>
      </trkpt>
      <trkpt lat="44.92825" lon="6.7345">
        <ele>1871.82</ele>
        <time>2018-12-12T08:23:50Z</time>
      </trkpt>
      <trkpt lat="44.92818" lon="6.73443">
        <ele>1872.79</ele>
        <time>2018-12-12T08:24:02Z</time>
      </trkpt>
      <trkpt lat="44.92811" lon="6.73439">
        <ele>1873.27</ele>
        <time>2018-12-12T08:24:13Z</time>
      </trkpt>
      <trkpt lat="44.92803" lon="6.73431">
        <ele>1875.19</ele>
        <time>2018-12-12T08:24:27Z</time>
      </trkpt>
      <trkpt lat="44.92796" lon="6.73424">
        <ele>1877.11</ele>
        <time>2018-12-12T08:24:40Z</time>
      </trkpt>
      <trkpt lat="44.9279" lon="6.73419">
        <ele>1878.55</ele>
        <time>2018-12-12T08:24:52Z</time>
      </trkpt>
      <trkpt lat="44.92782" lon="6.73412">
        <ele>1880.96</ele>
        <time>2018-12-12T08:25:08Z</time>
      </trkpt>
      <trkpt lat="44.92774" lon="6.73407">
        <ele>1882.88</ele>
        <time>2018-12-12T08:25:23Z</time>
      </trkpt>
      <trkpt lat="44.92766" lon="6.73401">
        <ele>1885.28</ele>
        <time>2018-12-12T08:25:40Z</time>
      </trkpt>
      <trkpt lat="44.92757" lon="6.73397">
        <ele>1887.69</ele>
        <time>2018-12-12T08:25:55Z</time>
      </trkpt>
      <trkpt lat="44.92748" lon="6.73392">
        <ele>1890.09</ele>
        <time>2018-12-12T08:26:11Z</time>
      </trkpt>
      <trkpt lat="44.92743" lon="6.73388">
        <ele>1892.01</ele>
        <time>2018-12-12T08:26:25Z</time>
      </trkpt>
      <trkpt lat="44.92737" lon="6.73389">
        <ele>1893.93</ele>
        <time>2018-12-12T08:26:40Z</time>
      </trkpt>
      <trkpt lat="44.92728" lon="6.73383">
        <ele>1894.9</ele>
        <time>2018-12-12T08:26:53Z</time>
      </trkpt>
      <trkpt lat="44.92714" lon="6.7338">
        <ele>1895.38</ele>
        <time>2018-12-12T08:27:07Z</time>
      </trkpt>
      <trkpt lat="44.92703" lon="6.73378">
        <ele>1895.38</ele>
        <time>2018-12-12T08:27:19Z</time>
      </trkpt>
      <trkpt lat="44.92695" lon="6.73376">
        <ele>1895.86</ele>
        <time>2018-12-12T08:27:32Z</time>
      </trkpt>
      <trkpt lat="44.92685" lon="6.73375">
        <ele>1896.82</ele>
        <time>2018-12-12T08:27:45Z</time>
      </trkpt>
      <trkpt lat="44.92675" lon="6.73373">
        <ele>1897.78</ele>
        <time>2018-12-12T08:27:59Z</time>
      </trkpt>
      <trkpt lat="44.92665" lon="6.73369">
        <ele>1899.22</ele>
        <time>2018-12-12T08:28:12Z</time>
      </trkpt>
      <trkpt lat="44.92655" lon="6.73366">
        <ele>1900.66</ele>
        <time>2018-12-12T08:28:25Z</time>
      </trkpt>
      <trkpt lat="44.92648" lon="6.73362">
        <ele>1902.11</ele>
        <time>2018-12-12T08:28:37Z</time>
      </trkpt>
      <trkpt lat="44.9264" lon="6.73356">
        <ele>1904.03</ele>
        <time>2018-12-12T08:28:50Z</time>
      </trkpt>
      <trkpt lat="44.92632" lon="6.73349">
        <ele>1905.47</ele>
        <time>2018-12-12T08:29:04Z</time>
      </trkpt>
      <trkpt lat="44.92628" lon="6.73345">
        <ele>1906.43</ele>
        <time>2018-12-12T08:29:11Z</time>
      </trkpt>
      <trkpt lat="44.92617" lon="6.73336">
        <ele>1907.87</ele>
        <time>2018-12-12T08:29:27Z</time>
      </trkpt>
      <trkpt lat="44.9261" lon="6.73328">
        <ele>1908.83</ele>
        <time>2018-12-12T08:29:39Z</time>
      </trkpt>
      <trkpt lat="44.92601" lon="6.7332">
        <ele>1910.28</ele>
        <time>2018-12-12T08:29:52Z</time>
      </trkpt>
      <trkpt lat="44.92594" lon="6.73313">
        <ele>1911.24</ele>
        <time>2018-12-12T08:30:04Z</time>
      </trkpt>
      <trkpt lat="44.92586" lon="6.73305">
        <ele>1912.68</ele>
        <time>2018-12-12T08:30:17Z</time>
      </trkpt>
      <trkpt lat="44.92576" lon="6.73296">
        <ele>1914.12</ele>
        <time>2018-12-12T08:30:33Z</time>
      </trkpt>
      <trkpt lat="44.92568" lon="6.73286">
        <ele>1915.08</ele>
        <time>2018-12-12T08:30:47Z</time>
      </trkpt>
      <trkpt lat="44.9256" lon="6.73277">
        <ele>1916.53</ele>
        <time>2018-12-12T08:31:01Z</time>
      </trkpt>
      <trkpt lat="44.92553" lon="6.73269">
        <ele>1917.49</ele>
        <time>2018-12-12T08:31:13Z</time>
      </trkpt>
      <trkpt lat="44.92545" lon="6.7326">
        <ele>1918.45</ele>
        <time>2018-12-12T08:31:24Z</time>
      </trkpt>
      <trkpt lat="44.92545" lon="6.73259">
        <ele>1918.45</ele>
        <time>2018-12-12T08:31:25Z</time>
      </trkpt>
      <trkpt lat="44.92537" lon="6.73248">
        <ele>1918.93</ele>
        <time>2018-12-12T08:31:37Z</time>
      </trkpt>
      <trkpt lat="44.92533" lon="6.73242">
        <ele>1918.93</ele>
        <time>2018-12-12T08:31:44Z</time>
      </trkpt>
      <trkpt lat="44.92526" lon="6.7323">
        <ele>1919.89</ele>
        <time>2018-12-12T08:31:57Z</time>
      </trkpt>
      <trkpt lat="44.92518" lon="6.73217">
        <ele>1921.81</ele>
        <time>2018-12-12T08:32:12Z</time>
      </trkpt>
      <trkpt lat="44.92511" lon="6.73207">
        <ele>1922.77</ele>
        <time>2018-12-12T08:32:25Z</time>
      </trkpt>
      <trkpt lat="44.92503" lon="6.73194">
        <ele>1923.74</ele>
        <time>2018-12-12T08:32:41Z</time>
      </trkpt>
      <trkpt lat="44.92496" lon="6.73183">
        <ele>1925.66</ele>
        <time>2018-12-12T08:32:55Z</time>
      </trkpt>
      <trkpt lat="44.92491" lon="6.73177">
        <ele>1927.1</ele>
        <time>2018-12-12T08:33:08Z</time>
      </trkpt>
      <trkpt lat="44.92489" lon="6.73173">
        <ele>1927.58</ele>
        <time>2018-12-12T08:33:20Z</time>
      </trkpt>
      <trkpt lat="44.92484" lon="6.73167">
        <ele>1928.54</ele>
        <time>2018-12-12T08:33:35Z</time>
      </trkpt>
      <trkpt lat="44.92482" lon="6.73164">
        <ele>1929.02</ele>
        <time>2018-12-12T08:33:59Z</time>
      </trkpt>
      <trkpt lat="44.92476" lon="6.73154">
        <ele>1930.46</ele>
        <time>2018-12-12T08:34:12Z</time>
      </trkpt>
      <trkpt lat="44.92469" lon="6.73143">
        <ele>1931.43</ele>
        <time>2018-12-12T08:34:26Z</time>
      </trkpt>
      <trkpt lat="44.92464" lon="6.73136">
        <ele>1933.83</ele>
        <time>2018-12-12T08:34:39Z</time>
      </trkpt>
      <trkpt lat="44.92459" lon="6.73129">
        <ele>1935.27</ele>
        <time>2018-12-12T08:34:53Z</time>
      </trkpt>
      <trkpt lat="44.92453" lon="6.73121">
        <ele>1937.19</ele>
        <time>2018-12-12T08:35:09Z</time>
      </trkpt>
      <trkpt lat="44.92448" lon="6.73115">
        <ele>1938.16</ele>
        <time>2018-12-12T08:35:22Z</time>
      </trkpt>
      <trkpt lat="44.92447" lon="6.73114">
        <ele>1938.64</ele>
        <time>2018-12-12T08:35:35Z</time>
      </trkpt>
      <trkpt lat="44.92442" lon="6.73107">
        <ele>1939.6</ele>
        <time>2018-12-12T08:35:48Z</time>
      </trkpt>
      <trkpt lat="44.92435" lon="6.73099">
        <ele>1940.56</ele>
        <time>2018-12-12T08:36:01Z</time>
      </trkpt>
      <trkpt lat="44.92428" lon="6.73089">
        <ele>1942.96</ele>
        <time>2018-12-12T08:36:17Z</time>
      </trkpt>
      <trkpt lat="44.92421" lon="6.73082">
        <ele>1944.88</ele>
        <time>2018-12-12T08:36:30Z</time>
      </trkpt>
      <trkpt lat="44.92413" lon="6.73074">
        <ele>1949.21</ele>
        <time>2018-12-12T08:36:47Z</time>
      </trkpt>
      <trkpt lat="44.92407" lon="6.73065">
        <ele>1949.69</ele>
        <time>2018-12-12T08:37:04Z</time>
      </trkpt>
      <trkpt lat="44.924" lon="6.73059">
        <ele>1951.61</ele>
        <time>2018-12-12T08:37:17Z</time>
      </trkpt>
      <trkpt lat="44.92394" lon="6.73052">
        <ele>1953.54</ele>
        <time>2018-12-12T08:37:31Z</time>
      </trkpt>
      <trkpt lat="44.92387" lon="6.73044">
        <ele>1954.5</ele>
        <time>2018-12-12T08:37:45Z</time>
      </trkpt>
      <trkpt lat="44.9238" lon="6.73036">
        <ele>1955.94</ele>
        <time>2018-12-12T08:37:59Z</time>
      </trkpt>
      <trkpt lat="44.92372" lon="6.73029">
        <ele>1957.38</ele>
        <time>2018-12-12T08:38:13Z</time>
      </trkpt>
      <trkpt lat="44.92365" lon="6.73022">
        <ele>1959.3</ele>
        <time>2018-12-12T08:38:28Z</time>
      </trkpt>
      <trkpt lat="44.92359" lon="6.73012">
        <ele>1961.71</ele>
        <time>2018-12-12T08:38:44Z</time>
      </trkpt>
      <trkpt lat="44.92352" lon="6.73">
        <ele>1963.63</ele>
        <time>2018-12-12T08:39:02Z</time>
      </trkpt>
      <trkpt lat="44.92347" lon="6.7299">
        <ele>1965.55</ele>
        <time>2018-12-12T08:39:19Z</time>
      </trkpt>
      <trkpt lat="44.92342" lon="6.72981">
        <ele>1968.44</ele>
        <time>2018-12-12T08:39:38Z</time>
      </trkpt>
      <trkpt lat="44.92339" lon="6.72972">
        <ele>1970.84</ele>
        <time>2018-12-12T08:39:53Z</time>
      </trkpt>
      <trkpt lat="44.92335" lon="6.72965">
        <ele>1973.24</ele>
        <time>2018-12-12T08:40:08Z</time>
      </trkpt>
      <trkpt lat="44.92332" lon="6.72958">
        <ele>1975.17</ele>
        <time>2018-12-12T08:40:21Z</time>
      </trkpt>
      <trkpt lat="44.92328" lon="6.7295">
        <ele>1977.09</ele>
        <time>2018-12-12T08:40:35Z</time>
      </trkpt>
      <trkpt lat="44.92326" lon="6.72943">
        <ele>1979.49</ele>
        <time>2018-12-12T08:40:51Z</time>
      </trkpt>
      <trkpt lat="44.92323" lon="6.72936">
        <ele>1981.41</ele>
        <time>2018-12-12T08:41:05Z</time>
      </trkpt>
      <trkpt lat="44.9232" lon="6.72928">
        <ele>1983.34</ele>
        <time>2018-12-12T08:41:21Z</time>
      </trkpt>
      <trkpt lat="44.92317" lon="6.72924">
        <ele>1984.78</ele>
        <time>2018-12-12T08:41:36Z</time>
      </trkpt>
      <trkpt lat="44.92316" lon="6.72925">
        <ele>1984.78</ele>
        <time>2018-12-12T08:41:53Z</time>
      </trkpt>
      <trkpt lat="44.92314" lon="6.72923">
        <ele>1985.26</ele>
        <time>2018-12-12T08:42:13Z</time>
      </trkpt>
      <trkpt lat="44.92312" lon="6.72917">
        <ele>1986.22</ele>
        <time>2018-12-12T08:42:29Z</time>
      </trkpt>
      <trkpt lat="44.92308" lon="6.72908">
        <ele>1988.62</ele>
        <time>2018-12-12T08:42:47Z</time>
      </trkpt>
      <trkpt lat="44.92304" lon="6.72903">
        <ele>1990.07</ele>
        <time>2018-12-12T08:43:00Z</time>
      </trkpt>
      <trkpt lat="44.92298" lon="6.72894">
        <ele>1992.47</ele>
        <time>2018-12-12T08:43:15Z</time>
      </trkpt>
      <trkpt lat="44.92292" lon="6.72884">
        <ele>1994.39</ele>
        <time>2018-12-12T08:43:30Z</time>
      </trkpt>
      <trkpt lat="44.92287" lon="6.72878">
        <ele>1995.35</ele>
        <time>2018-12-12T08:43:42Z</time>
      </trkpt>
      <trkpt lat="44.92281" lon="6.72869">
        <ele>1997.76</ele>
        <time>2018-12-12T08:43:57Z</time>
      </trkpt>
      <trkpt lat="44.92273" lon="6.72861">
        <ele>1998.72</ele>
        <time>2018-12-12T08:44:12Z</time>
      </trkpt>
      <trkpt lat="44.92265" lon="6.72853">
        <ele>1999.2</ele>
        <time>2018-12-12T08:44:26Z</time>
      </trkpt>
      <trkpt lat="44.92255" lon="6.72845">
        <ele>1999.68</ele>
        <time>2018-12-12T08:44:39Z</time>
      </trkpt>
      <trkpt lat="44.92249" lon="6.72835">
        <ele>2000.16</ele>
        <time>2018-12-12T08:44:52Z</time>
      </trkpt>
      <trkpt lat="44.92243" lon="6.72828">
        <ele>2000.64</ele>
        <time>2018-12-12T08:45:05Z</time>
      </trkpt>
      <trkpt lat="44.92235" lon="6.7282">
        <ele>2001.12</ele>
        <time>2018-12-12T08:45:19Z</time>
      </trkpt>
      <trkpt lat="44.92228" lon="6.72811">
        <ele>2003.04</ele>
        <time>2018-12-12T08:45:34Z</time>
      </trkpt>
      <trkpt lat="44.92221" lon="6.72802">
        <ele>2004.97</ele>
        <time>2018-12-12T08:45:48Z</time>
      </trkpt>
      <trkpt lat="44.92213" lon="6.72792">
        <ele>2005.93</ele>
        <time>2018-12-12T08:46:02Z</time>
      </trkpt>
      <trkpt lat="44.92206" lon="6.72782">
        <ele>2006.89</ele>
        <time>2018-12-12T08:46:17Z</time>
      </trkpt>
      <trkpt lat="44.92198" lon="6.72772">
        <ele>2008.33</ele>
        <time>2018-12-12T08:46:32Z</time>
      </trkpt>
      <trkpt lat="44.92191" lon="6.72762">
        <ele>2009.29</ele>
        <time>2018-12-12T08:46:46Z</time>
      </trkpt>
      <trkpt lat="44.92185" lon="6.72754">
        <ele>2010.25</ele>
        <time>2018-12-12T08:46:59Z</time>
      </trkpt>
      <trkpt lat="44.92179" lon="6.72746">
        <ele>2011.7</ele>
        <time>2018-12-12T08:47:12Z</time>
      </trkpt>
      <trkpt lat="44.92173" lon="6.72737">
        <ele>2012.66</ele>
        <time>2018-12-12T08:47:25Z</time>
      </trkpt>
      <trkpt lat="44.92167" lon="6.72729">
        <ele>2014.58</ele>
        <time>2018-12-12T08:47:38Z</time>
      </trkpt>
      <trkpt lat="44.92162" lon="6.72722">
        <ele>2015.54</ele>
        <time>2018-12-12T08:47:51Z</time>
      </trkpt>
      <trkpt lat="44.92158" lon="6.72716">
        <ele>2016.98</ele>
        <time>2018-12-12T08:48:02Z</time>
      </trkpt>
      <trkpt lat="44.92151" lon="6.72704">
        <ele>2018.43</ele>
        <time>2018-12-12T08:48:18Z</time>
      </trkpt>
      <trkpt lat="44.92145" lon="6.72694">
        <ele>2019.39</ele>
        <time>2018-12-12T08:48:32Z</time>
      </trkpt>
      <trkpt lat="44.9214" lon="6.72685">
        <ele>2020.35</ele>
        <time>2018-12-12T08:48:46Z</time>
      </trkpt>
      <trkpt lat="44.92137" lon="6.72677">
        <ele>2021.31</ele>
        <time>2018-12-12T08:49:00Z</time>
      </trkpt>
      <trkpt lat="44.92133" lon="6.72668">
        <ele>2023.23</ele>
        <time>2018-12-12T08:49:15Z</time>
      </trkpt>
      <trkpt lat="44.92131" lon="6.72658">
        <ele>2024.67</ele>
        <time>2018-12-12T08:49:31Z</time>
      </trkpt>
      <trkpt lat="44.92133" lon="6.72656">
        <ele>2024.67</ele>
        <time>2018-12-12T08:49:54Z</time>
      </trkpt>
      <trkpt lat="44.9213" lon="6.72656">
        <ele>2024.67</ele>
        <time>2018-12-12T08:50:30Z</time>
      </trkpt>
      <trkpt lat="44.92124" lon="6.72647">
        <ele>2025.64</ele>
        <time>2018-12-12T08:50:43Z</time>
      </trkpt>
      <trkpt lat="44.9212" lon="6.72641">
        <ele>2026.12</ele>
        <time>2018-12-12T08:50:51Z</time>
      </trkpt>
      <trkpt lat="44.92113" lon="6.72635">
        <ele>2027.08</ele>
        <time>2018-12-12T08:51:04Z</time>
      </trkpt>
      <trkpt lat="44.92104" lon="6.72631">
        <ele>2027.56</ele>
        <time>2018-12-12T08:51:17Z</time>
      </trkpt>
      <trkpt lat="44.92102" lon="6.72631">
        <ele>2027.56</ele>
        <time>2018-12-12T08:51:37Z</time>
      </trkpt>
      <trkpt lat="44.92103" lon="6.7263">
        <ele>2027.08</ele>
        <time>2018-12-12T08:51:55Z</time>
      </trkpt>
      <trkpt lat="44.92103" lon="6.72632">
        <ele>2026.12</ele>
        <time>2018-12-12T08:51:57Z</time>
      </trkpt>
      <trkpt lat="44.92103" lon="6.72635">
        <ele>2026.12</ele>
        <time>2018-12-12T08:52:36Z</time>
      </trkpt>
      <trkpt lat="44.92104" lon="6.72634">
        <ele>2026.12</ele>
        <time>2018-12-12T08:53:08Z</time>
      </trkpt>
      <trkpt lat="44.92104" lon="6.72636">
        <ele>2026.12</ele>
        <time>2018-12-12T08:53:49Z</time>
      </trkpt>
      <trkpt lat="44.92104" lon="6.72635">
        <ele>2029.96</ele>
        <time>2018-12-12T08:54:00Z</time>
      </trkpt>
      <trkpt lat="44.92104" lon="6.72635">
        <ele>2026.6</ele>
        <time>2018-12-12T08:54:01Z</time>
      </trkpt>
      <trkpt lat="44.92106" lon="6.72632">
        <ele>2026.12</ele>
        <time>2018-12-12T08:54:36Z</time>
      </trkpt>
      <trkpt lat="44.92105" lon="6.72632">
        <ele>2026.12</ele>
        <time>2018-12-12T08:55:06Z</time>
      </trkpt>
      <trkpt lat="44.92104" lon="6.72631">
        <ele>2026.6</ele>
        <time>2018-12-12T08:55:30Z</time>
      </trkpt>
      <trkpt lat="44.92105" lon="6.72632">
        <ele>2026.6</ele>
        <time>2018-12-12T08:56:11Z</time>
      </trkpt>
      <trkpt lat="44.92105" lon="6.72635">
        <ele>2028.52</ele>
        <time>2018-12-12T08:56:43Z</time>
      </trkpt>
      <trkpt lat="44.92105" lon="6.72635">
        <ele>2027.08</ele>
        <time>2018-12-12T08:56:45Z</time>
      </trkpt>
      <trkpt lat="44.92105" lon="6.72635">
        <ele>2026.6</ele>
        <time>2018-12-12T08:57:24Z</time>
      </trkpt>
      <trkpt lat="44.92105" lon="6.72637">
        <ele>2027.08</ele>
        <time>2018-12-12T08:57:49Z</time>
      </trkpt>
      <trkpt lat="44.92106" lon="6.72639">
        <ele>2027.08</ele>
        <time>2018-12-12T08:58:26Z</time>
      </trkpt>
      <trkpt lat="44.92105" lon="6.72636">
        <ele>2027.08</ele>
        <time>2018-12-12T08:59:00Z</time>
      </trkpt>
      <trkpt lat="44.92105" lon="6.72639">
        <ele>2027.08</ele>
        <time>2018-12-12T08:59:32Z</time>
      </trkpt>
      <trkpt lat="44.92101" lon="6.72635">
        <ele>2027.08</ele>
        <time>2018-12-12T09:00:06Z</time>
      </trkpt>
      <trkpt lat="44.921" lon="6.72629">
        <ele>2027.08</ele>
        <time>2018-12-12T09:00:35Z</time>
      </trkpt>
      <trkpt lat="44.921" lon="6.72632">
        <ele>2027.08</ele>
        <time>2018-12-12T09:01:15Z</time>
      </trkpt>
      <trkpt lat="44.92098" lon="6.72633">
        <ele>2027.08</ele>
        <time>2018-12-12T09:01:43Z</time>
      </trkpt>
      <trkpt lat="44.92101" lon="6.72629">
        <ele>2028.04</ele>
        <time>2018-12-12T09:02:06Z</time>
      </trkpt>
      <trkpt lat="44.92098" lon="6.72626">
        <ele>2029</ele>
        <time>2018-12-12T09:02:17Z</time>
      </trkpt>
      <trkpt lat="44.92093" lon="6.72624">
        <ele>2029.48</ele>
        <time>2018-12-12T09:02:30Z</time>
      </trkpt>
      <trkpt lat="44.92085" lon="6.72624">
        <ele>2030.44</ele>
        <time>2018-12-12T09:02:44Z</time>
      </trkpt>
      <trkpt lat="44.92078" lon="6.72624">
        <ele>2033.81</ele>
        <time>2018-12-12T09:02:58Z</time>
      </trkpt>
      <trkpt lat="44.92072" lon="6.72629">
        <ele>2033.33</ele>
        <time>2018-12-12T09:03:12Z</time>
      </trkpt>
      <trkpt lat="44.92067" lon="6.72634">
        <ele>2034.29</ele>
        <time>2018-12-12T09:03:28Z</time>
      </trkpt>
      <trkpt lat="44.92062" lon="6.72644">
        <ele>2035.25</ele>
        <time>2018-12-12T09:03:42Z</time>
      </trkpt>
      <trkpt lat="44.92057" lon="6.72647">
        <ele>2037.17</ele>
        <time>2018-12-12T09:03:56Z</time>
      </trkpt>
      <trkpt lat="44.92055" lon="6.72649">
        <ele>2038.61</ele>
        <time>2018-12-12T09:04:09Z</time>
      </trkpt>
      <trkpt lat="44.92053" lon="6.72658">
        <ele>2040.05</ele>
        <time>2018-12-12T09:04:22Z</time>
      </trkpt>
      <trkpt lat="44.92047" lon="6.72659">
        <ele>2041.98</ele>
        <time>2018-12-12T09:04:35Z</time>
      </trkpt>
      <trkpt lat="44.9204" lon="6.7266">
        <ele>2043.42</ele>
        <time>2018-12-12T09:04:51Z</time>
      </trkpt>
      <trkpt lat="44.92035" lon="6.72663">
        <ele>2045.34</ele>
        <time>2018-12-12T09:05:06Z</time>
      </trkpt>
      <trkpt lat="44.92032" lon="6.7267">
        <ele>2046.78</ele>
        <time>2018-12-12T09:05:19Z</time>
      </trkpt>
      <trkpt lat="44.92028" lon="6.72676">
        <ele>2048.23</ele>
        <time>2018-12-12T09:05:34Z</time>
      </trkpt>
      <trkpt lat="44.92022" lon="6.7268">
        <ele>2050.15</ele>
        <time>2018-12-12T09:05:48Z</time>
      </trkpt>
      <trkpt lat="44.92016" lon="6.72684">
        <ele>2051.59</ele>
        <time>2018-12-12T09:06:02Z</time>
      </trkpt>
      <trkpt lat="44.92012" lon="6.72691">
        <ele>2052.55</ele>
        <time>2018-12-12T09:06:15Z</time>
      </trkpt>
      <trkpt lat="44.92008" lon="6.72698">
        <ele>2053.51</ele>
        <time>2018-12-12T09:06:27Z</time>
      </trkpt>
      <trkpt lat="44.92003" lon="6.72706">
        <ele>2055.44</ele>
        <time>2018-12-12T09:06:44Z</time>
      </trkpt>
      <trkpt lat="44.91998" lon="6.72713">
        <ele>2059.28</ele>
        <time>2018-12-12T09:07:00Z</time>
      </trkpt>
      <trkpt lat="44.91992" lon="6.72718">
        <ele>2059.28</ele>
        <time>2018-12-12T09:07:14Z</time>
      </trkpt>
      <trkpt lat="44.91984" lon="6.72723">
        <ele>2062.17</ele>
        <time>2018-12-12T09:07:31Z</time>
      </trkpt>
      <trkpt lat="44.91975" lon="6.72731">
        <ele>2063.61</ele>
        <time>2018-12-12T09:07:47Z</time>
      </trkpt>
      <trkpt lat="44.91971" lon="6.72736">
        <ele>2065.05</ele>
        <time>2018-12-12T09:08:01Z</time>
      </trkpt>
      <trkpt lat="44.91965" lon="6.72742">
        <ele>2066.97</ele>
        <time>2018-12-12T09:08:16Z</time>
      </trkpt>
      <trkpt lat="44.9196" lon="6.72747">
        <ele>2068.89</ele>
        <time>2018-12-12T09:08:32Z</time>
      </trkpt>
      <trkpt lat="44.91953" lon="6.7275">
        <ele>2070.82</ele>
        <time>2018-12-12T09:08:46Z</time>
      </trkpt>
      <trkpt lat="44.91948" lon="6.72753">
        <ele>2072.26</ele>
        <time>2018-12-12T09:09:00Z</time>
      </trkpt>
      <trkpt lat="44.91942" lon="6.7276">
        <ele>2073.7</ele>
        <time>2018-12-12T09:09:14Z</time>
      </trkpt>
      <trkpt lat="44.91935" lon="6.72766">
        <ele>2074.66</ele>
        <time>2018-12-12T09:09:30Z</time>
      </trkpt>
      <trkpt lat="44.91926" lon="6.72771">
        <ele>2076.1</ele>
        <time>2018-12-12T09:09:44Z</time>
      </trkpt>
      <trkpt lat="44.91921" lon="6.72775">
        <ele>2077.07</ele>
        <time>2018-12-12T09:09:58Z</time>
      </trkpt>
      <trkpt lat="44.91914" lon="6.7278">
        <ele>2078.03</ele>
        <time>2018-12-12T09:10:14Z</time>
      </trkpt>
      <trkpt lat="44.91908" lon="6.72784">
        <ele>2079.95</ele>
        <time>2018-12-12T09:10:30Z</time>
      </trkpt>
      <trkpt lat="44.91903" lon="6.72787">
        <ele>2081.39</ele>
        <time>2018-12-12T09:10:44Z</time>
      </trkpt>
      <trkpt lat="44.91898" lon="6.72789">
        <ele>2082.83</ele>
        <time>2018-12-12T09:10:58Z</time>
      </trkpt>
      <trkpt lat="44.91897" lon="6.7279">
        <ele>2083.31</ele>
        <time>2018-12-12T09:11:17Z</time>
      </trkpt>
      <trkpt lat="44.91892" lon="6.7279">
        <ele>2084.28</ele>
        <time>2018-12-12T09:11:33Z</time>
      </trkpt>
      <trkpt lat="44.91883" lon="6.72791">
        <ele>2086.68</ele>
        <time>2018-12-12T09:11:53Z</time>
      </trkpt>
      <trkpt lat="44.91878" lon="6.72794">
        <ele>2088.12</ele>
        <time>2018-12-12T09:12:05Z</time>
      </trkpt>
      <trkpt lat="44.91871" lon="6.72799">
        <ele>2090.52</ele>
        <time>2018-12-12T09:12:24Z</time>
      </trkpt>
      <trkpt lat="44.91869" lon="6.7281">
        <ele>2091.97</ele>
        <time>2018-12-12T09:12:38Z</time>
      </trkpt>
      <trkpt lat="44.9187" lon="6.72814">
        <ele>2093.41</ele>
        <time>2018-12-12T09:12:52Z</time>
      </trkpt>
      <trkpt lat="44.91867" lon="6.72816">
        <ele>2095.33</ele>
        <time>2018-12-12T09:13:04Z</time>
      </trkpt>
      <trkpt lat="44.91859" lon="6.72818">
        <ele>2096.77</ele>
        <time>2018-12-12T09:13:20Z</time>
      </trkpt>
      <trkpt lat="44.91856" lon="6.72828">
        <ele>2098.21</ele>
        <time>2018-12-12T09:13:35Z</time>
      </trkpt>
      <trkpt lat="44.91851" lon="6.72835">
        <ele>2100.14</ele>
        <time>2018-12-12T09:13:51Z</time>
      </trkpt>
      <trkpt lat="44.91847" lon="6.72842">
        <ele>2101.58</ele>
        <time>2018-12-12T09:14:05Z</time>
      </trkpt>
      <trkpt lat="44.91843" lon="6.7285">
        <ele>2103.02</ele>
        <time>2018-12-12T09:14:20Z</time>
      </trkpt>
      <trkpt lat="44.9184" lon="6.72857">
        <ele>2104.94</ele>
        <time>2018-12-12T09:14:34Z</time>
      </trkpt>
      <trkpt lat="44.91837" lon="6.72866">
        <ele>2106.39</ele>
        <time>2018-12-12T09:14:49Z</time>
      </trkpt>
      <trkpt lat="44.91834" lon="6.72871">
        <ele>2108.31</ele>
        <time>2018-12-12T09:15:03Z</time>
      </trkpt>
      <trkpt lat="44.91831" lon="6.72879">
        <ele>2110.71</ele>
        <time>2018-12-12T09:15:18Z</time>
      </trkpt>
      <trkpt lat="44.91829" lon="6.72887">
        <ele>2112.63</ele>
        <time>2018-12-12T09:15:33Z</time>
      </trkpt>
      <trkpt lat="44.91827" lon="6.72895">
        <ele>2114.56</ele>
        <time>2018-12-12T09:15:49Z</time>
      </trkpt>
      <trkpt lat="44.91824" lon="6.72902">
        <ele>2116.48</ele>
        <time>2018-12-12T09:16:05Z</time>
      </trkpt>
      <trkpt lat="44.9182" lon="6.72908">
        <ele>2117.92</ele>
        <time>2018-12-12T09:16:20Z</time>
      </trkpt>
      <trkpt lat="44.91815" lon="6.72912">
        <ele>2120.32</ele>
        <time>2018-12-12T09:16:35Z</time>
      </trkpt>
      <trkpt lat="44.91811" lon="6.72917">
        <ele>2122.25</ele>
        <time>2018-12-12T09:16:51Z</time>
      </trkpt>
      <trkpt lat="44.91808" lon="6.72922">
        <ele>2126.09</ele>
        <time>2018-12-12T09:17:04Z</time>
      </trkpt>
      <trkpt lat="44.91806" lon="6.72928">
        <ele>2126.57</ele>
        <time>2018-12-12T09:17:19Z</time>
      </trkpt>
      <trkpt lat="44.91804" lon="6.72937">
        <ele>2128.5</ele>
        <time>2018-12-12T09:17:33Z</time>
      </trkpt>
      <trkpt lat="44.91803" lon="6.72944">
        <ele>2128.98</ele>
        <time>2018-12-12T09:17:49Z</time>
      </trkpt>
      <trkpt lat="44.91798" lon="6.72954">
        <ele>2130.42</ele>
        <time>2018-12-12T09:18:04Z</time>
      </trkpt>
      <trkpt lat="44.91794" lon="6.7296">
        <ele>2131.86</ele>
        <time>2018-12-12T09:18:18Z</time>
      </trkpt>
      <trkpt lat="44.91792" lon="6.72968">
        <ele>2132.82</ele>
        <time>2018-12-12T09:18:30Z</time>
      </trkpt>
      <trkpt lat="44.91793" lon="6.72969">
        <ele>2132.82</ele>
        <time>2018-12-12T09:18:45Z</time>
      </trkpt>
      <trkpt lat="44.91792" lon="6.72972">
        <ele>2133.3</ele>
        <time>2018-12-12T09:18:58Z</time>
      </trkpt>
      <trkpt lat="44.9179" lon="6.72977">
        <ele>2134.26</ele>
        <time>2018-12-12T09:19:11Z</time>
      </trkpt>
      <trkpt lat="44.91785" lon="6.72986">
        <ele>2135.71</ele>
        <time>2018-12-12T09:19:26Z</time>
      </trkpt>
      <trkpt lat="44.91783" lon="6.72994">
        <ele>2137.63</ele>
        <time>2018-12-12T09:19:39Z</time>
      </trkpt>
      <trkpt lat="44.91781" lon="6.73002">
        <ele>2139.55</ele>
        <time>2018-12-12T09:19:53Z</time>
      </trkpt>
      <trkpt lat="44.91777" lon="6.73012">
        <ele>2140.99</ele>
        <time>2018-12-12T09:20:08Z</time>
      </trkpt>
      <trkpt lat="44.91774" lon="6.73021">
        <ele>2142.44</ele>
        <time>2018-12-12T09:20:21Z</time>
      </trkpt>
      <trkpt lat="44.91769" lon="6.73029">
        <ele>2144.84</ele>
        <time>2018-12-12T09:20:35Z</time>
      </trkpt>
      <trkpt lat="44.91762" lon="6.73039">
        <ele>2144.84</ele>
        <time>2018-12-12T09:20:50Z</time>
      </trkpt>
      <trkpt lat="44.91756" lon="6.73049">
        <ele>2145.8</ele>
        <time>2018-12-12T09:21:05Z</time>
      </trkpt>
      <trkpt lat="44.91747" lon="6.73056">
        <ele>2147.24</ele>
        <time>2018-12-12T09:21:19Z</time>
      </trkpt>
      <trkpt lat="44.91743" lon="6.73058">
        <ele>2147.72</ele>
        <time>2018-12-12T09:21:25Z</time>
      </trkpt>
      <trkpt lat="44.91732" lon="6.73059">
        <ele>2147.72</ele>
        <time>2018-12-12T09:21:39Z</time>
      </trkpt>
      <trkpt lat="44.91722" lon="6.7306">
        <ele>2148.68</ele>
        <time>2018-12-12T09:21:53Z</time>
      </trkpt>
      <trkpt lat="44.91712" lon="6.73059">
        <ele>2149.16</ele>
        <time>2018-12-12T09:22:05Z</time>
      </trkpt>
      <trkpt lat="44.91703" lon="6.7306">
        <ele>2149.65</ele>
        <time>2018-12-12T09:22:17Z</time>
      </trkpt>
      <trkpt lat="44.91693" lon="6.7306">
        <ele>2150.61</ele>
        <time>2018-12-12T09:22:29Z</time>
      </trkpt>
      <trkpt lat="44.91683" lon="6.7306">
        <ele>2151.57</ele>
        <time>2018-12-12T09:22:43Z</time>
      </trkpt>
      <trkpt lat="44.91671" lon="6.73061">
        <ele>2151.57</ele>
        <time>2018-12-12T09:22:57Z</time>
      </trkpt>
      <trkpt lat="44.91659" lon="6.73062">
        <ele>2152.05</ele>
        <time>2018-12-12T09:23:11Z</time>
      </trkpt>
      <trkpt lat="44.91649" lon="6.73062">
        <ele>2152.53</ele>
        <time>2018-12-12T09:23:25Z</time>
      </trkpt>
      <trkpt lat="44.91637" lon="6.73062">
        <ele>2153.01</ele>
        <time>2018-12-12T09:23:39Z</time>
      </trkpt>
      <trkpt lat="44.91626" lon="6.73063">
        <ele>2153.49</ele>
        <time>2018-12-12T09:23:53Z</time>
      </trkpt>
      <trkpt lat="44.91619" lon="6.73063">
        <ele>2154.93</ele>
        <time>2018-12-12T09:24:05Z</time>
      </trkpt>
      <trkpt lat="44.91609" lon="6.73064">
        <ele>2155.89</ele>
        <time>2018-12-12T09:24:19Z</time>
      </trkpt>
      <trkpt lat="44.91597" lon="6.73063">
        <ele>2157.34</ele>
        <time>2018-12-12T09:24:34Z</time>
      </trkpt>
      <trkpt lat="44.91586" lon="6.73062">
        <ele>2158.3</ele>
        <time>2018-12-12T09:24:49Z</time>
      </trkpt>
      <trkpt lat="44.91577" lon="6.73061">
        <ele>2159.26</ele>
        <time>2018-12-12T09:25:03Z</time>
      </trkpt>
      <trkpt lat="44.91567" lon="6.73061">
        <ele>2160.22</ele>
        <time>2018-12-12T09:25:18Z</time>
      </trkpt>
      <trkpt lat="44.91564" lon="6.73064">
        <ele>2161.18</ele>
        <time>2018-12-12T09:25:35Z</time>
      </trkpt>
      <trkpt lat="44.91554" lon="6.73067">
        <ele>2161.66</ele>
        <time>2018-12-12T09:25:47Z</time>
      </trkpt>
      <trkpt lat="44.9155" lon="6.73074">
        <ele>2162.14</ele>
        <time>2018-12-12T09:26:01Z</time>
      </trkpt>
      <trkpt lat="44.91549" lon="6.73075">
        <ele>2161.66</ele>
        <time>2018-12-12T09:26:23Z</time>
      </trkpt>
      <trkpt lat="44.91548" lon="6.73075">
        <ele>2161.66</ele>
        <time>2018-12-12T09:26:46Z</time>
      </trkpt>
      <trkpt lat="44.91545" lon="6.73071">
        <ele>2161.66</ele>
        <time>2018-12-12T09:27:15Z</time>
      </trkpt>
      <trkpt lat="44.91546" lon="6.73076">
        <ele>2161.66</ele>
        <time>2018-12-12T09:27:30Z</time>
      </trkpt>
      <trkpt lat="44.91547" lon="6.73074">
        <ele>2161.18</ele>
        <time>2018-12-12T09:28:06Z</time>
      </trkpt>
      <trkpt lat="44.91546" lon="6.73075">
        <ele>2161.66</ele>
        <time>2018-12-12T09:28:34Z</time>
      </trkpt>
      <trkpt lat="44.91545" lon="6.73074">
        <ele>2161.18</ele>
        <time>2018-12-12T09:28:58Z</time>
      </trkpt>
      <trkpt lat="44.91542" lon="6.73075">
        <ele>2161.18</ele>
        <time>2018-12-12T09:29:26Z</time>
      </trkpt>
      <trkpt lat="44.91545" lon="6.73075">
        <ele>2161.66</ele>
        <time>2018-12-12T09:29:47Z</time>
      </trkpt>
      <trkpt lat="44.91545" lon="6.73077">
        <ele>2162.14</ele>
        <time>2018-12-12T09:30:09Z</time>
      </trkpt>
      <trkpt lat="44.9154" lon="6.73083">
        <ele>2162.14</ele>
        <time>2018-12-12T09:30:25Z</time>
      </trkpt>
      <trkpt lat="44.9153" lon="6.73093">
        <ele>2163.1</ele>
        <time>2018-12-12T09:30:40Z</time>
      </trkpt>
      <trkpt lat="44.91523" lon="6.73103">
        <ele>2163.1</ele>
        <time>2018-12-12T09:30:54Z</time>
      </trkpt>
      <trkpt lat="44.91513" lon="6.73113">
        <ele>2164.06</ele>
        <time>2018-12-12T09:31:09Z</time>
      </trkpt>
      <trkpt lat="44.91505" lon="6.73122">
        <ele>2165.03</ele>
        <time>2018-12-12T09:31:25Z</time>
      </trkpt>
      <trkpt lat="44.91497" lon="6.7313">
        <ele>2166.47</ele>
        <time>2018-12-12T09:31:40Z</time>
      </trkpt>
      <trkpt lat="44.91493" lon="6.73134">
        <ele>2167.91</ele>
        <time>2018-12-12T09:31:54Z</time>
      </trkpt>
      <trkpt lat="44.91485" lon="6.73142">
        <ele>2169.83</ele>
        <time>2018-12-12T09:32:13Z</time>
      </trkpt>
      <trkpt lat="44.91481" lon="6.73153">
        <ele>2172.24</ele>
        <time>2018-12-12T09:32:30Z</time>
      </trkpt>
      <trkpt lat="44.91477" lon="6.7316">
        <ele>2173.68</ele>
        <time>2018-12-12T09:32:46Z</time>
      </trkpt>
      <trkpt lat="44.91473" lon="6.73165">
        <ele>2175.6</ele>
        <time>2018-12-12T09:33:01Z</time>
      </trkpt>
      <trkpt lat="44.91469" lon="6.7317">
        <ele>2178.97</ele>
        <time>2018-12-12T09:33:13Z</time>
      </trkpt>
      <trkpt lat="44.91466" lon="6.73177">
        <ele>2178.97</ele>
        <time>2018-12-12T09:33:27Z</time>
      </trkpt>
      <trkpt lat="44.91462" lon="6.73183">
        <ele>2180.89</ele>
        <time>2018-12-12T09:33:43Z</time>
      </trkpt>
      <trkpt lat="44.91455" lon="6.73191">
        <ele>2182.81</ele>
        <time>2018-12-12T09:33:59Z</time>
      </trkpt>
      <trkpt lat="44.91446" lon="6.73198">
        <ele>2184.73</ele>
        <time>2018-12-12T09:34:18Z</time>
      </trkpt>
      <trkpt lat="44.91438" lon="6.73201">
        <ele>2187.14</ele>
        <time>2018-12-12T09:34:37Z</time>
      </trkpt>
      <trkpt lat="44.9143" lon="6.73203">
        <ele>2189.06</ele>
        <time>2018-12-12T09:34:54Z</time>
      </trkpt>
      <trkpt lat="44.91423" lon="6.73204">
        <ele>2191.46</ele>
        <time>2018-12-12T09:35:08Z</time>
      </trkpt>
      <trkpt lat="44.91414" lon="6.73209">
        <ele>2192.42</ele>
        <time>2018-12-12T09:35:22Z</time>
      </trkpt>
      <trkpt lat="44.91406" lon="6.73211">
        <ele>2193.39</ele>
        <time>2018-12-12T09:35:36Z</time>
      </trkpt>
      <trkpt lat="44.91399" lon="6.73218">
        <ele>2193.87</ele>
        <time>2018-12-12T09:35:49Z</time>
      </trkpt>
      <trkpt lat="44.91396" lon="6.73225">
        <ele>2193.87</ele>
        <time>2018-12-12T09:36:01Z</time>
      </trkpt>
      <trkpt lat="44.91388" lon="6.7323">
        <ele>2194.83</ele>
        <time>2018-12-12T09:36:14Z</time>
      </trkpt>
      <trkpt lat="44.91378" lon="6.7324">
        <ele>2196.27</ele>
        <time>2018-12-12T09:36:31Z</time>
      </trkpt>
      <trkpt lat="44.91373" lon="6.73247">
        <ele>2198.19</ele>
        <time>2018-12-12T09:36:46Z</time>
      </trkpt>
      <trkpt lat="44.91366" lon="6.73253">
        <ele>2200.11</ele>
        <time>2018-12-12T09:37:02Z</time>
      </trkpt>
      <trkpt lat="44.9136" lon="6.73259">
        <ele>2203.96</ele>
        <time>2018-12-12T09:37:18Z</time>
      </trkpt>
      <trkpt lat="44.91355" lon="6.73264">
        <ele>2203</ele>
        <time>2018-12-12T09:37:31Z</time>
      </trkpt>
      <trkpt lat="44.91349" lon="6.73272">
        <ele>2204.44</ele>
        <time>2018-12-12T09:37:46Z</time>
      </trkpt>
      <trkpt lat="44.91344" lon="6.73278">
        <ele>2205.88</ele>
        <time>2018-12-12T09:37:58Z</time>
      </trkpt>
      <trkpt lat="44.91338" lon="6.73285">
        <ele>2207.32</ele>
        <time>2018-12-12T09:38:13Z</time>
      </trkpt>
      <trkpt lat="44.91331" lon="6.7329">
        <ele>2208.29</ele>
        <time>2018-12-12T09:38:27Z</time>
      </trkpt>
      <trkpt lat="44.91327" lon="6.73296">
        <ele>2209.73</ele>
        <time>2018-12-12T09:38:42Z</time>
      </trkpt>
      <trkpt lat="44.91322" lon="6.73303">
        <ele>2211.17</ele>
        <time>2018-12-12T09:38:57Z</time>
      </trkpt>
      <trkpt lat="44.91314" lon="6.73314">
        <ele>2212.61</ele>
        <time>2018-12-12T09:39:14Z</time>
      </trkpt>
      <trkpt lat="44.9131" lon="6.73319">
        <ele>2212.61</ele>
        <time>2018-12-12T09:39:21Z</time>
      </trkpt>
      <trkpt lat="44.91302" lon="6.73329">
        <ele>2213.09</ele>
        <time>2018-12-12T09:39:35Z</time>
      </trkpt>
      <trkpt lat="44.91293" lon="6.73338">
        <ele>2215.5</ele>
        <time>2018-12-12T09:39:55Z</time>
      </trkpt>
      <trkpt lat="44.91287" lon="6.73349">
        <ele>2217.9</ele>
        <time>2018-12-12T09:40:15Z</time>
      </trkpt>
      <trkpt lat="44.91281" lon="6.73358">
        <ele>2219.34</ele>
        <time>2018-12-12T09:40:28Z</time>
      </trkpt>
      <trkpt lat="44.91272" lon="6.73366">
        <ele>2220.3</ele>
        <time>2018-12-12T09:40:45Z</time>
      </trkpt>
      <trkpt lat="44.91267" lon="6.73374">
        <ele>2221.74</ele>
        <time>2018-12-12T09:41:01Z</time>
      </trkpt>
      <trkpt lat="44.91262" lon="6.73384">
        <ele>2224.15</ele>
        <time>2018-12-12T09:41:22Z</time>
      </trkpt>
      <trkpt lat="44.91256" lon="6.73392">
        <ele>2225.11</ele>
        <time>2018-12-12T09:41:39Z</time>
      </trkpt>
      <trkpt lat="44.91265" lon="6.734">
        <ele>2227.03</ele>
        <time>2018-12-12T09:41:57Z</time>
      </trkpt>
      <trkpt lat="44.91271" lon="6.73406">
        <ele>2228.47</ele>
        <time>2018-12-12T09:42:13Z</time>
      </trkpt>
      <trkpt lat="44.91278" lon="6.73412">
        <ele>2230.4</ele>
        <time>2018-12-12T09:42:28Z</time>
      </trkpt>
      <trkpt lat="44.91283" lon="6.73416">
        <ele>2231.84</ele>
        <time>2018-12-12T09:42:39Z</time>
      </trkpt>
      <trkpt lat="44.91291" lon="6.73424">
        <ele>2233.76</ele>
        <time>2018-12-12T09:42:58Z</time>
      </trkpt>
      <trkpt lat="44.91298" lon="6.73429">
        <ele>2235.68</ele>
        <time>2018-12-12T09:43:15Z</time>
      </trkpt>
      <trkpt lat="44.91305" lon="6.73434">
        <ele>2237.61</ele>
        <time>2018-12-12T09:43:30Z</time>
      </trkpt>
      <trkpt lat="44.91312" lon="6.73441">
        <ele>2239.05</ele>
        <time>2018-12-12T09:43:46Z</time>
      </trkpt>
      <trkpt lat="44.91319" lon="6.7345">
        <ele>2241.45</ele>
        <time>2018-12-12T09:44:04Z</time>
      </trkpt>
      <trkpt lat="44.91324" lon="6.73461">
        <ele>2243.37</ele>
        <time>2018-12-12T09:44:23Z</time>
      </trkpt>
      <trkpt lat="44.9133" lon="6.73473">
        <ele>2244.33</ele>
        <time>2018-12-12T09:44:39Z</time>
      </trkpt>
      <trkpt lat="44.91331" lon="6.7348">
        <ele>2245.78</ele>
        <time>2018-12-12T09:44:52Z</time>
      </trkpt>
      <trkpt lat="44.91331" lon="6.73484">
        <ele>2245.3</ele>
        <time>2018-12-12T09:45:06Z</time>
      </trkpt>
      <trkpt lat="44.91328" lon="6.73488">
        <ele>2245.78</ele>
        <time>2018-12-12T09:45:19Z</time>
      </trkpt>
      <trkpt lat="44.91326" lon="6.73499">
        <ele>2246.26</ele>
        <time>2018-12-12T09:45:32Z</time>
      </trkpt>
      <trkpt lat="44.91321" lon="6.73505">
        <ele>2246.26</ele>
        <time>2018-12-12T09:45:45Z</time>
      </trkpt>
      <trkpt lat="44.91315" lon="6.73517">
        <ele>2246.26</ele>
        <time>2018-12-12T09:46:00Z</time>
      </trkpt>
      <trkpt lat="44.91312" lon="6.73521">
        <ele>2246.26</ele>
        <time>2018-12-12T09:46:17Z</time>
      </trkpt>
      <trkpt lat="44.91309" lon="6.73532">
        <ele>2246.74</ele>
        <time>2018-12-12T09:46:32Z</time>
      </trkpt>
      <trkpt lat="44.91308" lon="6.73541">
        <ele>2247.22</ele>
        <time>2018-12-12T09:46:43Z</time>
      </trkpt>
      <trkpt lat="44.91307" lon="6.73553">
        <ele>2248.66</ele>
        <time>2018-12-12T09:46:57Z</time>
      </trkpt>
      <trkpt lat="44.91306" lon="6.73564">
        <ele>2249.62</ele>
        <time>2018-12-12T09:47:10Z</time>
      </trkpt>
      <trkpt lat="44.91303" lon="6.73574">
        <ele>2250.58</ele>
        <time>2018-12-12T09:47:25Z</time>
      </trkpt>
      <trkpt lat="44.913" lon="6.73581">
        <ele>2251.54</ele>
        <time>2018-12-12T09:47:36Z</time>
      </trkpt>
      <trkpt lat="44.91297" lon="6.73592">
        <ele>2252.03</ele>
        <time>2018-12-12T09:47:49Z</time>
      </trkpt>
      <trkpt lat="44.91295" lon="6.73594">
        <ele>2252.51</ele>
        <time>2018-12-12T09:47:59Z</time>
      </trkpt>
      <trkpt lat="44.91291" lon="6.73605">
        <ele>2253.47</ele>
        <time>2018-12-12T09:48:12Z</time>
      </trkpt>
      <trkpt lat="44.91286" lon="6.73613">
        <ele>2253.95</ele>
        <time>2018-12-12T09:48:21Z</time>
      </trkpt>
      <trkpt lat="44.9128" lon="6.73627">
        <ele>2254.43</ele>
        <time>2018-12-12T09:48:35Z</time>
      </trkpt>
      <trkpt lat="44.91273" lon="6.73638">
        <ele>2255.39</ele>
        <time>2018-12-12T09:48:48Z</time>
      </trkpt>
      <trkpt lat="44.91265" lon="6.73649">
        <ele>2256.83</ele>
        <time>2018-12-12T09:49:03Z</time>
      </trkpt>
      <trkpt lat="44.91259" lon="6.7366">
        <ele>2258.75</ele>
        <time>2018-12-12T09:49:19Z</time>
      </trkpt>
      <trkpt lat="44.91255" lon="6.73672">
        <ele>2258.27</ele>
        <time>2018-12-12T09:49:32Z</time>
      </trkpt>
      <trkpt lat="44.91251" lon="6.73683">
        <ele>2259.24</ele>
        <time>2018-12-12T09:49:45Z</time>
      </trkpt>
      <trkpt lat="44.91248" lon="6.73695">
        <ele>2260.2</ele>
        <time>2018-12-12T09:49:59Z</time>
      </trkpt>
      <trkpt lat="44.91243" lon="6.73706">
        <ele>2261.16</ele>
        <time>2018-12-12T09:50:13Z</time>
      </trkpt>
      <trkpt lat="44.91239" lon="6.73714">
        <ele>2262.12</ele>
        <time>2018-12-12T09:50:27Z</time>
      </trkpt>
      <trkpt lat="44.91236" lon="6.73721">
        <ele>2264.04</ele>
        <time>2018-12-12T09:50:45Z</time>
      </trkpt>
      <trkpt lat="44.91233" lon="6.73728">
        <ele>2265.48</ele>
        <time>2018-12-12T09:50:58Z</time>
      </trkpt>
      <trkpt lat="44.91229" lon="6.73739">
        <ele>2267.41</ele>
        <time>2018-12-12T09:51:13Z</time>
      </trkpt>
      <trkpt lat="44.91223" lon="6.73748">
        <ele>2268.85</ele>
        <time>2018-12-12T09:51:30Z</time>
      </trkpt>
      <trkpt lat="44.91216" lon="6.73753">
        <ele>2270.29</ele>
        <time>2018-12-12T09:51:45Z</time>
      </trkpt>
      <trkpt lat="44.91211" lon="6.73755">
        <ele>2271.25</ele>
        <time>2018-12-12T09:52:00Z</time>
      </trkpt>
      <trkpt lat="44.91206" lon="6.73757">
        <ele>2272.69</ele>
        <time>2018-12-12T09:52:17Z</time>
      </trkpt>
      <trkpt lat="44.91202" lon="6.73759">
        <ele>2273.66</ele>
        <time>2018-12-12T09:52:32Z</time>
      </trkpt>
      <trkpt lat="44.91197" lon="6.7376">
        <ele>2275.58</ele>
        <time>2018-12-12T09:52:47Z</time>
      </trkpt>
      <trkpt lat="44.91192" lon="6.73761">
        <ele>2276.54</ele>
        <time>2018-12-12T09:53:00Z</time>
      </trkpt>
      <trkpt lat="44.91187" lon="6.73762">
        <ele>2278.46</ele>
        <time>2018-12-12T09:53:15Z</time>
      </trkpt>
      <trkpt lat="44.91185" lon="6.73766">
        <ele>2280.38</ele>
        <time>2018-12-12T09:53:29Z</time>
      </trkpt>
      <trkpt lat="44.91185" lon="6.73771">
        <ele>2280.87</ele>
        <time>2018-12-12T09:53:41Z</time>
      </trkpt>
      <trkpt lat="44.91185" lon="6.73772">
        <ele>2281.83</ele>
        <time>2018-12-12T09:53:47Z</time>
      </trkpt>
      <trkpt lat="44.9118" lon="6.73774">
        <ele>2282.79</ele>
        <time>2018-12-12T09:54:02Z</time>
      </trkpt>
      <trkpt lat="44.91175" lon="6.73774">
        <ele>2284.23</ele>
        <time>2018-12-12T09:54:16Z</time>
      </trkpt>
      <trkpt lat="44.91171" lon="6.73773">
        <ele>2285.67</ele>
        <time>2018-12-12T09:54:29Z</time>
      </trkpt>
      <trkpt lat="44.91166" lon="6.73766">
        <ele>2287.11</ele>
        <time>2018-12-12T09:54:43Z</time>
      </trkpt>
      <trkpt lat="44.91163" lon="6.73763">
        <ele>2288.08</ele>
        <time>2018-12-12T09:54:56Z</time>
      </trkpt>
      <trkpt lat="44.9116" lon="6.73759">
        <ele>2289.04</ele>
        <time>2018-12-12T09:55:08Z</time>
      </trkpt>
      <trkpt lat="44.91154" lon="6.73758">
        <ele>2291.44</ele>
        <time>2018-12-12T09:55:24Z</time>
      </trkpt>
      <trkpt lat="44.91154" lon="6.73763">
        <ele>2292.4</ele>
        <time>2018-12-12T09:55:37Z</time>
      </trkpt>
      <trkpt lat="44.91152" lon="6.73763">
        <ele>2293.36</ele>
        <time>2018-12-12T09:55:52Z</time>
      </trkpt>
      <trkpt lat="44.91149" lon="6.73759">
        <ele>2294.32</ele>
        <time>2018-12-12T09:56:04Z</time>
      </trkpt>
      <trkpt lat="44.91144" lon="6.73755">
        <ele>2295.28</ele>
        <time>2018-12-12T09:56:16Z</time>
      </trkpt>
      <trkpt lat="44.91136" lon="6.73749">
        <ele>2297.69</ele>
        <time>2018-12-12T09:56:35Z</time>
      </trkpt>
      <trkpt lat="44.91129" lon="6.73748">
        <ele>2299.13</ele>
        <time>2018-12-12T09:56:49Z</time>
      </trkpt>
      <trkpt lat="44.91122" lon="6.73747">
        <ele>2300.57</ele>
        <time>2018-12-12T09:57:06Z</time>
      </trkpt>
      <trkpt lat="44.91113" lon="6.73751">
        <ele>2302.98</ele>
        <time>2018-12-12T09:57:21Z</time>
      </trkpt>
      <trkpt lat="44.91104" lon="6.73751">
        <ele>2301.53</ele>
        <time>2018-12-12T09:57:35Z</time>
      </trkpt>
      <trkpt lat="44.91095" lon="6.73751">
        <ele>2301.53</ele>
        <time>2018-12-12T09:57:48Z</time>
      </trkpt>
      <trkpt lat="44.91092" lon="6.73752">
        <ele>2301.05</ele>
        <time>2018-12-12T09:58:03Z</time>
      </trkpt>
      <trkpt lat="44.91086" lon="6.73752">
        <ele>2301.53</ele>
        <time>2018-12-12T09:58:16Z</time>
      </trkpt>
      <trkpt lat="44.91083" lon="6.73753">
        <ele>2301.53</ele>
        <time>2018-12-12T09:58:35Z</time>
      </trkpt>
      <trkpt lat="44.91079" lon="6.73752">
        <ele>2301.05</ele>
        <time>2018-12-12T09:58:41Z</time>
      </trkpt>
      <trkpt lat="44.91066" lon="6.73748">
        <ele>2297.69</ele>
        <time>2018-12-12T09:58:52Z</time>
      </trkpt>
      <trkpt lat="44.91056" lon="6.73742">
        <ele>2296.25</ele>
        <time>2018-12-12T09:59:04Z</time>
      </trkpt>
      <trkpt lat="44.91052" lon="6.73739">
        <ele>2296.73</ele>
        <time>2018-12-12T09:59:19Z</time>
      </trkpt>
      <trkpt lat="44.91046" lon="6.73734">
        <ele>2296.73</ele>
        <time>2018-12-12T09:59:35Z</time>
      </trkpt>
      <trkpt lat="44.9104" lon="6.7373">
        <ele>2298.17</ele>
        <time>2018-12-12T09:59:49Z</time>
      </trkpt>
      <trkpt lat="44.91037" lon="6.73725">
        <ele>2299.13</ele>
        <time>2018-12-12T09:59:57Z</time>
      </trkpt>
      <trkpt lat="44.91034" lon="6.73722">
        <ele>2299.13</ele>
        <time>2018-12-12T10:00:02Z</time>
      </trkpt>
      <trkpt lat="44.9103" lon="6.73719">
        <ele>2299.61</ele>
        <time>2018-12-12T10:00:09Z</time>
      </trkpt>
      <trkpt lat="44.91021" lon="6.73717">
        <ele>2299.61</ele>
        <time>2018-12-12T10:00:24Z</time>
      </trkpt>
      <trkpt lat="44.91011" lon="6.73718">
        <ele>2301.05</ele>
        <time>2018-12-12T10:00:38Z</time>
      </trkpt>
      <trkpt lat="44.91002" lon="6.73717">
        <ele>2302.49</ele>
        <time>2018-12-12T10:00:54Z</time>
      </trkpt>
      <trkpt lat="44.90996" lon="6.73718">
        <ele>2302.98</ele>
        <time>2018-12-12T10:01:06Z</time>
      </trkpt>
      <trkpt lat="44.90986" lon="6.73719">
        <ele>2303.94</ele>
        <time>2018-12-12T10:01:22Z</time>
      </trkpt>
      <trkpt lat="44.90978" lon="6.73721">
        <ele>2304.9</ele>
        <time>2018-12-12T10:01:36Z</time>
      </trkpt>
      <trkpt lat="44.90967" lon="6.73719">
        <ele>2305.86</ele>
        <time>2018-12-12T10:01:53Z</time>
      </trkpt>
      <trkpt lat="44.90961" lon="6.73719">
        <ele>2306.82</ele>
        <time>2018-12-12T10:02:06Z</time>
      </trkpt>
      <trkpt lat="44.90954" lon="6.73719">
        <ele>2307.78</ele>
        <time>2018-12-12T10:02:21Z</time>
      </trkpt>
      <trkpt lat="44.9095" lon="6.73717">
        <ele>2308.26</ele>
        <time>2018-12-12T10:02:31Z</time>
      </trkpt>
      <trkpt lat="44.90946" lon="6.73715">
        <ele>2309.7</ele>
        <time>2018-12-12T10:02:46Z</time>
      </trkpt>
      <trkpt lat="44.90942" lon="6.73716">
        <ele>2310.67</ele>
        <time>2018-12-12T10:02:57Z</time>
      </trkpt>
      <trkpt lat="44.9094" lon="6.73724">
        <ele>2312.11</ele>
        <time>2018-12-12T10:03:10Z</time>
      </trkpt>
      <trkpt lat="44.90939" lon="6.73729">
        <ele>2313.07</ele>
        <time>2018-12-12T10:03:22Z</time>
      </trkpt>
      <trkpt lat="44.90938" lon="6.73734">
        <ele>2313.55</ele>
        <time>2018-12-12T10:03:36Z</time>
      </trkpt>
      <trkpt lat="44.90934" lon="6.73728">
        <ele>2314.99</ele>
        <time>2018-12-12T10:03:48Z</time>
      </trkpt>
      <trkpt lat="44.9093" lon="6.73722">
        <ele>2316.43</ele>
        <time>2018-12-12T10:04:02Z</time>
      </trkpt>
      <trkpt lat="44.90926" lon="6.73718">
        <ele>2317.88</ele>
        <time>2018-12-12T10:04:16Z</time>
      </trkpt>
      <trkpt lat="44.90922" lon="6.73712">
        <ele>2319.32</ele>
        <time>2018-12-12T10:04:32Z</time>
      </trkpt>
      <trkpt lat="44.90918" lon="6.73707">
        <ele>2320.76</ele>
        <time>2018-12-12T10:04:47Z</time>
      </trkpt>
      <trkpt lat="44.90915" lon="6.73704">
        <ele>2321.72</ele>
        <time>2018-12-12T10:05:02Z</time>
      </trkpt>
      <trkpt lat="44.90918" lon="6.73714">
        <ele>2321.72</ele>
        <time>2018-12-12T10:05:15Z</time>
      </trkpt>
      <trkpt lat="44.90918" lon="6.73715">
        <ele>2322.2</ele>
        <time>2018-12-12T10:05:17Z</time>
      </trkpt>
      <trkpt lat="44.90917" lon="6.73725">
        <ele>2323.64</ele>
        <time>2018-12-12T10:05:33Z</time>
      </trkpt>
      <trkpt lat="44.90914" lon="6.73733">
        <ele>2325.09</ele>
        <time>2018-12-12T10:05:47Z</time>
      </trkpt>
      <trkpt lat="44.90914" lon="6.73738">
        <ele>2326.05</ele>
        <time>2018-12-12T10:06:02Z</time>
      </trkpt>
      <trkpt lat="44.90915" lon="6.73742">
        <ele>2327.01</ele>
        <time>2018-12-12T10:06:17Z</time>
      </trkpt>
      <trkpt lat="44.9091" lon="6.73737">
        <ele>2328.45</ele>
        <time>2018-12-12T10:06:30Z</time>
      </trkpt>
      <trkpt lat="44.90907" lon="6.73731">
        <ele>2328.93</ele>
        <time>2018-12-12T10:06:46Z</time>
      </trkpt>
      <trkpt lat="44.90903" lon="6.73724">
        <ele>2330.37</ele>
        <time>2018-12-12T10:07:01Z</time>
      </trkpt>
      <trkpt lat="44.90901" lon="6.73726">
        <ele>2330.85</ele>
        <time>2018-12-12T10:07:19Z</time>
      </trkpt>
      <trkpt lat="44.90899" lon="6.73722">
        <ele>2330.85</ele>
        <time>2018-12-12T10:07:36Z</time>
      </trkpt>
      <trkpt lat="44.90901" lon="6.73727">
        <ele>2332.3</ele>
        <time>2018-12-12T10:07:48Z</time>
      </trkpt>
      <trkpt lat="44.90901" lon="6.73734">
        <ele>2332.78</ele>
        <time>2018-12-12T10:08:01Z</time>
      </trkpt>
      <trkpt lat="44.90902" lon="6.73742">
        <ele>2334.7</ele>
        <time>2018-12-12T10:08:15Z</time>
      </trkpt>
      <trkpt lat="44.90901" lon="6.73747">
        <ele>2335.66</ele>
        <time>2018-12-12T10:08:30Z</time>
      </trkpt>
      <trkpt lat="44.90901" lon="6.73751">
        <ele>2336.62</ele>
        <time>2018-12-12T10:08:50Z</time>
      </trkpt>
      <trkpt lat="44.90896" lon="6.73748">
        <ele>2338.06</ele>
        <time>2018-12-12T10:09:04Z</time>
      </trkpt>
      <trkpt lat="44.90891" lon="6.73743">
        <ele>2339.02</ele>
        <time>2018-12-12T10:09:18Z</time>
      </trkpt>
      <trkpt lat="44.90889" lon="6.73741">
        <ele>2339.51</ele>
        <time>2018-12-12T10:09:32Z</time>
      </trkpt>
      <trkpt lat="44.90887" lon="6.73737">
        <ele>2340.47</ele>
        <time>2018-12-12T10:09:50Z</time>
      </trkpt>
      <trkpt lat="44.90887" lon="6.73743">
        <ele>2341.43</ele>
        <time>2018-12-12T10:10:06Z</time>
      </trkpt>
      <trkpt lat="44.9089" lon="6.73747">
        <ele>2341.91</ele>
        <time>2018-12-12T10:10:33Z</time>
      </trkpt>
      <trkpt lat="44.9089" lon="6.73755">
        <ele>2343.35</ele>
        <time>2018-12-12T10:10:47Z</time>
      </trkpt>
      <trkpt lat="44.90889" lon="6.73759">
        <ele>2344.31</ele>
        <time>2018-12-12T10:11:01Z</time>
      </trkpt>
      <trkpt lat="44.90883" lon="6.73755">
        <ele>2345.75</ele>
        <time>2018-12-12T10:11:16Z</time>
      </trkpt>
      <trkpt lat="44.90879" lon="6.7375">
        <ele>2346.72</ele>
        <time>2018-12-12T10:11:31Z</time>
      </trkpt>
      <trkpt lat="44.90875" lon="6.73746">
        <ele>2347.68</ele>
        <time>2018-12-12T10:11:46Z</time>
      </trkpt>
      <trkpt lat="44.90873" lon="6.73739">
        <ele>2349.6</ele>
        <time>2018-12-12T10:12:01Z</time>
      </trkpt>
      <trkpt lat="44.90869" lon="6.73734">
        <ele>2351.04</ele>
        <time>2018-12-12T10:12:15Z</time>
      </trkpt>
      <trkpt lat="44.90868" lon="6.7373">
        <ele>2352</ele>
        <time>2018-12-12T10:12:27Z</time>
      </trkpt>
      <trkpt lat="44.90865" lon="6.73727">
        <ele>2353.44</ele>
        <time>2018-12-12T10:12:40Z</time>
      </trkpt>
      <trkpt lat="44.90859" lon="6.73722">
        <ele>2354.89</ele>
        <time>2018-12-12T10:12:55Z</time>
      </trkpt>
      <trkpt lat="44.90856" lon="6.73724">
        <ele>2356.33</ele>
        <time>2018-12-12T10:13:07Z</time>
      </trkpt>
      <trkpt lat="44.90853" lon="6.73722">
        <ele>2356.81</ele>
        <time>2018-12-12T10:13:23Z</time>
      </trkpt>
      <trkpt lat="44.9085" lon="6.73723">
        <ele>2357.77</ele>
        <time>2018-12-12T10:13:39Z</time>
      </trkpt>
      <trkpt lat="44.90854" lon="6.73725">
        <ele>2356.81</ele>
        <time>2018-12-12T10:13:53Z</time>
      </trkpt>
      <trkpt lat="44.90852" lon="6.73725">
        <ele>2356.81</ele>
        <time>2018-12-12T10:14:21Z</time>
      </trkpt>
      <trkpt lat="44.90852" lon="6.73726">
        <ele>2357.29</ele>
        <time>2018-12-12T10:14:40Z</time>
      </trkpt>
      <trkpt lat="44.90853" lon="6.73727">
        <ele>2356.81</ele>
        <time>2018-12-12T10:15:04Z</time>
      </trkpt>
      <trkpt lat="44.90852" lon="6.73723">
        <ele>2356.81</ele>
        <time>2018-12-12T10:15:37Z</time>
      </trkpt>
      <trkpt lat="44.90851" lon="6.73723">
        <ele>2357.29</ele>
        <time>2018-12-12T10:16:10Z</time>
      </trkpt>
      <trkpt lat="44.90851" lon="6.73724">
        <ele>2357.29</ele>
        <time>2018-12-12T10:16:49Z</time>
      </trkpt>
      <trkpt lat="44.90851" lon="6.73728">
        <ele>2357.29</ele>
        <time>2018-12-12T10:17:26Z</time>
      </trkpt>
      <trkpt lat="44.90848" lon="6.73727">
        <ele>2357.29</ele>
        <time>2018-12-12T10:18:07Z</time>
      </trkpt>
      <trkpt lat="44.9085" lon="6.73727">
        <ele>2357.29</ele>
        <time>2018-12-12T10:18:46Z</time>
      </trkpt>
      <trkpt lat="44.9085" lon="6.73725">
        <ele>2357.29</ele>
        <time>2018-12-12T10:19:23Z</time>
      </trkpt>
      <trkpt lat="44.90852" lon="6.73727">
        <ele>2357.29</ele>
        <time>2018-12-12T10:20:03Z</time>
      </trkpt>
      <trkpt lat="44.90851" lon="6.73725">
        <ele>2357.29</ele>
        <time>2018-12-12T10:20:41Z</time>
      </trkpt>
      <trkpt lat="44.9085" lon="6.73723">
        <ele>2357.29</ele>
        <time>2018-12-12T10:21:20Z</time>
      </trkpt>
      <trkpt lat="44.90851" lon="6.73721">
        <ele>2357.29</ele>
        <time>2018-12-12T10:22:03Z</time>
      </trkpt>
      <trkpt lat="44.90851" lon="6.7372">
        <ele>2357.29</ele>
        <time>2018-12-12T10:22:46Z</time>
      </trkpt>
      <trkpt lat="44.90853" lon="6.73722">
        <ele>2357.29</ele>
        <time>2018-12-12T10:23:26Z</time>
      </trkpt>
      <trkpt lat="44.90854" lon="6.73723">
        <ele>2357.29</ele>
        <time>2018-12-12T10:24:04Z</time>
      </trkpt>
      <trkpt lat="44.90851" lon="6.73723">
        <ele>2357.29</ele>
        <time>2018-12-12T10:24:41Z</time>
      </trkpt>
      <trkpt lat="44.90852" lon="6.73724">
        <ele>2357.29</ele>
        <time>2018-12-12T10:25:24Z</time>
      </trkpt>
      <trkpt lat="44.90852" lon="6.73724">
        <ele>2357.29</ele>
        <time>2018-12-12T10:26:04Z</time>
      </trkpt>
      <trkpt lat="44.90849" lon="6.73724">
        <ele>2358.25</ele>
        <time>2018-12-12T10:26:25Z</time>
      </trkpt>
      <trkpt lat="44.90852" lon="6.73726">
        <ele>2358.73</ele>
        <time>2018-12-12T10:26:40Z</time>
      </trkpt>
      <trkpt lat="44.90848" lon="6.73727">
        <ele>2358.25</ele>
        <time>2018-12-12T10:27:11Z</time>
      </trkpt>
      <trkpt lat="44.90845" lon="6.73729">
        <ele>2359.21</ele>
        <time>2018-12-12T10:27:22Z</time>
      </trkpt>
      <trkpt lat="44.90842" lon="6.73737">
        <ele>2362.58</ele>
        <time>2018-12-12T10:27:34Z</time>
      </trkpt>
      <trkpt lat="44.90839" lon="6.73746">
        <ele>2363.54</ele>
        <time>2018-12-12T10:27:49Z</time>
      </trkpt>
      <trkpt lat="44.90835" lon="6.73756">
        <ele>2365.46</ele>
        <time>2018-12-12T10:28:09Z</time>
      </trkpt>
      <trkpt lat="44.90834" lon="6.73756">
        <ele>2365.46</ele>
        <time>2018-12-12T10:28:28Z</time>
      </trkpt>
      <trkpt lat="44.90835" lon="6.7376">
        <ele>2365.46</ele>
        <time>2018-12-12T10:28:44Z</time>
      </trkpt>
      <trkpt lat="44.90834" lon="6.73765">
        <ele>2366.9</ele>
        <time>2018-12-12T10:29:08Z</time>
      </trkpt>
      <trkpt lat="44.9083" lon="6.73772">
        <ele>2367.86</ele>
        <time>2018-12-12T10:29:22Z</time>
      </trkpt>
      <trkpt lat="44.90825" lon="6.73779">
        <ele>2369.31</ele>
        <time>2018-12-12T10:29:38Z</time>
      </trkpt>
      <trkpt lat="44.9082" lon="6.73784">
        <ele>2370.27</ele>
        <time>2018-12-12T10:29:53Z</time>
      </trkpt>
      <trkpt lat="44.90818" lon="6.73791">
        <ele>2371.71</ele>
        <time>2018-12-12T10:30:09Z</time>
      </trkpt>
      <trkpt lat="44.90814" lon="6.73797">
        <ele>2373.15</ele>
        <time>2018-12-12T10:30:25Z</time>
      </trkpt>
      <trkpt lat="44.90812" lon="6.73801">
        <ele>2373.63</ele>
        <time>2018-12-12T10:30:39Z</time>
      </trkpt>
      <trkpt lat="44.9081" lon="6.73807">
        <ele>2375.07</ele>
        <time>2018-12-12T10:30:53Z</time>
      </trkpt>
      <trkpt lat="44.90807" lon="6.73812">
        <ele>2376.04</ele>
        <time>2018-12-12T10:31:08Z</time>
      </trkpt>
      <trkpt lat="44.90805" lon="6.73816">
        <ele>2377</ele>
        <time>2018-12-12T10:31:19Z</time>
      </trkpt>
      <trkpt lat="44.90801" lon="6.73822">
        <ele>2377.96</ele>
        <time>2018-12-12T10:31:35Z</time>
      </trkpt>
      <trkpt lat="44.90797" lon="6.73826">
        <ele>2378.92</ele>
        <time>2018-12-12T10:31:50Z</time>
      </trkpt>
      <trkpt lat="44.90792" lon="6.73831">
        <ele>2379.88</ele>
        <time>2018-12-12T10:32:03Z</time>
      </trkpt>
      <trkpt lat="44.90789" lon="6.73833">
        <ele>2380.84</ele>
        <time>2018-12-12T10:32:19Z</time>
      </trkpt>
      <trkpt lat="44.90785" lon="6.73841">
        <ele>2382.28</ele>
        <time>2018-12-12T10:32:35Z</time>
      </trkpt>
      <trkpt lat="44.90784" lon="6.73846">
        <ele>2382.76</ele>
        <time>2018-12-12T10:32:51Z</time>
      </trkpt>
      <trkpt lat="44.9078" lon="6.7385">
        <ele>2383.73</ele>
        <time>2018-12-12T10:33:05Z</time>
      </trkpt>
      <trkpt lat="44.90775" lon="6.73855">
        <ele>2384.69</ele>
        <time>2018-12-12T10:33:22Z</time>
      </trkpt>
      <trkpt lat="44.90771" lon="6.7386">
        <ele>2386.13</ele>
        <time>2018-12-12T10:33:40Z</time>
      </trkpt>
      <trkpt lat="44.90768" lon="6.73864">
        <ele>2387.09</ele>
        <time>2018-12-12T10:33:57Z</time>
      </trkpt>
      <trkpt lat="44.90761" lon="6.73868">
        <ele>2388.05</ele>
        <time>2018-12-12T10:34:12Z</time>
      </trkpt>
      <trkpt lat="44.90758" lon="6.7387">
        <ele>2389.01</ele>
        <time>2018-12-12T10:34:26Z</time>
      </trkpt>
      <trkpt lat="44.90754" lon="6.73875">
        <ele>2389.97</ele>
        <time>2018-12-12T10:34:41Z</time>
      </trkpt>
      <trkpt lat="44.9075" lon="6.73879">
        <ele>2391.42</ele>
        <time>2018-12-12T10:34:56Z</time>
      </trkpt>
      <trkpt lat="44.90746" lon="6.73881">
        <ele>2392.38</ele>
        <time>2018-12-12T10:35:08Z</time>
      </trkpt>
      <trkpt lat="44.90744" lon="6.73885">
        <ele>2393.34</ele>
        <time>2018-12-12T10:35:23Z</time>
      </trkpt>
      <trkpt lat="44.9074" lon="6.73889">
        <ele>2394.78</ele>
        <time>2018-12-12T10:35:38Z</time>
      </trkpt>
      <trkpt lat="44.90738" lon="6.73894">
        <ele>2395.74</ele>
        <time>2018-12-12T10:35:51Z</time>
      </trkpt>
      <trkpt lat="44.90736" lon="6.73897">
        <ele>2396.7</ele>
        <time>2018-12-12T10:36:04Z</time>
      </trkpt>
      <trkpt lat="44.90733" lon="6.73901">
        <ele>2398.15</ele>
        <time>2018-12-12T10:36:18Z</time>
      </trkpt>
      <trkpt lat="44.90728" lon="6.73905">
        <ele>2399.11</ele>
        <time>2018-12-12T10:36:33Z</time>
      </trkpt>
      <trkpt lat="44.90723" lon="6.73909">
        <ele>2400.07</ele>
        <time>2018-12-12T10:36:48Z</time>
      </trkpt>
      <trkpt lat="44.9072" lon="6.73912">
        <ele>2401.03</ele>
        <time>2018-12-12T10:37:03Z</time>
      </trkpt>
      <trkpt lat="44.90716" lon="6.73918">
        <ele>2402.47</ele>
        <time>2018-12-12T10:37:19Z</time>
      </trkpt>
      <trkpt lat="44.90712" lon="6.73923">
        <ele>2402.95</ele>
        <time>2018-12-12T10:37:32Z</time>
      </trkpt>
      <trkpt lat="44.90708" lon="6.73928">
        <ele>2404.39</ele>
        <time>2018-12-12T10:37:47Z</time>
      </trkpt>
      <trkpt lat="44.90705" lon="6.73933">
        <ele>2405.84</ele>
        <time>2018-12-12T10:38:03Z</time>
      </trkpt>
      <trkpt lat="44.907" lon="6.73937">
        <ele>2406.8</ele>
        <time>2018-12-12T10:38:16Z</time>
      </trkpt>
      <trkpt lat="44.90697" lon="6.73942">
        <ele>2407.76</ele>
        <time>2018-12-12T10:38:30Z</time>
      </trkpt>
      <trkpt lat="44.90694" lon="6.73946">
        <ele>2408.72</ele>
        <time>2018-12-12T10:38:45Z</time>
      </trkpt>
      <trkpt lat="44.9069" lon="6.73949">
        <ele>2409.68</ele>
        <time>2018-12-12T10:38:58Z</time>
      </trkpt>
      <trkpt lat="44.90686" lon="6.73954">
        <ele>2410.64</ele>
        <time>2018-12-12T10:39:13Z</time>
      </trkpt>
      <trkpt lat="44.90682" lon="6.73958">
        <ele>2412.09</ele>
        <time>2018-12-12T10:39:26Z</time>
      </trkpt>
      <trkpt lat="44.90677" lon="6.73961">
        <ele>2413.05</ele>
        <time>2018-12-12T10:39:42Z</time>
      </trkpt>
      <trkpt lat="44.90674" lon="6.73964">
        <ele>2414.01</ele>
        <time>2018-12-12T10:39:55Z</time>
      </trkpt>
      <trkpt lat="44.9067" lon="6.73969">
        <ele>2414.97</ele>
        <time>2018-12-12T10:40:09Z</time>
      </trkpt>
      <trkpt lat="44.90668" lon="6.73974">
        <ele>2416.41</ele>
        <time>2018-12-12T10:40:25Z</time>
      </trkpt>
      <trkpt lat="44.90666" lon="6.73979">
        <ele>2417.37</ele>
        <time>2018-12-12T10:40:39Z</time>
      </trkpt>
      <trkpt lat="44.90661" lon="6.73982">
        <ele>2418.81</ele>
        <time>2018-12-12T10:40:54Z</time>
      </trkpt>
      <trkpt lat="44.90657" lon="6.73985">
        <ele>2419.78</ele>
        <time>2018-12-12T10:41:08Z</time>
      </trkpt>
      <trkpt lat="44.90653" lon="6.73987">
        <ele>2421.22</ele>
        <time>2018-12-12T10:41:22Z</time>
      </trkpt>
      <trkpt lat="44.90649" lon="6.7399">
        <ele>2422.18</ele>
        <time>2018-12-12T10:41:37Z</time>
      </trkpt>
      <trkpt lat="44.90647" lon="6.73996">
        <ele>2423.62</ele>
        <time>2018-12-12T10:41:53Z</time>
      </trkpt>
      <trkpt lat="44.90647" lon="6.73999">
        <ele>2424.58</ele>
        <time>2018-12-12T10:42:07Z</time>
      </trkpt>
      <trkpt lat="44.90645" lon="6.74001">
        <ele>2426.02</ele>
        <time>2018-12-12T10:42:20Z</time>
      </trkpt>
      <trkpt lat="44.90643" lon="6.74003">
        <ele>2426.99</ele>
        <time>2018-12-12T10:42:32Z</time>
      </trkpt>
      <trkpt lat="44.9064" lon="6.74005">
        <ele>2427.95</ele>
        <time>2018-12-12T10:42:46Z</time>
      </trkpt>
      <trkpt lat="44.90637" lon="6.74007">
        <ele>2429.39</ele>
        <time>2018-12-12T10:43:02Z</time>
      </trkpt>
      <trkpt lat="44.90636" lon="6.7401">
        <ele>2430.83</ele>
        <time>2018-12-12T10:43:14Z</time>
      </trkpt>
      <trkpt lat="44.90635" lon="6.74014">
        <ele>2431.79</ele>
        <time>2018-12-12T10:43:26Z</time>
      </trkpt>
      <trkpt lat="44.90633" lon="6.74017">
        <ele>2432.75</ele>
        <time>2018-12-12T10:43:41Z</time>
      </trkpt>
      <trkpt lat="44.90629" lon="6.74018">
        <ele>2434.2</ele>
        <time>2018-12-12T10:43:52Z</time>
      </trkpt>
      <trkpt lat="44.90626" lon="6.7402">
        <ele>2434.68</ele>
        <time>2018-12-12T10:44:04Z</time>
      </trkpt>
      <trkpt lat="44.90625" lon="6.74022">
        <ele>2436.12</ele>
        <time>2018-12-12T10:44:18Z</time>
      </trkpt>
      <trkpt lat="44.90623" lon="6.74026">
        <ele>2437.08</ele>
        <time>2018-12-12T10:44:31Z</time>
      </trkpt>
      <trkpt lat="44.90619" lon="6.74029">
        <ele>2438.04</ele>
        <time>2018-12-12T10:44:44Z</time>
      </trkpt>
      <trkpt lat="44.90615" lon="6.7403">
        <ele>2439.48</ele>
        <time>2018-12-12T10:44:58Z</time>
      </trkpt>
      <trkpt lat="44.90612" lon="6.74031">
        <ele>2440.44</ele>
        <time>2018-12-12T10:45:12Z</time>
      </trkpt>
      <trkpt lat="44.9061" lon="6.74036">
        <ele>2441.89</ele>
        <time>2018-12-12T10:45:26Z</time>
      </trkpt>
      <trkpt lat="44.90607" lon="6.7404">
        <ele>2442.85</ele>
        <time>2018-12-12T10:45:40Z</time>
      </trkpt>
      <trkpt lat="44.90603" lon="6.74045">
        <ele>2443.81</ele>
        <time>2018-12-12T10:45:54Z</time>
      </trkpt>
      <trkpt lat="44.90601" lon="6.74047">
        <ele>2444.29</ele>
        <time>2018-12-12T10:46:10Z</time>
      </trkpt>
      <trkpt lat="44.90593" lon="6.7405">
        <ele>2444.77</ele>
        <time>2018-12-12T10:46:26Z</time>
      </trkpt>
      <trkpt lat="44.90585" lon="6.7405">
        <ele>2445.25</ele>
        <time>2018-12-12T10:46:40Z</time>
      </trkpt>
      <trkpt lat="44.9058" lon="6.74048">
        <ele>2447.17</ele>
        <time>2018-12-12T10:46:56Z</time>
      </trkpt>
      <trkpt lat="44.90578" lon="6.74046">
        <ele>2448.13</ele>
        <time>2018-12-12T10:47:12Z</time>
      </trkpt>
      <trkpt lat="44.90576" lon="6.74047">
        <ele>2449.1</ele>
        <time>2018-12-12T10:47:25Z</time>
      </trkpt>
      <trkpt lat="44.90574" lon="6.74049">
        <ele>2450.06</ele>
        <time>2018-12-12T10:47:41Z</time>
      </trkpt>
      <trkpt lat="44.90572" lon="6.74047">
        <ele>2450.54</ele>
        <time>2018-12-12T10:48:02Z</time>
      </trkpt>
      <trkpt lat="44.90575" lon="6.74039">
        <ele>2451.5</ele>
        <time>2018-12-12T10:48:17Z</time>
      </trkpt>
      <trkpt lat="44.90569" lon="6.74042">
        <ele>2452.94</ele>
        <time>2018-12-12T10:48:31Z</time>
      </trkpt>
      <trkpt lat="44.90565" lon="6.7405">
        <ele>2454.38</ele>
        <time>2018-12-12T10:48:46Z</time>
      </trkpt>
      <trkpt lat="44.90562" lon="6.74056">
        <ele>2455.82</ele>
        <time>2018-12-12T10:49:01Z</time>
      </trkpt>
      <trkpt lat="44.90561" lon="6.7406">
        <ele>2456.79</ele>
        <time>2018-12-12T10:49:14Z</time>
      </trkpt>
      <trkpt lat="44.90559" lon="6.74066">
        <ele>2458.23</ele>
        <time>2018-12-12T10:49:29Z</time>
      </trkpt>
      <trkpt lat="44.90557" lon="6.74073">
        <ele>2459.19</ele>
        <time>2018-12-12T10:49:42Z</time>
      </trkpt>
      <trkpt lat="44.90555" lon="6.74079">
        <ele>2460.15</ele>
        <time>2018-12-12T10:49:56Z</time>
      </trkpt>
      <trkpt lat="44.90552" lon="6.74085">
        <ele>2461.59</ele>
        <time>2018-12-12T10:50:10Z</time>
      </trkpt>
      <trkpt lat="44.9055" lon="6.74092">
        <ele>2463.04</ele>
        <time>2018-12-12T10:50:25Z</time>
      </trkpt>
      <trkpt lat="44.90546" lon="6.741">
        <ele>2464</ele>
        <time>2018-12-12T10:50:40Z</time>
      </trkpt>
      <trkpt lat="44.90544" lon="6.74109">
        <ele>2464.96</ele>
        <time>2018-12-12T10:50:51Z</time>
      </trkpt>
      <trkpt lat="44.9054" lon="6.74122">
        <ele>2465.92</ele>
        <time>2018-12-12T10:51:08Z</time>
      </trkpt>
      <trkpt lat="44.90538" lon="6.7413">
        <ele>2466.88</ele>
        <time>2018-12-12T10:51:22Z</time>
      </trkpt>
      <trkpt lat="44.90536" lon="6.74139">
        <ele>2467.84</ele>
        <time>2018-12-12T10:51:36Z</time>
      </trkpt>
      <trkpt lat="44.90535" lon="6.74147">
        <ele>2468.8</ele>
        <time>2018-12-12T10:51:51Z</time>
      </trkpt>
      <trkpt lat="44.90533" lon="6.74155">
        <ele>2469.76</ele>
        <time>2018-12-12T10:52:06Z</time>
      </trkpt>
      <trkpt lat="44.90532" lon="6.74163">
        <ele>2471.21</ele>
        <time>2018-12-12T10:52:21Z</time>
      </trkpt>
      <trkpt lat="44.90531" lon="6.74172">
        <ele>2472.65</ele>
        <time>2018-12-12T10:52:37Z</time>
      </trkpt>
      <trkpt lat="44.9053" lon="6.7418">
        <ele>2473.61</ele>
        <time>2018-12-12T10:52:51Z</time>
      </trkpt>
      <trkpt lat="44.90531" lon="6.74186">
        <ele>2474.57</ele>
        <time>2018-12-12T10:53:02Z</time>
      </trkpt>
      <trkpt lat="44.90531" lon="6.74195">
        <ele>2475.53</ele>
        <time>2018-12-12T10:53:18Z</time>
      </trkpt>
      <trkpt lat="44.90531" lon="6.74206">
        <ele>2476.49</ele>
        <time>2018-12-12T10:53:33Z</time>
      </trkpt>
      <trkpt lat="44.90529" lon="6.74218">
        <ele>2476.49</ele>
        <time>2018-12-12T10:53:49Z</time>
      </trkpt>
      <trkpt lat="44.90528" lon="6.74229">
        <ele>2476.97</ele>
        <time>2018-12-12T10:54:04Z</time>
      </trkpt>
      <trkpt lat="44.90529" lon="6.74244">
        <ele>2476.97</ele>
        <time>2018-12-12T10:54:18Z</time>
      </trkpt>
      <trkpt lat="44.90531" lon="6.74252">
        <ele>2476.97</ele>
        <time>2018-12-12T10:54:30Z</time>
      </trkpt>
      <trkpt lat="44.90535" lon="6.74262">
        <ele>2476.97</ele>
        <time>2018-12-12T10:54:43Z</time>
      </trkpt>
      <trkpt lat="44.90538" lon="6.7427">
        <ele>2476.97</ele>
        <time>2018-12-12T10:54:55Z</time>
      </trkpt>
      <trkpt lat="44.90542" lon="6.7428">
        <ele>2477.45</ele>
        <time>2018-12-12T10:55:09Z</time>
      </trkpt>
      <trkpt lat="44.90546" lon="6.74292">
        <ele>2478.42</ele>
        <time>2018-12-12T10:55:25Z</time>
      </trkpt>
      <trkpt lat="44.90548" lon="6.74299">
        <ele>2479.86</ele>
        <time>2018-12-12T10:55:37Z</time>
      </trkpt>
      <trkpt lat="44.90549" lon="6.74308">
        <ele>2480.82</ele>
        <time>2018-12-12T10:55:51Z</time>
      </trkpt>
      <trkpt lat="44.9055" lon="6.74317">
        <ele>2481.78</ele>
        <time>2018-12-12T10:56:05Z</time>
      </trkpt>
      <trkpt lat="44.90551" lon="6.74325">
        <ele>2483.22</ele>
        <time>2018-12-12T10:56:21Z</time>
      </trkpt>
      <trkpt lat="44.90552" lon="6.74332">
        <ele>2484.18</ele>
        <time>2018-12-12T10:56:34Z</time>
      </trkpt>
      <trkpt lat="44.90553" lon="6.74339">
        <ele>2485.15</ele>
        <time>2018-12-12T10:56:48Z</time>
      </trkpt>
      <trkpt lat="44.90555" lon="6.74349">
        <ele>2486.11</ele>
        <time>2018-12-12T10:57:05Z</time>
      </trkpt>
      <trkpt lat="44.90557" lon="6.74361">
        <ele>2487.55</ele>
        <time>2018-12-12T10:57:20Z</time>
      </trkpt>
      <trkpt lat="44.9056" lon="6.74371">
        <ele>2487.55</ele>
        <time>2018-12-12T10:57:34Z</time>
      </trkpt>
      <trkpt lat="44.90563" lon="6.74377">
        <ele>2488.03</ele>
        <time>2018-12-12T10:57:50Z</time>
      </trkpt>
      <trkpt lat="44.90566" lon="6.74386">
        <ele>2488.51</ele>
        <time>2018-12-12T10:58:04Z</time>
      </trkpt>
      <trkpt lat="44.90568" lon="6.74397">
        <ele>2488.99</ele>
        <time>2018-12-12T10:58:18Z</time>
      </trkpt>
      <trkpt lat="44.90571" lon="6.74408">
        <ele>2488.99</ele>
        <time>2018-12-12T10:58:33Z</time>
      </trkpt>
      <trkpt lat="44.9057" lon="6.74418">
        <ele>2489.95</ele>
        <time>2018-12-12T10:58:47Z</time>
      </trkpt>
      <trkpt lat="44.90568" lon="6.74426">
        <ele>2490.91</ele>
        <time>2018-12-12T10:58:59Z</time>
      </trkpt>
      <trkpt lat="44.90566" lon="6.7443">
        <ele>2491.39</ele>
        <time>2018-12-12T10:59:12Z</time>
      </trkpt>
      <trkpt lat="44.90563" lon="6.74436">
        <ele>2492.84</ele>
        <time>2018-12-12T10:59:26Z</time>
      </trkpt>
      <trkpt lat="44.90561" lon="6.74444">
        <ele>2493.8</ele>
        <time>2018-12-12T10:59:40Z</time>
      </trkpt>
      <trkpt lat="44.90559" lon="6.74448">
        <ele>2494.76</ele>
        <time>2018-12-12T10:59:54Z</time>
      </trkpt>
      <trkpt lat="44.90556" lon="6.74455">
        <ele>2495.72</ele>
        <time>2018-12-12T11:00:07Z</time>
      </trkpt>
      <trkpt lat="44.90554" lon="6.7446">
        <ele>2497.16</ele>
        <time>2018-12-12T11:00:21Z</time>
      </trkpt>
      <trkpt lat="44.9055" lon="6.74466">
        <ele>2498.12</ele>
        <time>2018-12-12T11:00:37Z</time>
      </trkpt>
      <trkpt lat="44.90549" lon="6.74468">
        <ele>2498.6</ele>
        <time>2018-12-12T11:00:50Z</time>
      </trkpt>
      <trkpt lat="44.90546" lon="6.74474">
        <ele>2499.08</ele>
        <time>2018-12-12T11:01:06Z</time>
      </trkpt>
      <trkpt lat="44.90543" lon="6.74477">
        <ele>2500.05</ele>
        <time>2018-12-12T11:01:18Z</time>
      </trkpt>
      <trkpt lat="44.90539" lon="6.74483">
        <ele>2501.01</ele>
        <time>2018-12-12T11:01:33Z</time>
      </trkpt>
      <trkpt lat="44.90536" lon="6.74491">
        <ele>2502.45</ele>
        <time>2018-12-12T11:01:50Z</time>
      </trkpt>
      <trkpt lat="44.90536" lon="6.74496">
        <ele>2503.89</ele>
        <time>2018-12-12T11:02:05Z</time>
      </trkpt>
      <trkpt lat="44.90539" lon="6.74501">
        <ele>2505.33</ele>
        <time>2018-12-12T11:02:20Z</time>
      </trkpt>
      <trkpt lat="44.90541" lon="6.74506">
        <ele>2506.77</ele>
        <time>2018-12-12T11:02:35Z</time>
      </trkpt>
      <trkpt lat="44.90542" lon="6.74511">
        <ele>2507.74</ele>
        <time>2018-12-12T11:02:48Z</time>
      </trkpt>
      <trkpt lat="44.90543" lon="6.74515">
        <ele>2509.18</ele>
        <time>2018-12-12T11:03:03Z</time>
      </trkpt>
      <trkpt lat="44.90545" lon="6.74521">
        <ele>2510.14</ele>
        <time>2018-12-12T11:03:15Z</time>
      </trkpt>
      <trkpt lat="44.90546" lon="6.74524">
        <ele>2510.62</ele>
        <time>2018-12-12T11:03:27Z</time>
      </trkpt>
      <trkpt lat="44.90549" lon="6.74532">
        <ele>2512.06</ele>
        <time>2018-12-12T11:03:41Z</time>
      </trkpt>
      <trkpt lat="44.9055" lon="6.74538">
        <ele>2512.54</ele>
        <time>2018-12-12T11:03:54Z</time>
      </trkpt>
      <trkpt lat="44.90552" lon="6.74543">
        <ele>2513.5</ele>
        <time>2018-12-12T11:04:07Z</time>
      </trkpt>
      <trkpt lat="44.90553" lon="6.74549">
        <ele>2514.95</ele>
        <time>2018-12-12T11:04:21Z</time>
      </trkpt>
      <trkpt lat="44.90554" lon="6.74555">
        <ele>2515.43</ele>
        <time>2018-12-12T11:04:35Z</time>
      </trkpt>
      <trkpt lat="44.90555" lon="6.74563">
        <ele>2516.87</ele>
        <time>2018-12-12T11:04:50Z</time>
      </trkpt>
      <trkpt lat="44.90556" lon="6.74572">
        <ele>2517.83</ele>
        <time>2018-12-12T11:05:05Z</time>
      </trkpt>
      <trkpt lat="44.90557" lon="6.7458">
        <ele>2518.79</ele>
        <time>2018-12-12T11:05:20Z</time>
      </trkpt>
      <trkpt lat="44.90558" lon="6.74593">
        <ele>2519.27</ele>
        <time>2018-12-12T11:05:36Z</time>
      </trkpt>
      <trkpt lat="44.9056" lon="6.74603">
        <ele>2519.27</ele>
        <time>2018-12-12T11:05:49Z</time>
      </trkpt>
      <trkpt lat="44.90561" lon="6.74614">
        <ele>2520.23</ele>
        <time>2018-12-12T11:06:08Z</time>
      </trkpt>
      <trkpt lat="44.90563" lon="6.74623">
        <ele>2521.19</ele>
        <time>2018-12-12T11:06:23Z</time>
      </trkpt>
      <trkpt lat="44.90563" lon="6.74629">
        <ele>2522.16</ele>
        <time>2018-12-12T11:06:37Z</time>
      </trkpt>
      <trkpt lat="44.90565" lon="6.74635">
        <ele>2524.08</ele>
        <time>2018-12-12T11:06:51Z</time>
      </trkpt>
      <trkpt lat="44.90564" lon="6.74644">
        <ele>2525.04</ele>
        <time>2018-12-12T11:07:05Z</time>
      </trkpt>
      <trkpt lat="44.90566" lon="6.74652">
        <ele>2526</ele>
        <time>2018-12-12T11:07:15Z</time>
      </trkpt>
      <trkpt lat="44.90568" lon="6.74661">
        <ele>2526.48</ele>
        <time>2018-12-12T11:07:29Z</time>
      </trkpt>
      <trkpt lat="44.90569" lon="6.74672">
        <ele>2526</ele>
        <time>2018-12-12T11:07:42Z</time>
      </trkpt>
      <trkpt lat="44.90571" lon="6.74686">
        <ele>2526.48</ele>
        <time>2018-12-12T11:07:56Z</time>
      </trkpt>
      <trkpt lat="44.90573" lon="6.74694">
        <ele>2526</ele>
        <time>2018-12-12T11:08:09Z</time>
      </trkpt>
      <trkpt lat="44.90575" lon="6.74702">
        <ele>2526.48</ele>
        <time>2018-12-12T11:08:21Z</time>
      </trkpt>
      <trkpt lat="44.90576" lon="6.74708">
        <ele>2527.44</ele>
        <time>2018-12-12T11:08:33Z</time>
      </trkpt>
      <trkpt lat="44.90576" lon="6.74717">
        <ele>2528.4</ele>
        <time>2018-12-12T11:08:48Z</time>
      </trkpt>
      <trkpt lat="44.90577" lon="6.74727">
        <ele>2529.37</ele>
        <time>2018-12-12T11:09:01Z</time>
      </trkpt>
      <trkpt lat="44.90578" lon="6.74739">
        <ele>2529.85</ele>
        <time>2018-12-12T11:09:18Z</time>
      </trkpt>
      <trkpt lat="44.90577" lon="6.74747">
        <ele>2530.81</ele>
        <time>2018-12-12T11:09:32Z</time>
      </trkpt>
      <trkpt lat="44.90578" lon="6.74756">
        <ele>2532.25</ele>
        <time>2018-12-12T11:09:45Z</time>
      </trkpt>
      <trkpt lat="44.90577" lon="6.74759">
        <ele>2532.25</ele>
        <time>2018-12-12T11:10:01Z</time>
      </trkpt>
      <trkpt lat="44.90576" lon="6.74761">
        <ele>2532.25</ele>
        <time>2018-12-12T11:10:29Z</time>
      </trkpt>
      <trkpt lat="44.90575" lon="6.74762">
        <ele>2532.25</ele>
        <time>2018-12-12T11:10:44Z</time>
      </trkpt>
      <trkpt lat="44.90574" lon="6.7476">
        <ele>2532.73</ele>
        <time>2018-12-12T11:11:02Z</time>
      </trkpt>
      <trkpt lat="44.90576" lon="6.74766">
        <ele>2533.21</ele>
        <time>2018-12-12T11:11:26Z</time>
      </trkpt>
      <trkpt lat="44.90574" lon="6.74779">
        <ele>2533.69</ele>
        <time>2018-12-12T11:11:39Z</time>
      </trkpt>
      <trkpt lat="44.90572" lon="6.74791">
        <ele>2535.13</ele>
        <time>2018-12-12T11:11:55Z</time>
      </trkpt>
      <trkpt lat="44.9057" lon="6.74801">
        <ele>2536.1</ele>
        <time>2018-12-12T11:12:08Z</time>
      </trkpt>
      <trkpt lat="44.90567" lon="6.74814">
        <ele>2536.58</ele>
        <time>2018-12-12T11:12:23Z</time>
      </trkpt>
      <trkpt lat="44.90562" lon="6.74821">
        <ele>2537.54</ele>
        <time>2018-12-12T11:12:37Z</time>
      </trkpt>
      <trkpt lat="44.90559" lon="6.74828">
        <ele>2538.5</ele>
        <time>2018-12-12T11:12:53Z</time>
      </trkpt>
      <trkpt lat="44.90556" lon="6.74836">
        <ele>2539.94</ele>
        <time>2018-12-12T11:13:09Z</time>
      </trkpt>
      <trkpt lat="44.90554" lon="6.74841">
        <ele>2540.42</ele>
        <time>2018-12-12T11:13:25Z</time>
      </trkpt>
      <trkpt lat="44.90551" lon="6.74847">
        <ele>2542.82</ele>
        <time>2018-12-12T11:13:40Z</time>
      </trkpt>
      <trkpt lat="44.9055" lon="6.74849">
        <ele>2541.86</ele>
        <time>2018-12-12T11:13:55Z</time>
      </trkpt>
      <trkpt lat="44.90547" lon="6.74855">
        <ele>2543.31</ele>
        <time>2018-12-12T11:14:09Z</time>
      </trkpt>
      <trkpt lat="44.90544" lon="6.74859">
        <ele>2544.27</ele>
        <time>2018-12-12T11:14:23Z</time>
      </trkpt>
      <trkpt lat="44.90542" lon="6.74861">
        <ele>2544.75</ele>
        <time>2018-12-12T11:14:35Z</time>
      </trkpt>
      <trkpt lat="44.9054" lon="6.74866">
        <ele>2546.19</ele>
        <time>2018-12-12T11:14:50Z</time>
      </trkpt>
      <trkpt lat="44.90538" lon="6.7487">
        <ele>2547.15</ele>
        <time>2018-12-12T11:15:04Z</time>
      </trkpt>
      <trkpt lat="44.90537" lon="6.74874">
        <ele>2548.59</ele>
        <time>2018-12-12T11:15:19Z</time>
      </trkpt>
      <trkpt lat="44.90535" lon="6.74874">
        <ele>2549.07</ele>
        <time>2018-12-12T11:15:38Z</time>
      </trkpt>
      <trkpt lat="44.90533" lon="6.7488">
        <ele>2550.51</ele>
        <time>2018-12-12T11:15:52Z</time>
      </trkpt>
      <trkpt lat="44.90533" lon="6.74884">
        <ele>2551.48</ele>
        <time>2018-12-12T11:16:05Z</time>
      </trkpt>
      <trkpt lat="44.90532" lon="6.74889">
        <ele>2552.92</ele>
        <time>2018-12-12T11:16:20Z</time>
      </trkpt>
      <trkpt lat="44.90531" lon="6.74894">
        <ele>2554.36</ele>
        <time>2018-12-12T11:16:34Z</time>
      </trkpt>
      <trkpt lat="44.90531" lon="6.74898">
        <ele>2554.84</ele>
        <time>2018-12-12T11:16:52Z</time>
      </trkpt>
      <trkpt lat="44.9053" lon="6.74903">
        <ele>2556.28</ele>
        <time>2018-12-12T11:17:09Z</time>
      </trkpt>
      <trkpt lat="44.90534" lon="6.74906">
        <ele>2557.73</ele>
        <time>2018-12-12T11:17:22Z</time>
      </trkpt>
      <trkpt lat="44.90537" lon="6.74907">
        <ele>2559.17</ele>
        <time>2018-12-12T11:17:34Z</time>
      </trkpt>
      <trkpt lat="44.90539" lon="6.74908">
        <ele>2559.65</ele>
        <time>2018-12-12T11:17:48Z</time>
      </trkpt>
      <trkpt lat="44.9054" lon="6.74911">
        <ele>2560.61</ele>
        <time>2018-12-12T11:18:01Z</time>
      </trkpt>
      <trkpt lat="44.90539" lon="6.74917">
        <ele>2561.57</ele>
        <time>2018-12-12T11:18:15Z</time>
      </trkpt>
      <trkpt lat="44.90538" lon="6.7492">
        <ele>2562.05</ele>
        <time>2018-12-12T11:18:31Z</time>
      </trkpt>
      <trkpt lat="44.90537" lon="6.74925">
        <ele>2563.97</ele>
        <time>2018-12-12T11:18:45Z</time>
      </trkpt>
      <trkpt lat="44.90537" lon="6.74929">
        <ele>2564.93</ele>
        <time>2018-12-12T11:19:00Z</time>
      </trkpt>
      <trkpt lat="44.90535" lon="6.74933">
        <ele>2565.42</ele>
        <time>2018-12-12T11:19:15Z</time>
      </trkpt>
      <trkpt lat="44.90535" lon="6.74937">
        <ele>2566.38</ele>
        <time>2018-12-12T11:19:31Z</time>
      </trkpt>
      <trkpt lat="44.90539" lon="6.74937">
        <ele>2567.34</ele>
        <time>2018-12-12T11:19:44Z</time>
      </trkpt>
      <trkpt lat="44.90542" lon="6.74936">
        <ele>2567.82</ele>
        <time>2018-12-12T11:19:57Z</time>
      </trkpt>
      <trkpt lat="44.90546" lon="6.74935">
        <ele>2568.78</ele>
        <time>2018-12-12T11:20:12Z</time>
      </trkpt>
      <trkpt lat="44.90546" lon="6.74936">
        <ele>2568.78</ele>
        <time>2018-12-12T11:20:30Z</time>
      </trkpt>
      <trkpt lat="44.90545" lon="6.74939">
        <ele>2570.22</ele>
        <time>2018-12-12T11:20:47Z</time>
      </trkpt>
      <trkpt lat="44.90545" lon="6.74944">
        <ele>2571.18</ele>
        <time>2018-12-12T11:21:00Z</time>
      </trkpt>
      <trkpt lat="44.90544" lon="6.74948">
        <ele>2572.14</ele>
        <time>2018-12-12T11:21:13Z</time>
      </trkpt>
      <trkpt lat="44.90543" lon="6.74953">
        <ele>2573.11</ele>
        <time>2018-12-12T11:21:26Z</time>
      </trkpt>
      <trkpt lat="44.90542" lon="6.74958">
        <ele>2573.59</ele>
        <time>2018-12-12T11:21:39Z</time>
      </trkpt>
      <trkpt lat="44.90541" lon="6.74963">
        <ele>2574.55</ele>
        <time>2018-12-12T11:21:56Z</time>
      </trkpt>
      <trkpt lat="44.9054" lon="6.74966">
        <ele>2575.51</ele>
        <time>2018-12-12T11:22:14Z</time>
      </trkpt>
      <trkpt lat="44.9054" lon="6.74968">
        <ele>2575.51</ele>
        <time>2018-12-12T11:22:31Z</time>
      </trkpt>
      <trkpt lat="44.90541" lon="6.7497">
        <ele>2575.99</ele>
        <time>2018-12-12T11:22:59Z</time>
      </trkpt>
      <trkpt lat="44.90545" lon="6.74967">
        <ele>2577.43</ele>
        <time>2018-12-12T11:23:12Z</time>
      </trkpt>
      <trkpt lat="44.90547" lon="6.74966">
        <ele>2578.39</ele>
        <time>2018-12-12T11:23:26Z</time>
      </trkpt>
      <trkpt lat="44.90549" lon="6.74966">
        <ele>2579.35</ele>
        <time>2018-12-12T11:23:47Z</time>
      </trkpt>
      <trkpt lat="44.90548" lon="6.7497">
        <ele>2580.32</ele>
        <time>2018-12-12T11:24:01Z</time>
      </trkpt>
      <trkpt lat="44.90546" lon="6.7497">
        <ele>2580.32</ele>
        <time>2018-12-12T11:24:21Z</time>
      </trkpt>
      <trkpt lat="44.90549" lon="6.74973">
        <ele>2581.28</ele>
        <time>2018-12-12T11:24:33Z</time>
      </trkpt>
      <trkpt lat="44.90553" lon="6.7497">
        <ele>2582.24</ele>
        <time>2018-12-12T11:24:47Z</time>
      </trkpt>
      <trkpt lat="44.90556" lon="6.74969">
        <ele>2583.2</ele>
        <time>2018-12-12T11:25:00Z</time>
      </trkpt>
      <trkpt lat="44.90557" lon="6.74971">
        <ele>2583.68</ele>
        <time>2018-12-12T11:25:14Z</time>
      </trkpt>
      <trkpt lat="44.90556" lon="6.74971">
        <ele>2583.68</ele>
        <time>2018-12-12T11:25:31Z</time>
      </trkpt>
      <trkpt lat="44.90557" lon="6.74969">
        <ele>2584.16</ele>
        <time>2018-12-12T11:25:59Z</time>
      </trkpt>
      <trkpt lat="44.90558" lon="6.74968">
        <ele>2584.16</ele>
        <time>2018-12-12T11:26:28Z</time>
      </trkpt>
      <trkpt lat="44.90558" lon="6.74969">
        <ele>2584.64</ele>
        <time>2018-12-12T11:26:53Z</time>
      </trkpt>
      <trkpt lat="44.90562" lon="6.74972">
        <ele>2584.64</ele>
        <time>2018-12-12T11:27:15Z</time>
      </trkpt>
      <trkpt lat="44.90559" lon="6.74968">
        <ele>2584.16</ele>
        <time>2018-12-12T11:27:37Z</time>
      </trkpt>
      <trkpt lat="44.90557" lon="6.74971">
        <ele>2584.16</ele>
        <time>2018-12-12T11:28:00Z</time>
      </trkpt>
      <trkpt lat="44.90556" lon="6.74971">
        <ele>2584.16</ele>
        <time>2018-12-12T11:28:27Z</time>
      </trkpt>
      <trkpt lat="44.90557" lon="6.7497">
        <ele>2584.16</ele>
        <time>2018-12-12T11:28:48Z</time>
      </trkpt>
      <trkpt lat="44.90559" lon="6.7497">
        <ele>2584.64</ele>
        <time>2018-12-12T11:29:08Z</time>
      </trkpt>
      <trkpt lat="44.90562" lon="6.74972">
        <ele>2585.6</ele>
        <time>2018-12-12T11:29:26Z</time>
      </trkpt>
      <trkpt lat="44.90563" lon="6.74974">
        <ele>2586.08</ele>
        <time>2018-12-12T11:29:42Z</time>
      </trkpt>
      <trkpt lat="44.90562" lon="6.74974">
        <ele>2587.04</ele>
        <time>2018-12-12T11:29:54Z</time>
      </trkpt>
      <trkpt lat="44.9056" lon="6.74977">
        <ele>2587.53</ele>
        <time>2018-12-12T11:30:05Z</time>
      </trkpt>
      <trkpt lat="44.90558" lon="6.74979">
        <ele>2588.97</ele>
        <time>2018-12-12T11:30:20Z</time>
      </trkpt>
      <trkpt lat="44.90562" lon="6.74979">
        <ele>2589.93</ele>
        <time>2018-12-12T11:30:33Z</time>
      </trkpt>
      <trkpt lat="44.90564" lon="6.74981">
        <ele>2590.41</ele>
        <time>2018-12-12T11:30:47Z</time>
      </trkpt>
      <trkpt lat="44.90567" lon="6.74981">
        <ele>2591.37</ele>
        <time>2018-12-12T11:30:59Z</time>
      </trkpt>
      <trkpt lat="44.90572" lon="6.7498">
        <ele>2592.81</ele>
        <time>2018-12-12T11:31:16Z</time>
      </trkpt>
      <trkpt lat="44.90576" lon="6.74979">
        <ele>2593.77</ele>
        <time>2018-12-12T11:31:30Z</time>
      </trkpt>
      <trkpt lat="44.90577" lon="6.74975">
        <ele>2594.74</ele>
        <time>2018-12-12T11:31:44Z</time>
      </trkpt>
      <trkpt lat="44.90577" lon="6.74976">
        <ele>2595.22</ele>
        <time>2018-12-12T11:31:58Z</time>
      </trkpt>
      <trkpt lat="44.90581" lon="6.74979">
        <ele>2596.18</ele>
        <time>2018-12-12T11:32:21Z</time>
      </trkpt>
      <trkpt lat="44.9058" lon="6.74986">
        <ele>2597.62</ele>
        <time>2018-12-12T11:32:38Z</time>
      </trkpt>
      <trkpt lat="44.90578" lon="6.7499">
        <ele>2598.58</ele>
        <time>2018-12-12T11:32:50Z</time>
      </trkpt>
      <trkpt lat="44.90577" lon="6.74994">
        <ele>2599.54</ele>
        <time>2018-12-12T11:33:05Z</time>
      </trkpt>
      <trkpt lat="44.90578" lon="6.74996">
        <ele>2600.5</ele>
        <time>2018-12-12T11:33:18Z</time>
      </trkpt>
      <trkpt lat="44.9058" lon="6.74995">
        <ele>2601.46</ele>
        <time>2018-12-12T11:33:33Z</time>
      </trkpt>
      <trkpt lat="44.90583" lon="6.74998">
        <ele>2602.91</ele>
        <time>2018-12-12T11:33:48Z</time>
      </trkpt>
      <trkpt lat="44.90584" lon="6.74999">
        <ele>2603.39</ele>
        <time>2018-12-12T11:34:03Z</time>
      </trkpt>
      <trkpt lat="44.90581" lon="6.75">
        <ele>2603.87</ele>
        <time>2018-12-12T11:34:24Z</time>
      </trkpt>
      <trkpt lat="44.90579" lon="6.75005">
        <ele>2605.31</ele>
        <time>2018-12-12T11:34:40Z</time>
      </trkpt>
      <trkpt lat="44.90578" lon="6.75009">
        <ele>2606.27</ele>
        <time>2018-12-12T11:34:54Z</time>
      </trkpt>
      <trkpt lat="44.90582" lon="6.75009">
        <ele>2608.19</ele>
        <time>2018-12-12T11:35:07Z</time>
      </trkpt>
      <trkpt lat="44.90586" lon="6.75008">
        <ele>2608.19</ele>
        <time>2018-12-12T11:35:21Z</time>
      </trkpt>
      <trkpt lat="44.90588" lon="6.75011">
        <ele>2608.67</ele>
        <time>2018-12-12T11:35:43Z</time>
      </trkpt>
      <trkpt lat="44.90588" lon="6.75011">
        <ele>2609.64</ele>
        <time>2018-12-12T11:35:58Z</time>
      </trkpt>
      <trkpt lat="44.90587" lon="6.75014">
        <ele>2610.6</ele>
        <time>2018-12-12T11:36:12Z</time>
      </trkpt>
      <trkpt lat="44.90586" lon="6.7502">
        <ele>2611.56</ele>
        <time>2018-12-12T11:36:26Z</time>
      </trkpt>
      <trkpt lat="44.90589" lon="6.7502">
        <ele>2612.52</ele>
        <time>2018-12-12T11:36:38Z</time>
      </trkpt>
      <trkpt lat="44.90592" lon="6.75021">
        <ele>2613.48</ele>
        <time>2018-12-12T11:37:00Z</time>
      </trkpt>
      <trkpt lat="44.90596" lon="6.75022">
        <ele>2614.92</ele>
        <time>2018-12-12T11:37:14Z</time>
      </trkpt>
      <trkpt lat="44.90598" lon="6.75023">
        <ele>2615.88</ele>
        <time>2018-12-12T11:37:27Z</time>
      </trkpt>
      <trkpt lat="44.90596" lon="6.75024">
        <ele>2615.88</ele>
        <time>2018-12-12T11:37:41Z</time>
      </trkpt>
      <trkpt lat="44.90595" lon="6.75028">
        <ele>2616.85</ele>
        <time>2018-12-12T11:37:57Z</time>
      </trkpt>
      <trkpt lat="44.90594" lon="6.75031">
        <ele>2617.81</ele>
        <time>2018-12-12T11:38:11Z</time>
      </trkpt>
      <trkpt lat="44.90597" lon="6.7503">
        <ele>2618.77</ele>
        <time>2018-12-12T11:38:25Z</time>
      </trkpt>
      <trkpt lat="44.90598" lon="6.75031">
        <ele>2618.77</ele>
        <time>2018-12-12T11:38:46Z</time>
      </trkpt>
      <trkpt lat="44.906" lon="6.75032">
        <ele>2619.25</ele>
        <time>2018-12-12T11:39:00Z</time>
      </trkpt>
      <trkpt lat="44.90599" lon="6.75029">
        <ele>2619.73</ele>
        <time>2018-12-12T11:39:14Z</time>
      </trkpt>
      <trkpt lat="44.90597" lon="6.75034">
        <ele>2620.69</ele>
        <time>2018-12-12T11:39:28Z</time>
      </trkpt>
      <trkpt lat="44.90597" lon="6.7504">
        <ele>2621.65</ele>
        <time>2018-12-12T11:39:42Z</time>
      </trkpt>
      <trkpt lat="44.906" lon="6.75039">
        <ele>2622.61</ele>
        <time>2018-12-12T11:40:07Z</time>
      </trkpt>
      <trkpt lat="44.90601" lon="6.7504">
        <ele>2622.61</ele>
        <time>2018-12-12T11:40:27Z</time>
      </trkpt>
      <trkpt lat="44.90601" lon="6.75039">
        <ele>2622.61</ele>
        <time>2018-12-12T11:40:54Z</time>
      </trkpt>
      <trkpt lat="44.90602" lon="6.75041">
        <ele>2623.09</ele>
        <time>2018-12-12T11:41:25Z</time>
      </trkpt>
      <trkpt lat="44.90599" lon="6.75043">
        <ele>2623.58</ele>
        <time>2018-12-12T11:41:36Z</time>
      </trkpt>
      <trkpt lat="44.90595" lon="6.75046">
        <ele>2625.5</ele>
        <time>2018-12-12T11:41:51Z</time>
      </trkpt>
      <trkpt lat="44.90597" lon="6.75048">
        <ele>2626.46</ele>
        <time>2018-12-12T11:42:04Z</time>
      </trkpt>
      <trkpt lat="44.90596" lon="6.75047">
        <ele>2626.46</ele>
        <time>2018-12-12T11:42:25Z</time>
      </trkpt>
      <trkpt lat="44.90599" lon="6.75049">
        <ele>2626.94</ele>
        <time>2018-12-12T11:42:52Z</time>
      </trkpt>
      <trkpt lat="44.906" lon="6.75051">
        <ele>2627.9</ele>
        <time>2018-12-12T11:43:11Z</time>
      </trkpt>
      <trkpt lat="44.906" lon="6.75052">
        <ele>2627.9</ele>
        <time>2018-12-12T11:43:31Z</time>
      </trkpt>
      <trkpt lat="44.90599" lon="6.75053">
        <ele>2628.38</ele>
        <time>2018-12-12T11:43:54Z</time>
      </trkpt>
      <trkpt lat="44.90598" lon="6.75053">
        <ele>2628.86</ele>
        <time>2018-12-12T11:44:20Z</time>
      </trkpt>
      <trkpt lat="44.90598" lon="6.75052">
        <ele>2628.86</ele>
        <time>2018-12-12T11:44:41Z</time>
      </trkpt>
      <trkpt lat="44.90598" lon="6.75052">
        <ele>2629.34</ele>
        <time>2018-12-12T11:45:04Z</time>
      </trkpt>
      <trkpt lat="44.90599" lon="6.75051">
        <ele>2629.82</ele>
        <time>2018-12-12T11:45:25Z</time>
      </trkpt>
      <trkpt lat="44.906" lon="6.7505">
        <ele>2629.82</ele>
        <time>2018-12-12T11:45:49Z</time>
      </trkpt>
      <trkpt lat="44.90597" lon="6.75051">
        <ele>2630.3</ele>
        <time>2018-12-12T11:46:12Z</time>
      </trkpt>
      <trkpt lat="44.90598" lon="6.75053">
        <ele>2631.27</ele>
        <time>2018-12-12T11:46:26Z</time>
      </trkpt>
      <trkpt lat="44.90598" lon="6.75056">
        <ele>2632.23</ele>
        <time>2018-12-12T11:46:44Z</time>
      </trkpt>
      <trkpt lat="44.90598" lon="6.75056">
        <ele>2631.75</ele>
        <time>2018-12-12T11:47:06Z</time>
      </trkpt>
      <trkpt lat="44.90598" lon="6.75056">
        <ele>2632.23</ele>
        <time>2018-12-12T11:47:25Z</time>
      </trkpt>
      <trkpt lat="44.90598" lon="6.75057">
        <ele>2632.71</ele>
        <time>2018-12-12T11:47:56Z</time>
      </trkpt>
      <trkpt lat="44.90598" lon="6.75057">
        <ele>2632.71</ele>
        <time>2018-12-12T11:48:11Z</time>
      </trkpt>
      <trkpt lat="44.90598" lon="6.75058">
        <ele>2633.19</ele>
        <time>2018-12-12T11:48:37Z</time>
      </trkpt>
      <trkpt lat="44.90599" lon="6.75055">
        <ele>2633.19</ele>
        <time>2018-12-12T11:48:56Z</time>
      </trkpt>
      <trkpt lat="44.906" lon="6.75059">
        <ele>2634.15</ele>
        <time>2018-12-12T11:49:11Z</time>
      </trkpt>
      <trkpt lat="44.906" lon="6.75062">
        <ele>2634.63</ele>
        <time>2018-12-12T11:49:25Z</time>
      </trkpt>
      <trkpt lat="44.90599" lon="6.75063">
        <ele>2634.63</ele>
        <time>2018-12-12T11:49:42Z</time>
      </trkpt>
      <trkpt lat="44.906" lon="6.75065">
        <ele>2635.59</ele>
        <time>2018-12-12T11:49:57Z</time>
      </trkpt>
      <trkpt lat="44.90599" lon="6.75071">
        <ele>2636.55</ele>
        <time>2018-12-12T11:50:11Z</time>
      </trkpt>
      <trkpt lat="44.90598" lon="6.75083">
        <ele>2637.99</ele>
        <time>2018-12-12T11:50:29Z</time>
      </trkpt>
      <trkpt lat="44.90595" lon="6.75091">
        <ele>2638.96</ele>
        <time>2018-12-12T11:50:45Z</time>
      </trkpt>
      <trkpt lat="44.90588" lon="6.75096">
        <ele>2639.92</ele>
        <time>2018-12-12T11:51:00Z</time>
      </trkpt>
      <trkpt lat="44.90585" lon="6.75101">
        <ele>2640.4</ele>
        <time>2018-12-12T11:51:14Z</time>
      </trkpt>
      <trkpt lat="44.90584" lon="6.75106">
        <ele>2641.84</ele>
        <time>2018-12-12T11:51:28Z</time>
      </trkpt>
      <trkpt lat="44.90584" lon="6.75113">
        <ele>2643.28</ele>
        <time>2018-12-12T11:51:43Z</time>
      </trkpt>
      <trkpt lat="44.9058" lon="6.75117">
        <ele>2643.76</ele>
        <time>2018-12-12T11:51:58Z</time>
      </trkpt>
      <trkpt lat="44.90577" lon="6.75119">
        <ele>2644.72</ele>
        <time>2018-12-12T11:52:10Z</time>
      </trkpt>
      <trkpt lat="44.90576" lon="6.75126">
        <ele>2646.17</ele>
        <time>2018-12-12T11:52:23Z</time>
      </trkpt>
      <trkpt lat="44.90575" lon="6.75132">
        <ele>2647.13</ele>
        <time>2018-12-12T11:52:38Z</time>
      </trkpt>
      <trkpt lat="44.90573" lon="6.75135">
        <ele>2648.09</ele>
        <time>2018-12-12T11:52:51Z</time>
      </trkpt>
      <trkpt lat="44.90572" lon="6.75139">
        <ele>2649.53</ele>
        <time>2018-12-12T11:53:04Z</time>
      </trkpt>
      <trkpt lat="44.9057" lon="6.75141">
        <ele>2650.01</ele>
        <time>2018-12-12T11:53:16Z</time>
      </trkpt>
      <trkpt lat="44.90566" lon="6.75141">
        <ele>2650.49</ele>
        <time>2018-12-12T11:53:34Z</time>
      </trkpt>
      <trkpt lat="44.90562" lon="6.7515">
        <ele>2651.45</ele>
        <time>2018-12-12T11:53:48Z</time>
      </trkpt>
      <trkpt lat="44.90558" lon="6.75158">
        <ele>2650.97</ele>
        <time>2018-12-12T11:54:02Z</time>
      </trkpt>
      <trkpt lat="44.90557" lon="6.75159">
        <ele>2650.97</ele>
        <time>2018-12-12T11:54:16Z</time>
      </trkpt>
      <trkpt lat="44.90556" lon="6.75165">
        <ele>2650.97</ele>
        <time>2018-12-12T11:54:29Z</time>
      </trkpt>
      <trkpt lat="44.90554" lon="6.75175">
        <ele>2650.49</ele>
        <time>2018-12-12T11:54:46Z</time>
      </trkpt>
      <trkpt lat="44.90553" lon="6.75184">
        <ele>2650.49</ele>
        <time>2018-12-12T11:55:05Z</time>
      </trkpt>
      <trkpt lat="44.90552" lon="6.75189">
        <ele>2650.01</ele>
        <time>2018-12-12T11:55:20Z</time>
      </trkpt>
      <trkpt lat="44.90553" lon="6.75195">
        <ele>2649.53</ele>
        <time>2018-12-12T11:55:44Z</time>
      </trkpt>
      <trkpt lat="44.9055" lon="6.75205">
        <ele>2650.49</ele>
        <time>2018-12-12T11:55:58Z</time>
      </trkpt>
      <trkpt lat="44.90549" lon="6.75212">
        <ele>2651.45</ele>
        <time>2018-12-12T11:56:12Z</time>
      </trkpt>
      <trkpt lat="44.9055" lon="6.75213">
        <ele>2651.45</ele>
        <time>2018-12-12T11:56:27Z</time>
      </trkpt>
      <trkpt lat="44.90552" lon="6.75217">
        <ele>2652.9</ele>
        <time>2018-12-12T11:56:41Z</time>
      </trkpt>
      <trkpt lat="44.90554" lon="6.75221">
        <ele>2653.38</ele>
        <time>2018-12-12T11:56:55Z</time>
      </trkpt>
      <trkpt lat="44.90557" lon="6.75222">
        <ele>2653.86</ele>
        <time>2018-12-12T11:57:09Z</time>
      </trkpt>
      <trkpt lat="44.9056" lon="6.75225">
        <ele>2654.34</ele>
        <time>2018-12-12T11:57:28Z</time>
      </trkpt>
      <trkpt lat="44.90561" lon="6.75225">
        <ele>2655.3</ele>
        <time>2018-12-12T11:57:39Z</time>
      </trkpt>
      <trkpt lat="44.90563" lon="6.75226">
        <ele>2655.78</ele>
        <time>2018-12-12T11:57:51Z</time>
      </trkpt>
      <trkpt lat="44.90563" lon="6.75228">
        <ele>2656.26</ele>
        <time>2018-12-12T11:58:03Z</time>
      </trkpt>
      <trkpt lat="44.90562" lon="6.75229">
        <ele>2655.78</ele>
        <time>2018-12-12T11:58:19Z</time>
      </trkpt>
      <trkpt lat="44.90562" lon="6.75229">
        <ele>2656.26</ele>
        <time>2018-12-12T11:58:43Z</time>
      </trkpt>
      <trkpt lat="44.90563" lon="6.75228">
        <ele>2655.78</ele>
        <time>2018-12-12T11:58:59Z</time>
      </trkpt>
      <trkpt lat="44.90562" lon="6.75227">
        <ele>2654.82</ele>
        <time>2018-12-12T11:59:10Z</time>
      </trkpt>
      <trkpt lat="44.90561" lon="6.75226">
        <ele>2655.3</ele>
        <time>2018-12-12T11:59:22Z</time>
      </trkpt>
      <trkpt lat="44.90559" lon="6.75226">
        <ele>2654.34</ele>
        <time>2018-12-12T11:59:37Z</time>
      </trkpt>
      <trkpt lat="44.90558" lon="6.75226">
        <ele>2654.34</ele>
        <time>2018-12-12T12:00:00Z</time>
      </trkpt>
      <trkpt lat="44.90558" lon="6.75223">
        <ele>2654.34</ele>
        <time>2018-12-12T12:00:17Z</time>
      </trkpt>
      <trkpt lat="44.90557" lon="6.75225">
        <ele>2653.86</ele>
        <time>2018-12-12T12:00:38Z</time>
      </trkpt>
      <trkpt lat="44.90557" lon="6.75226">
        <ele>2653.86</ele>
        <time>2018-12-12T12:00:59Z</time>
      </trkpt>
      <trkpt lat="44.90556" lon="6.75225">
        <ele>2654.82</ele>
        <time>2018-12-12T12:01:15Z</time>
      </trkpt>
      <trkpt lat="44.90557" lon="6.75222">
        <ele>2653.38</ele>
        <time>2018-12-12T12:01:40Z</time>
      </trkpt>
      <trkpt lat="44.90557" lon="6.75222">
        <ele>2652.9</ele>
        <time>2018-12-12T12:01:59Z</time>
      </trkpt>
      <trkpt lat="44.90556" lon="6.75225">
        <ele>2652.42</ele>
        <time>2018-12-12T12:02:21Z</time>
      </trkpt>
      <trkpt lat="44.90557" lon="6.75225">
        <ele>2652.42</ele>
        <time>2018-12-12T12:02:48Z</time>
      </trkpt>
      <trkpt lat="44.90556" lon="6.75226">
        <ele>2651.93</ele>
        <time>2018-12-12T12:03:18Z</time>
      </trkpt>
      <trkpt lat="44.90557" lon="6.75227">
        <ele>2651.93</ele>
        <time>2018-12-12T12:03:49Z</time>
      </trkpt>
      <trkpt lat="44.90556" lon="6.75226">
        <ele>2651.93</ele>
        <time>2018-12-12T12:04:24Z</time>
      </trkpt>
      <trkpt lat="44.90558" lon="6.75226">
        <ele>2651.93</ele>
        <time>2018-12-12T12:04:57Z</time>
      </trkpt>
      <trkpt lat="44.90556" lon="6.75223">
        <ele>2651.93</ele>
        <time>2018-12-12T12:05:26Z</time>
      </trkpt>
      <trkpt lat="44.90556" lon="6.75221">
        <ele>2651.93</ele>
        <time>2018-12-12T12:05:59Z</time>
      </trkpt>
      <trkpt lat="44.90556" lon="6.75224">
        <ele>2651.93</ele>
        <time>2018-12-12T12:06:31Z</time>
      </trkpt>
      <trkpt lat="44.90555" lon="6.75224">
        <ele>2651.93</ele>
        <time>2018-12-12T12:07:01Z</time>
      </trkpt>
      <trkpt lat="44.90555" lon="6.75223">
        <ele>2651.93</ele>
        <time>2018-12-12T12:07:26Z</time>
      </trkpt>
      <trkpt lat="44.90556" lon="6.75222">
        <ele>2651.45</ele>
        <time>2018-12-12T12:07:54Z</time>
      </trkpt>
      <trkpt lat="44.90555" lon="6.7522">
        <ele>2651.93</ele>
        <time>2018-12-12T12:08:28Z</time>
      </trkpt>
      <trkpt lat="44.90558" lon="6.7522">
        <ele>2652.42</ele>
        <time>2018-12-12T12:08:56Z</time>
      </trkpt>
      <trkpt lat="44.90557" lon="6.75221">
        <ele>2651.93</ele>
        <time>2018-12-12T12:09:33Z</time>
      </trkpt>
      <trkpt lat="44.90558" lon="6.75221">
        <ele>2652.42</ele>
        <time>2018-12-12T12:10:03Z</time>
      </trkpt>
      <trkpt lat="44.90556" lon="6.75219">
        <ele>2652.42</ele>
        <time>2018-12-12T12:10:33Z</time>
      </trkpt>
      <trkpt lat="44.90558" lon="6.7522">
        <ele>2652.9</ele>
        <time>2018-12-12T12:11:00Z</time>
      </trkpt>
      <trkpt lat="44.90557" lon="6.75221">
        <ele>2653.38</ele>
        <time>2018-12-12T12:11:15Z</time>
      </trkpt>
      <trkpt lat="44.90558" lon="6.75224">
        <ele>2653.86</ele>
        <time>2018-12-12T12:11:31Z</time>
      </trkpt>
      <trkpt lat="44.90559" lon="6.75225">
        <ele>2653.38</ele>
        <time>2018-12-12T12:11:50Z</time>
      </trkpt>
      <trkpt lat="44.90558" lon="6.75224">
        <ele>2653.86</ele>
        <time>2018-12-12T12:12:11Z</time>
      </trkpt>
      <trkpt lat="44.90559" lon="6.75224">
        <ele>2653.38</ele>
        <time>2018-12-12T12:12:34Z</time>
      </trkpt>
      <trkpt lat="44.9056" lon="6.75223">
        <ele>2653.86</ele>
        <time>2018-12-12T12:12:58Z</time>
      </trkpt>
      <trkpt lat="44.90559" lon="6.75224">
        <ele>2653.86</ele>
        <time>2018-12-12T12:13:22Z</time>
      </trkpt>
      <trkpt lat="44.90559" lon="6.75223">
        <ele>2653.86</ele>
        <time>2018-12-12T12:13:42Z</time>
      </trkpt>
      <trkpt lat="44.90557" lon="6.75221">
        <ele>2653.38</ele>
        <time>2018-12-12T12:14:10Z</time>
      </trkpt>
      <trkpt lat="44.90558" lon="6.75221">
        <ele>2653.86</ele>
        <time>2018-12-12T12:14:31Z</time>
      </trkpt>
      <trkpt lat="44.90559" lon="6.75221">
        <ele>2653.38</ele>
        <time>2018-12-12T12:14:46Z</time>
      </trkpt>
      <trkpt lat="44.9056" lon="6.75222">
        <ele>2653.86</ele>
        <time>2018-12-12T12:15:06Z</time>
      </trkpt>
      <trkpt lat="44.90558" lon="6.75225">
        <ele>2653.86</ele>
        <time>2018-12-12T12:15:26Z</time>
      </trkpt>
      <trkpt lat="44.90559" lon="6.75223">
        <ele>2654.34</ele>
        <time>2018-12-12T12:15:45Z</time>
      </trkpt>
      <trkpt lat="44.90559" lon="6.75224">
        <ele>2653.86</ele>
        <time>2018-12-12T12:16:17Z</time>
      </trkpt>
      <trkpt lat="44.9056" lon="6.75222">
        <ele>2653.38</ele>
        <time>2018-12-12T12:16:37Z</time>
      </trkpt>
      <trkpt lat="44.90562" lon="6.75222">
        <ele>2653.38</ele>
        <time>2018-12-12T12:16:55Z</time>
      </trkpt>
      <trkpt lat="44.90559" lon="6.75222">
        <ele>2653.38</ele>
        <time>2018-12-12T12:17:12Z</time>
      </trkpt>
      <trkpt lat="44.90558" lon="6.75217">
        <ele>2653.38</ele>
        <time>2018-12-12T12:17:33Z</time>
      </trkpt>
      <trkpt lat="44.90557" lon="6.75219">
        <ele>2652.9</ele>
        <time>2018-12-12T12:17:54Z</time>
      </trkpt>
      <trkpt lat="44.90556" lon="6.75218">
        <ele>2653.38</ele>
        <time>2018-12-12T12:18:11Z</time>
      </trkpt>
      <trkpt lat="44.90558" lon="6.75219">
        <ele>2654.34</ele>
        <time>2018-12-12T12:18:29Z</time>
      </trkpt>
      <trkpt lat="44.90558" lon="6.75219">
        <ele>2653.86</ele>
        <time>2018-12-12T12:18:49Z</time>
      </trkpt>
      <trkpt lat="44.90557" lon="6.75218">
        <ele>2652.9</ele>
        <time>2018-12-12T12:19:05Z</time>
      </trkpt>
      <trkpt lat="44.90557" lon="6.75219">
        <ele>2653.38</ele>
        <time>2018-12-12T12:19:21Z</time>
      </trkpt>
      <trkpt lat="44.90558" lon="6.75219">
        <ele>2653.38</ele>
        <time>2018-12-12T12:19:40Z</time>
      </trkpt>
      <trkpt lat="44.90559" lon="6.75215">
        <ele>2653.38</ele>
        <time>2018-12-12T12:19:59Z</time>
      </trkpt>
      <trkpt lat="44.90557" lon="6.75216">
        <ele>2652.9</ele>
        <time>2018-12-12T12:20:19Z</time>
      </trkpt>
      <trkpt lat="44.90559" lon="6.75222">
        <ele>2653.86</ele>
        <time>2018-12-12T12:20:35Z</time>
      </trkpt>
      <trkpt lat="44.90559" lon="6.75221">
        <ele>2653.86</ele>
        <time>2018-12-12T12:20:49Z</time>
      </trkpt>
      <trkpt lat="44.90559" lon="6.75221">
        <ele>2654.34</ele>
        <time>2018-12-12T12:21:09Z</time>
      </trkpt>
      <trkpt lat="44.90558" lon="6.75222">
        <ele>2653.86</ele>
        <time>2018-12-12T12:21:27Z</time>
      </trkpt>
      <trkpt lat="44.90559" lon="6.75222">
        <ele>2653.86</ele>
        <time>2018-12-12T12:21:45Z</time>
      </trkpt>
      <trkpt lat="44.90555" lon="6.75217">
        <ele>2652.9</ele>
        <time>2018-12-12T12:22:00Z</time>
      </trkpt>
      <trkpt lat="44.90554" lon="6.75213">
        <ele>2651.45</ele>
        <time>2018-12-12T12:22:03Z</time>
      </trkpt>
      <trkpt lat="44.90553" lon="6.75208">
        <ele>2650.97</ele>
        <time>2018-12-12T12:22:05Z</time>
      </trkpt>
      <trkpt lat="44.90551" lon="6.75203">
        <ele>2650.97</ele>
        <time>2018-12-12T12:22:06Z</time>
      </trkpt>
      <trkpt lat="44.90551" lon="6.75199">
        <ele>2650.49</ele>
        <time>2018-12-12T12:22:07Z</time>
      </trkpt>
      <trkpt lat="44.90551" lon="6.75196">
        <ele>2650.49</ele>
        <time>2018-12-12T12:22:08Z</time>
      </trkpt>
      <trkpt lat="44.90552" lon="6.75191">
        <ele>2649.53</ele>
        <time>2018-12-12T12:22:09Z</time>
      </trkpt>
      <trkpt lat="44.90554" lon="6.7518">
        <ele>2649.53</ele>
        <time>2018-12-12T12:22:16Z</time>
      </trkpt>
      <trkpt lat="44.90554" lon="6.75172">
        <ele>2650.01</ele>
        <time>2018-12-12T12:22:30Z</time>
      </trkpt>
      <trkpt lat="44.90555" lon="6.75163">
        <ele>2650.01</ele>
        <time>2018-12-12T12:22:45Z</time>
      </trkpt>
      <trkpt lat="44.90558" lon="6.75159">
        <ele>2650.49</ele>
        <time>2018-12-12T12:22:58Z</time>
      </trkpt>
      <trkpt lat="44.90561" lon="6.75152">
        <ele>2650.49</ele>
        <time>2018-12-12T12:23:13Z</time>
      </trkpt>
      <trkpt lat="44.90565" lon="6.75145">
        <ele>2650.49</ele>
        <time>2018-12-12T12:23:25Z</time>
      </trkpt>
      <trkpt lat="44.90568" lon="6.75139">
        <ele>2649.53</ele>
        <time>2018-12-12T12:23:40Z</time>
      </trkpt>
      <trkpt lat="44.9057" lon="6.75138">
        <ele>2648.57</ele>
        <time>2018-12-12T12:23:56Z</time>
      </trkpt>
      <trkpt lat="44.90571" lon="6.75138">
        <ele>2648.57</ele>
        <time>2018-12-12T12:23:57Z</time>
      </trkpt>
      <trkpt lat="44.90574" lon="6.75134">
        <ele>2647.61</ele>
        <time>2018-12-12T12:23:59Z</time>
      </trkpt>
      <trkpt lat="44.90574" lon="6.7513">
        <ele>2647.61</ele>
        <time>2018-12-12T12:24:00Z</time>
      </trkpt>
      <trkpt lat="44.90572" lon="6.75126">
        <ele>2646.17</ele>
        <time>2018-12-12T12:24:08Z</time>
      </trkpt>
      <trkpt lat="44.90573" lon="6.75126">
        <ele>2645.69</ele>
        <time>2018-12-12T12:24:32Z</time>
      </trkpt>
      <trkpt lat="44.90575" lon="6.75123">
        <ele>2645.69</ele>
        <time>2018-12-12T12:24:47Z</time>
      </trkpt>
      <trkpt lat="44.90577" lon="6.75121">
        <ele>2645.69</ele>
        <time>2018-12-12T12:24:49Z</time>
      </trkpt>
      <trkpt lat="44.90579" lon="6.75117">
        <ele>2645.69</ele>
        <time>2018-12-12T12:24:50Z</time>
      </trkpt>
      <trkpt lat="44.90579" lon="6.75113">
        <ele>2644.72</ele>
        <time>2018-12-12T12:24:51Z</time>
      </trkpt>
      <trkpt lat="44.90579" lon="6.75111">
        <ele>2644.24</ele>
        <time>2018-12-12T12:24:52Z</time>
      </trkpt>
      <trkpt lat="44.90578" lon="6.75111">
        <ele>2643.76</ele>
        <time>2018-12-12T12:25:04Z</time>
      </trkpt>
      <trkpt lat="44.90578" lon="6.7511">
        <ele>2643.76</ele>
        <time>2018-12-12T12:25:09Z</time>
      </trkpt>
      <trkpt lat="44.9058" lon="6.75108">
        <ele>2643.76</ele>
        <time>2018-12-12T12:25:10Z</time>
      </trkpt>
      <trkpt lat="44.90581" lon="6.75106">
        <ele>2643.76</ele>
        <time>2018-12-12T12:25:11Z</time>
      </trkpt>
      <trkpt lat="44.90581" lon="6.75101">
        <ele>2641.36</ele>
        <time>2018-12-12T12:25:16Z</time>
      </trkpt>
      <trkpt lat="44.90586" lon="6.75095">
        <ele>2640.88</ele>
        <time>2018-12-12T12:25:35Z</time>
      </trkpt>
      <trkpt lat="44.90589" lon="6.75094">
        <ele>2639.92</ele>
        <time>2018-12-12T12:25:36Z</time>
      </trkpt>
      <trkpt lat="44.90592" lon="6.75093">
        <ele>2639.44</ele>
        <time>2018-12-12T12:25:37Z</time>
      </trkpt>
      <trkpt lat="44.90594" lon="6.75092">
        <ele>2637.99</ele>
        <time>2018-12-12T12:25:40Z</time>
      </trkpt>
      <trkpt lat="44.90596" lon="6.75091">
        <ele>2637.99</ele>
        <time>2018-12-12T12:25:42Z</time>
      </trkpt>
      <trkpt lat="44.90597" lon="6.7509">
        <ele>2637.51</ele>
        <time>2018-12-12T12:25:45Z</time>
      </trkpt>
      <trkpt lat="44.90597" lon="6.75088">
        <ele>2637.03</ele>
        <time>2018-12-12T12:25:46Z</time>
      </trkpt>
      <trkpt lat="44.90598" lon="6.75085">
        <ele>2637.03</ele>
        <time>2018-12-12T12:25:47Z</time>
      </trkpt>
      <trkpt lat="44.90598" lon="6.75083">
        <ele>2636.55</ele>
        <time>2018-12-12T12:25:48Z</time>
      </trkpt>
      <trkpt lat="44.90598" lon="6.75077">
        <ele>2635.59</ele>
        <time>2018-12-12T12:26:01Z</time>
      </trkpt>
      <trkpt lat="44.90598" lon="6.7507">
        <ele>2635.59</ele>
        <time>2018-12-12T12:26:14Z</time>
      </trkpt>
      <trkpt lat="44.90598" lon="6.75068">
        <ele>2634.63</ele>
        <time>2018-12-12T12:26:30Z</time>
      </trkpt>
      <trkpt lat="44.90599" lon="6.75067">
        <ele>2633.67</ele>
        <time>2018-12-12T12:26:44Z</time>
      </trkpt>
      <trkpt lat="44.90599" lon="6.75062">
        <ele>2634.15</ele>
        <time>2018-12-12T12:26:54Z</time>
      </trkpt>
      <trkpt lat="44.906" lon="6.75061">
        <ele>2633.67</ele>
        <time>2018-12-12T12:26:55Z</time>
      </trkpt>
      <trkpt lat="44.90601" lon="6.7506">
        <ele>2632.23</ele>
        <time>2018-12-12T12:27:07Z</time>
      </trkpt>
      <trkpt lat="44.90603" lon="6.75058">
        <ele>2631.75</ele>
        <time>2018-12-12T12:27:22Z</time>
      </trkpt>
      <trkpt lat="44.90604" lon="6.75055">
        <ele>2632.23</ele>
        <time>2018-12-12T12:27:24Z</time>
      </trkpt>
      <trkpt lat="44.90602" lon="6.75053">
        <ele>2631.75</ele>
        <time>2018-12-12T12:27:25Z</time>
      </trkpt>
      <trkpt lat="44.90599" lon="6.7505">
        <ele>2628.86</ele>
        <time>2018-12-12T12:27:27Z</time>
      </trkpt>
      <trkpt lat="44.906" lon="6.75047">
        <ele>2627.42</ele>
        <time>2018-12-12T12:27:28Z</time>
      </trkpt>
      <trkpt lat="44.906" lon="6.75044">
        <ele>2625.98</ele>
        <time>2018-12-12T12:27:29Z</time>
      </trkpt>
      <trkpt lat="44.90598" lon="6.75042">
        <ele>2624.54</ele>
        <time>2018-12-12T12:27:30Z</time>
      </trkpt>
      <trkpt lat="44.90598" lon="6.75039">
        <ele>2623.58</ele>
        <time>2018-12-12T12:27:31Z</time>
      </trkpt>
      <trkpt lat="44.90599" lon="6.75038">
        <ele>2622.13</ele>
        <time>2018-12-12T12:27:41Z</time>
      </trkpt>
      <trkpt lat="44.90599" lon="6.75037">
        <ele>2621.65</ele>
        <time>2018-12-12T12:27:58Z</time>
      </trkpt>
      <trkpt lat="44.906" lon="6.75036">
        <ele>2621.65</ele>
        <time>2018-12-12T12:28:29Z</time>
      </trkpt>
      <trkpt lat="44.906" lon="6.75038">
        <ele>2621.65</ele>
        <time>2018-12-12T12:28:49Z</time>
      </trkpt>
      <trkpt lat="44.90599" lon="6.75033">
        <ele>2621.65</ele>
        <time>2018-12-12T12:29:08Z</time>
      </trkpt>
      <trkpt lat="44.90599" lon="6.75031">
        <ele>2621.17</ele>
        <time>2018-12-12T12:29:09Z</time>
      </trkpt>
      <trkpt lat="44.90596" lon="6.75024">
        <ele>2617.81</ele>
        <time>2018-12-12T12:29:12Z</time>
      </trkpt>
      <trkpt lat="44.90593" lon="6.75018">
        <ele>2614.92</ele>
        <time>2018-12-12T12:29:14Z</time>
      </trkpt>
      <trkpt lat="44.9059" lon="6.7501">
        <ele>2610.6</ele>
        <time>2018-12-12T12:29:17Z</time>
      </trkpt>
      <trkpt lat="44.90587" lon="6.75001">
        <ele>2607.23</ele>
        <time>2018-12-12T12:29:21Z</time>
      </trkpt>
      <trkpt lat="44.90587" lon="6.75003">
        <ele>2606.27</ele>
        <time>2018-12-12T12:29:23Z</time>
      </trkpt>
      <trkpt lat="44.90587" lon="6.75007">
        <ele>2606.27</ele>
        <time>2018-12-12T12:29:43Z</time>
      </trkpt>
      <trkpt lat="44.90588" lon="6.75008">
        <ele>2606.27</ele>
        <time>2018-12-12T12:30:05Z</time>
      </trkpt>
      <trkpt lat="44.90588" lon="6.75007">
        <ele>2606.27</ele>
        <time>2018-12-12T12:30:07Z</time>
      </trkpt>
      <trkpt lat="44.90583" lon="6.74992">
        <ele>2602.43</ele>
        <time>2018-12-12T12:30:12Z</time>
      </trkpt>
      <trkpt lat="44.90584" lon="6.74985">
        <ele>2599.54</ele>
        <time>2018-12-12T12:30:14Z</time>
      </trkpt>
      <trkpt lat="44.90586" lon="6.74983">
        <ele>2598.58</ele>
        <time>2018-12-12T12:30:16Z</time>
      </trkpt>
      <trkpt lat="44.90589" lon="6.74979">
        <ele>2598.1</ele>
        <time>2018-12-12T12:30:32Z</time>
      </trkpt>
      <trkpt lat="44.9059" lon="6.74977">
        <ele>2598.1</ele>
        <time>2018-12-12T12:30:50Z</time>
      </trkpt>
      <trkpt lat="44.90595" lon="6.74974">
        <ele>2597.62</ele>
        <time>2018-12-12T12:31:04Z</time>
      </trkpt>
      <trkpt lat="44.90616" lon="6.74974">
        <ele>2593.77</ele>
        <time>2018-12-12T12:31:09Z</time>
      </trkpt>
      <trkpt lat="44.90633" lon="6.74978">
        <ele>2592.33</ele>
        <time>2018-12-12T12:31:14Z</time>
      </trkpt>
      <trkpt lat="44.90632" lon="6.74973">
        <ele>2591.85</ele>
        <time>2018-12-12T12:31:17Z</time>
      </trkpt>
      <trkpt lat="44.90642" lon="6.74965">
        <ele>2586.56</ele>
        <time>2018-12-12T12:31:22Z</time>
      </trkpt>
      <trkpt lat="44.90644" lon="6.74963">
        <ele>2585.6</ele>
        <time>2018-12-12T12:31:24Z</time>
      </trkpt>
      <trkpt lat="44.90647" lon="6.74961">
        <ele>2585.6</ele>
        <time>2018-12-12T12:31:45Z</time>
      </trkpt>
      <trkpt lat="44.90648" lon="6.7496">
        <ele>2586.08</ele>
        <time>2018-12-12T12:31:51Z</time>
      </trkpt>
      <trkpt lat="44.90648" lon="6.7496">
        <ele>2585.12</ele>
        <time>2018-12-12T12:31:53Z</time>
      </trkpt>
      <trkpt lat="44.90649" lon="6.7496">
        <ele>2585.12</ele>
        <time>2018-12-12T12:32:11Z</time>
      </trkpt>
      <trkpt lat="44.90648" lon="6.74958">
        <ele>2584.64</ele>
        <time>2018-12-12T12:32:32Z</time>
      </trkpt>
      <trkpt lat="44.90649" lon="6.74958">
        <ele>2584.64</ele>
        <time>2018-12-12T12:32:50Z</time>
      </trkpt>
      <trkpt lat="44.90649" lon="6.7496">
        <ele>2584.64</ele>
        <time>2018-12-12T12:33:11Z</time>
      </trkpt>
      <trkpt lat="44.90648" lon="6.74961">
        <ele>2585.12</ele>
        <time>2018-12-12T12:33:32Z</time>
      </trkpt>
      <trkpt lat="44.90649" lon="6.74959">
        <ele>2584.64</ele>
        <time>2018-12-12T12:33:57Z</time>
      </trkpt>
      <trkpt lat="44.90649" lon="6.7496">
        <ele>2584.64</ele>
        <time>2018-12-12T12:34:17Z</time>
      </trkpt>
      <trkpt lat="44.9065" lon="6.74962">
        <ele>2584.64</ele>
        <time>2018-12-12T12:34:32Z</time>
      </trkpt>
      <trkpt lat="44.90649" lon="6.74959">
        <ele>2584.64</ele>
        <time>2018-12-12T12:34:55Z</time>
      </trkpt>
      <trkpt lat="44.90656" lon="6.74939">
        <ele>2583.68</ele>
        <time>2018-12-12T12:35:01Z</time>
      </trkpt>
      <trkpt lat="44.90656" lon="6.74932">
        <ele>2583.2</ele>
        <time>2018-12-12T12:35:02Z</time>
      </trkpt>
      <trkpt lat="44.90658" lon="6.74927">
        <ele>2582.24</ele>
        <time>2018-12-12T12:35:03Z</time>
      </trkpt>
      <trkpt lat="44.9066" lon="6.74923">
        <ele>2580.8</ele>
        <time>2018-12-12T12:35:04Z</time>
      </trkpt>
      <trkpt lat="44.90661" lon="6.74917">
        <ele>2579.84</ele>
        <time>2018-12-12T12:35:05Z</time>
      </trkpt>
      <trkpt lat="44.90662" lon="6.74912">
        <ele>2578.87</ele>
        <time>2018-12-12T12:35:06Z</time>
      </trkpt>
      <trkpt lat="44.90666" lon="6.74904">
        <ele>2575.99</ele>
        <time>2018-12-12T12:35:08Z</time>
      </trkpt>
      <trkpt lat="44.90672" lon="6.74886">
        <ele>2570.22</ele>
        <time>2018-12-12T12:35:12Z</time>
      </trkpt>
      <trkpt lat="44.90676" lon="6.74873">
        <ele>2566.86</ele>
        <time>2018-12-12T12:35:15Z</time>
      </trkpt>
      <trkpt lat="44.90681" lon="6.74865">
        <ele>2563.01</ele>
        <time>2018-12-12T12:35:17Z</time>
      </trkpt>
      <trkpt lat="44.90683" lon="6.74845">
        <ele>2558.21</ele>
        <time>2018-12-12T12:35:21Z</time>
      </trkpt>
      <trkpt lat="44.90687" lon="6.74842">
        <ele>2555.32</ele>
        <time>2018-12-12T12:35:22Z</time>
      </trkpt>
      <trkpt lat="44.90689" lon="6.74819">
        <ele>2551</ele>
        <time>2018-12-12T12:35:27Z</time>
      </trkpt>
      <trkpt lat="44.90691" lon="6.74811">
        <ele>2547.63</ele>
        <time>2018-12-12T12:35:28Z</time>
      </trkpt>
      <trkpt lat="44.9069" lon="6.74787">
        <ele>2547.15</ele>
        <time>2018-12-12T12:35:31Z</time>
      </trkpt>
      <trkpt lat="44.90684" lon="6.74769">
        <ele>2542.82</ele>
        <time>2018-12-12T12:35:33Z</time>
      </trkpt>
      <trkpt lat="44.90677" lon="6.74738">
        <ele>2538.5</ele>
        <time>2018-12-12T12:35:36Z</time>
      </trkpt>
      <trkpt lat="44.9067" lon="6.74711">
        <ele>2538.02</ele>
        <time>2018-12-12T12:35:40Z</time>
      </trkpt>
      <trkpt lat="44.9067" lon="6.74709">
        <ele>2538.5</ele>
        <time>2018-12-12T12:35:49Z</time>
      </trkpt>
      <trkpt lat="44.90671" lon="6.7471">
        <ele>2538.98</ele>
        <time>2018-12-12T12:36:09Z</time>
      </trkpt>
      <trkpt lat="44.90672" lon="6.74708">
        <ele>2538.5</ele>
        <time>2018-12-12T12:36:35Z</time>
      </trkpt>
      <trkpt lat="44.90672" lon="6.74708">
        <ele>2538.5</ele>
        <time>2018-12-12T12:36:59Z</time>
      </trkpt>
      <trkpt lat="44.90671" lon="6.74708">
        <ele>2538.98</ele>
        <time>2018-12-12T12:37:22Z</time>
      </trkpt>
      <trkpt lat="44.9067" lon="6.74707">
        <ele>2538.5</ele>
        <time>2018-12-12T12:37:41Z</time>
      </trkpt>
      <trkpt lat="44.90668" lon="6.74704">
        <ele>2538.5</ele>
        <time>2018-12-12T12:37:48Z</time>
      </trkpt>
      <trkpt lat="44.90664" lon="6.74696">
        <ele>2537.54</ele>
        <time>2018-12-12T12:37:52Z</time>
      </trkpt>
      <trkpt lat="44.90651" lon="6.74662">
        <ele>2535.13</ele>
        <time>2018-12-12T12:37:58Z</time>
      </trkpt>
      <trkpt lat="44.90644" lon="6.74654">
        <ele>2534.17</ele>
        <time>2018-12-12T12:38:00Z</time>
      </trkpt>
      <trkpt lat="44.90636" lon="6.74621">
        <ele>2528.89</ele>
        <time>2018-12-12T12:38:05Z</time>
      </trkpt>
      <trkpt lat="44.90624" lon="6.74587">
        <ele>2526.48</ele>
        <time>2018-12-12T12:38:10Z</time>
      </trkpt>
      <trkpt lat="44.90618" lon="6.74563">
        <ele>2523.6</ele>
        <time>2018-12-12T12:38:14Z</time>
      </trkpt>
      <trkpt lat="44.90612" lon="6.74529">
        <ele>2520.71</ele>
        <time>2018-12-12T12:38:21Z</time>
      </trkpt>
      <trkpt lat="44.90609" lon="6.74512">
        <ele>2518.31</ele>
        <time>2018-12-12T12:38:24Z</time>
      </trkpt>
      <trkpt lat="44.90606" lon="6.74502">
        <ele>2514.95</ele>
        <time>2018-12-12T12:38:26Z</time>
      </trkpt>
      <trkpt lat="44.90604" lon="6.74492">
        <ele>2513.98</ele>
        <time>2018-12-12T12:38:28Z</time>
      </trkpt>
      <trkpt lat="44.90601" lon="6.74476">
        <ele>2510.62</ele>
        <time>2018-12-12T12:38:32Z</time>
      </trkpt>
      <trkpt lat="44.90598" lon="6.74467">
        <ele>2508.7</ele>
        <time>2018-12-12T12:38:34Z</time>
      </trkpt>
      <trkpt lat="44.90591" lon="6.7445">
        <ele>2502.45</ele>
        <time>2018-12-12T12:38:39Z</time>
      </trkpt>
      <trkpt lat="44.90588" lon="6.74431">
        <ele>2497.64</ele>
        <time>2018-12-12T12:38:43Z</time>
      </trkpt>
      <trkpt lat="44.90587" lon="6.74417">
        <ele>2493.32</ele>
        <time>2018-12-12T12:38:45Z</time>
      </trkpt>
      <trkpt lat="44.90587" lon="6.74411">
        <ele>2493.32</ele>
        <time>2018-12-12T12:38:46Z</time>
      </trkpt>
      <trkpt lat="44.90585" lon="6.74404">
        <ele>2492.84</ele>
        <time>2018-12-12T12:38:47Z</time>
      </trkpt>
      <trkpt lat="44.90577" lon="6.74383">
        <ele>2487.55</ele>
        <time>2018-12-12T12:38:50Z</time>
      </trkpt>
      <trkpt lat="44.90574" lon="6.74376">
        <ele>2487.55</ele>
        <time>2018-12-12T12:38:51Z</time>
      </trkpt>
      <trkpt lat="44.90572" lon="6.74369">
        <ele>2487.55</ele>
        <time>2018-12-12T12:38:52Z</time>
      </trkpt>
      <trkpt lat="44.90558" lon="6.74352">
        <ele>2487.07</ele>
        <time>2018-12-12T12:39:00Z</time>
      </trkpt>
      <trkpt lat="44.90558" lon="6.74353">
        <ele>2487.07</ele>
        <time>2018-12-12T12:39:20Z</time>
      </trkpt>
      <trkpt lat="44.9056" lon="6.74353">
        <ele>2486.59</ele>
        <time>2018-12-12T12:39:43Z</time>
      </trkpt>
      <trkpt lat="44.9056" lon="6.74352">
        <ele>2486.59</ele>
        <time>2018-12-12T12:39:59Z</time>
      </trkpt>
      <trkpt lat="44.9056" lon="6.74352">
        <ele>2486.59</ele>
        <time>2018-12-12T12:40:25Z</time>
      </trkpt>
      <trkpt lat="44.9056" lon="6.74352">
        <ele>2486.11</ele>
        <time>2018-12-12T12:40:44Z</time>
      </trkpt>
      <trkpt lat="44.90557" lon="6.74351">
        <ele>2486.11</ele>
        <time>2018-12-12T12:41:03Z</time>
      </trkpt>
      <trkpt lat="44.90559" lon="6.74351">
        <ele>2486.11</ele>
        <time>2018-12-12T12:41:20Z</time>
      </trkpt>
      <trkpt lat="44.9056" lon="6.74328">
        <ele>2484.66</ele>
        <time>2018-12-12T12:41:27Z</time>
      </trkpt>
      <trkpt lat="44.90556" lon="6.74308">
        <ele>2483.7</ele>
        <time>2018-12-12T12:41:30Z</time>
      </trkpt>
      <trkpt lat="44.9055" lon="6.7428">
        <ele>2478.9</ele>
        <time>2018-12-12T12:41:33Z</time>
      </trkpt>
      <trkpt lat="44.90541" lon="6.74244">
        <ele>2479.38</ele>
        <time>2018-12-12T12:41:37Z</time>
      </trkpt>
      <trkpt lat="44.90534" lon="6.74226">
        <ele>2476.49</ele>
        <time>2018-12-12T12:41:40Z</time>
      </trkpt>
      <trkpt lat="44.90523" lon="6.74176">
        <ele>2474.09</ele>
        <time>2018-12-12T12:41:51Z</time>
      </trkpt>
      <trkpt lat="44.90527" lon="6.74153">
        <ele>2469.28</ele>
        <time>2018-12-12T12:41:54Z</time>
      </trkpt>
      <trkpt lat="44.90526" lon="6.74128">
        <ele>2471.69</ele>
        <time>2018-12-12T12:41:57Z</time>
      </trkpt>
      <trkpt lat="44.90532" lon="6.74114">
        <ele>2468.32</ele>
        <time>2018-12-12T12:42:00Z</time>
      </trkpt>
      <trkpt lat="44.90529" lon="6.7411">
        <ele>2466.88</ele>
        <time>2018-12-12T12:42:08Z</time>
      </trkpt>
      <trkpt lat="44.90528" lon="6.7411">
        <ele>2466.88</ele>
        <time>2018-12-12T12:42:26Z</time>
      </trkpt>
      <trkpt lat="44.90529" lon="6.7411">
        <ele>2466.88</ele>
        <time>2018-12-12T12:42:43Z</time>
      </trkpt>
      <trkpt lat="44.90528" lon="6.74108">
        <ele>2466.88</ele>
        <time>2018-12-12T12:42:58Z</time>
      </trkpt>
      <trkpt lat="44.90534" lon="6.74096">
        <ele>2466.4</ele>
        <time>2018-12-12T12:43:03Z</time>
      </trkpt>
      <trkpt lat="44.90535" lon="6.74085">
        <ele>2465.92</ele>
        <time>2018-12-12T12:43:05Z</time>
      </trkpt>
      <trkpt lat="44.90545" lon="6.74065">
        <ele>2462.07</ele>
        <time>2018-12-12T12:43:09Z</time>
      </trkpt>
      <trkpt lat="44.90547" lon="6.74058">
        <ele>2462.07</ele>
        <time>2018-12-12T12:43:10Z</time>
      </trkpt>
      <trkpt lat="44.90554" lon="6.74049">
        <ele>2458.71</ele>
        <time>2018-12-12T12:43:12Z</time>
      </trkpt>
      <trkpt lat="44.90558" lon="6.74042">
        <ele>2458.71</ele>
        <time>2018-12-12T12:43:13Z</time>
      </trkpt>
      <trkpt lat="44.90564" lon="6.74019">
        <ele>2453.9</ele>
        <time>2018-12-12T12:43:16Z</time>
      </trkpt>
      <trkpt lat="44.90581" lon="6.74">
        <ele>2450.54</ele>
        <time>2018-12-12T12:43:21Z</time>
      </trkpt>
      <trkpt lat="44.90592" lon="6.73978">
        <ele>2447.17</ele>
        <time>2018-12-12T12:43:26Z</time>
      </trkpt>
      <trkpt lat="44.90605" lon="6.73966">
        <ele>2443.81</ele>
        <time>2018-12-12T12:43:31Z</time>
      </trkpt>
      <trkpt lat="44.90609" lon="6.73956">
        <ele>2443.81</ele>
        <time>2018-12-12T12:43:34Z</time>
      </trkpt>
      <trkpt lat="44.90616" lon="6.73947">
        <ele>2438.52</ele>
        <time>2018-12-12T12:43:37Z</time>
      </trkpt>
      <trkpt lat="44.90617" lon="6.73933">
        <ele>2434.68</ele>
        <time>2018-12-12T12:43:40Z</time>
      </trkpt>
      <trkpt lat="44.90623" lon="6.73928">
        <ele>2431.31</ele>
        <time>2018-12-12T12:43:42Z</time>
      </trkpt>
      <trkpt lat="44.90628" lon="6.73924">
        <ele>2430.35</ele>
        <time>2018-12-12T12:43:44Z</time>
      </trkpt>
      <trkpt lat="44.9063" lon="6.73915">
        <ele>2426.99</ele>
        <time>2018-12-12T12:43:46Z</time>
      </trkpt>
      <trkpt lat="44.90632" lon="6.73913">
        <ele>2424.58</ele>
        <time>2018-12-12T12:43:47Z</time>
      </trkpt>
      <trkpt lat="44.90636" lon="6.73905">
        <ele>2421.22</ele>
        <time>2018-12-12T12:43:53Z</time>
      </trkpt>
      <trkpt lat="44.90636" lon="6.73907">
        <ele>2424.1</ele>
        <time>2018-12-12T12:44:14Z</time>
      </trkpt>
      <trkpt lat="44.90635" lon="6.73905">
        <ele>2422.18</ele>
        <time>2018-12-12T12:44:33Z</time>
      </trkpt>
      <trkpt lat="44.90644" lon="6.73893">
        <ele>2418.33</ele>
        <time>2018-12-12T12:44:37Z</time>
      </trkpt>
      <trkpt lat="44.90652" lon="6.73891">
        <ele>2417.37</ele>
        <time>2018-12-12T12:44:39Z</time>
      </trkpt>
      <trkpt lat="44.90662" lon="6.73877">
        <ele>2413.53</ele>
        <time>2018-12-12T12:44:42Z</time>
      </trkpt>
      <trkpt lat="44.90671" lon="6.73872">
        <ele>2411.12</ele>
        <time>2018-12-12T12:44:44Z</time>
      </trkpt>
      <trkpt lat="44.90684" lon="6.73853">
        <ele>2407.28</ele>
        <time>2018-12-12T12:44:47Z</time>
      </trkpt>
      <trkpt lat="44.9069" lon="6.73851">
        <ele>2405.36</ele>
        <time>2018-12-12T12:44:48Z</time>
      </trkpt>
      <trkpt lat="44.90711" lon="6.73838">
        <ele>2400.07</ele>
        <time>2018-12-12T12:44:52Z</time>
      </trkpt>
      <trkpt lat="44.90727" lon="6.73834">
        <ele>2396.22</ele>
        <time>2018-12-12T12:44:55Z</time>
      </trkpt>
      <trkpt lat="44.90745" lon="6.73823">
        <ele>2393.82</ele>
        <time>2018-12-12T12:44:59Z</time>
      </trkpt>
      <trkpt lat="44.90753" lon="6.7381">
        <ele>2391.42</ele>
        <time>2018-12-12T12:45:05Z</time>
      </trkpt>
      <trkpt lat="44.90754" lon="6.73813">
        <ele>2391.9</ele>
        <time>2018-12-12T12:45:15Z</time>
      </trkpt>
      <trkpt lat="44.90764" lon="6.73801">
        <ele>2388.05</ele>
        <time>2018-12-12T12:45:21Z</time>
      </trkpt>
      <trkpt lat="44.90778" lon="6.73792">
        <ele>2383.73</ele>
        <time>2018-12-12T12:45:26Z</time>
      </trkpt>
      <trkpt lat="44.90784" lon="6.73789">
        <ele>2379.88</ele>
        <time>2018-12-12T12:45:28Z</time>
      </trkpt>
      <trkpt lat="44.90794" lon="6.73775">
        <ele>2376.52</ele>
        <time>2018-12-12T12:45:31Z</time>
      </trkpt>
      <trkpt lat="44.90797" lon="6.73772">
        <ele>2374.11</ele>
        <time>2018-12-12T12:45:32Z</time>
      </trkpt>
      <trkpt lat="44.90815" lon="6.73756">
        <ele>2367.38</ele>
        <time>2018-12-12T12:45:38Z</time>
      </trkpt>
      <trkpt lat="44.9082" lon="6.7375">
        <ele>2364.02</ele>
        <time>2018-12-12T12:45:43Z</time>
      </trkpt>
      <trkpt lat="44.90819" lon="6.73751">
        <ele>2364.98</ele>
        <time>2018-12-12T12:46:06Z</time>
      </trkpt>
      <trkpt lat="44.9082" lon="6.73752">
        <ele>2364.98</ele>
        <time>2018-12-12T12:46:28Z</time>
      </trkpt>
      <trkpt lat="44.90819" lon="6.73753">
        <ele>2360.65</ele>
        <time>2018-12-12T12:46:35Z</time>
      </trkpt>
      <trkpt lat="44.90819" lon="6.73753">
        <ele>2360.65</ele>
        <time>2018-12-12T12:46:36Z</time>
      </trkpt>
      <trkpt lat="44.90818" lon="6.73753">
        <ele>2364.98</ele>
        <time>2018-12-12T12:46:42Z</time>
      </trkpt>
      <trkpt lat="44.90819" lon="6.73753">
        <ele>2365.46</ele>
        <time>2018-12-12T12:47:06Z</time>
      </trkpt>
      <trkpt lat="44.9082" lon="6.73751">
        <ele>2365.46</ele>
        <time>2018-12-12T12:47:13Z</time>
      </trkpt>
      <trkpt lat="44.90826" lon="6.73729">
        <ele>2361.62</ele>
        <time>2018-12-12T12:47:19Z</time>
      </trkpt>
      <trkpt lat="44.9083" lon="6.73711">
        <ele>2357.29</ele>
        <time>2018-12-12T12:47:22Z</time>
      </trkpt>
      <trkpt lat="44.90832" lon="6.73698">
        <ele>2353.93</ele>
        <time>2018-12-12T12:47:24Z</time>
      </trkpt>
      <trkpt lat="44.90847" lon="6.73673">
        <ele>2350.08</ele>
        <time>2018-12-12T12:47:29Z</time>
      </trkpt>
      <trkpt lat="44.9086" lon="6.73657">
        <ele>2345.27</ele>
        <time>2018-12-12T12:47:33Z</time>
      </trkpt>
      <trkpt lat="44.90868" lon="6.7365">
        <ele>2341.91</ele>
        <time>2018-12-12T12:47:35Z</time>
      </trkpt>
      <trkpt lat="44.90875" lon="6.7364">
        <ele>2340.95</ele>
        <time>2018-12-12T12:47:37Z</time>
      </trkpt>
      <trkpt lat="44.90886" lon="6.73643">
        <ele>2334.22</ele>
        <time>2018-12-12T12:47:39Z</time>
      </trkpt>
      <trkpt lat="44.90892" lon="6.73633">
        <ele>2330.85</ele>
        <time>2018-12-12T12:47:41Z</time>
      </trkpt>
      <trkpt lat="44.90902" lon="6.73628">
        <ele>2326.53</ele>
        <time>2018-12-12T12:47:44Z</time>
      </trkpt>
      <trkpt lat="44.90918" lon="6.73621">
        <ele>2320.76</ele>
        <time>2018-12-12T12:47:47Z</time>
      </trkpt>
      <trkpt lat="44.90923" lon="6.7362">
        <ele>2319.32</ele>
        <time>2018-12-12T12:47:48Z</time>
      </trkpt>
      <trkpt lat="44.90951" lon="6.73611">
        <ele>2313.07</ele>
        <time>2018-12-12T12:47:53Z</time>
      </trkpt>
      <trkpt lat="44.90969" lon="6.73605">
        <ele>2309.22</ele>
        <time>2018-12-12T12:47:56Z</time>
      </trkpt>
      <trkpt lat="44.90981" lon="6.73602">
        <ele>2306.34</ele>
        <time>2018-12-12T12:47:58Z</time>
      </trkpt>
      <trkpt lat="44.90994" lon="6.73597">
        <ele>2303.46</ele>
        <time>2018-12-12T12:48:00Z</time>
      </trkpt>
      <trkpt lat="44.9102" lon="6.73588">
        <ele>2300.09</ele>
        <time>2018-12-12T12:48:04Z</time>
      </trkpt>
      <trkpt lat="44.91036" lon="6.73586">
        <ele>2297.21</ele>
        <time>2018-12-12T12:48:07Z</time>
      </trkpt>
      <trkpt lat="44.91055" lon="6.73578">
        <ele>2296.25</ele>
        <time>2018-12-12T12:48:13Z</time>
      </trkpt>
      <trkpt lat="44.91056" lon="6.73579">
        <ele>2295.77</ele>
        <time>2018-12-12T12:48:29Z</time>
      </trkpt>
      <trkpt lat="44.91057" lon="6.73578">
        <ele>2296.25</ele>
        <time>2018-12-12T12:48:59Z</time>
      </trkpt>
      <trkpt lat="44.91058" lon="6.73578">
        <ele>2296.25</ele>
        <time>2018-12-12T12:49:00Z</time>
      </trkpt>
      <trkpt lat="44.91065" lon="6.73567">
        <ele>2294.8</ele>
        <time>2018-12-12T12:49:04Z</time>
      </trkpt>
      <trkpt lat="44.91094" lon="6.73551">
        <ele>2289.52</ele>
        <time>2018-12-12T12:49:12Z</time>
      </trkpt>
      <trkpt lat="44.91112" lon="6.73544">
        <ele>2285.19</ele>
        <time>2018-12-12T12:49:16Z</time>
      </trkpt>
      <trkpt lat="44.91127" lon="6.73537">
        <ele>2281.35</ele>
        <time>2018-12-12T12:49:19Z</time>
      </trkpt>
      <trkpt lat="44.91129" lon="6.7352">
        <ele>2278.94</ele>
        <time>2018-12-12T12:49:22Z</time>
      </trkpt>
      <trkpt lat="44.91128" lon="6.73514">
        <ele>2277.98</ele>
        <time>2018-12-12T12:49:24Z</time>
      </trkpt>
      <trkpt lat="44.91127" lon="6.73511">
        <ele>2278.46</ele>
        <time>2018-12-12T12:49:31Z</time>
      </trkpt>
      <trkpt lat="44.91136" lon="6.73512">
        <ele>2275.1</ele>
        <time>2018-12-12T12:49:35Z</time>
      </trkpt>
      <trkpt lat="44.91139" lon="6.73515">
        <ele>2274.62</ele>
        <time>2018-12-12T12:49:36Z</time>
      </trkpt>
      <trkpt lat="44.91148" lon="6.73504">
        <ele>2271.73</ele>
        <time>2018-12-12T12:49:41Z</time>
      </trkpt>
      <trkpt lat="44.91156" lon="6.73505">
        <ele>2268.85</ele>
        <time>2018-12-12T12:49:44Z</time>
      </trkpt>
      <trkpt lat="44.91151" lon="6.73488">
        <ele>2265.48</ele>
        <time>2018-12-12T12:49:48Z</time>
      </trkpt>
      <trkpt lat="44.91155" lon="6.73482">
        <ele>2262.6</ele>
        <time>2018-12-12T12:49:51Z</time>
      </trkpt>
      <trkpt lat="44.91162" lon="6.73475">
        <ele>2259.24</ele>
        <time>2018-12-12T12:49:54Z</time>
      </trkpt>
      <trkpt lat="44.91164" lon="6.73465">
        <ele>2255.87</ele>
        <time>2018-12-12T12:49:56Z</time>
      </trkpt>
      <trkpt lat="44.91171" lon="6.73463">
        <ele>2252.99</ele>
        <time>2018-12-12T12:49:58Z</time>
      </trkpt>
      <trkpt lat="44.91174" lon="6.73459">
        <ele>2252.51</ele>
        <time>2018-12-12T12:49:59Z</time>
      </trkpt>
      <trkpt lat="44.91178" lon="6.73445">
        <ele>2249.62</ele>
        <time>2018-12-12T12:50:02Z</time>
      </trkpt>
      <trkpt lat="44.91187" lon="6.73444">
        <ele>2245.78</ele>
        <time>2018-12-12T12:50:05Z</time>
      </trkpt>
      <trkpt lat="44.91193" lon="6.73433">
        <ele>2242.89</ele>
        <time>2018-12-12T12:50:08Z</time>
      </trkpt>
      <trkpt lat="44.91201" lon="6.73426">
        <ele>2239.53</ele>
        <time>2018-12-12T12:50:11Z</time>
      </trkpt>
      <trkpt lat="44.91208" lon="6.73412">
        <ele>2234.72</ele>
        <time>2018-12-12T12:50:14Z</time>
      </trkpt>
      <trkpt lat="44.91212" lon="6.734">
        <ele>2231.36</ele>
        <time>2018-12-12T12:50:18Z</time>
      </trkpt>
      <trkpt lat="44.91212" lon="6.73402">
        <ele>2230.88</ele>
        <time>2018-12-12T12:50:20Z</time>
      </trkpt>
      <trkpt lat="44.91212" lon="6.73403">
        <ele>2231.36</ele>
        <time>2018-12-12T12:50:34Z</time>
      </trkpt>
      <trkpt lat="44.91214" lon="6.73405">
        <ele>2231.84</ele>
        <time>2018-12-12T12:50:54Z</time>
      </trkpt>
      <trkpt lat="44.91217" lon="6.734">
        <ele>2230.88</ele>
        <time>2018-12-12T12:51:11Z</time>
      </trkpt>
      <trkpt lat="44.91235" lon="6.73389">
        <ele>2227.99</ele>
        <time>2018-12-12T12:51:18Z</time>
      </trkpt>
      <trkpt lat="44.91247" lon="6.73374">
        <ele>2222.71</ele>
        <time>2018-12-12T12:51:21Z</time>
      </trkpt>
      <trkpt lat="44.91255" lon="6.73361">
        <ele>2221.26</ele>
        <time>2018-12-12T12:51:23Z</time>
      </trkpt>
      <trkpt lat="44.91275" lon="6.7333">
        <ele>2215.5</ele>
        <time>2018-12-12T12:51:28Z</time>
      </trkpt>
      <trkpt lat="44.91293" lon="6.73311">
        <ele>2210.69</ele>
        <time>2018-12-12T12:51:32Z</time>
      </trkpt>
      <trkpt lat="44.91298" lon="6.73307">
        <ele>2210.69</ele>
        <time>2018-12-12T12:51:33Z</time>
      </trkpt>
      <trkpt lat="44.91306" lon="6.73299">
        <ele>2209.25</ele>
        <time>2018-12-12T12:51:35Z</time>
      </trkpt>
      <trkpt lat="44.9133" lon="6.73281">
        <ele>2204.92</ele>
        <time>2018-12-12T12:51:43Z</time>
      </trkpt>
      <trkpt lat="44.91332" lon="6.73279">
        <ele>2204.92</ele>
        <time>2018-12-12T12:51:44Z</time>
      </trkpt>
      <trkpt lat="44.91336" lon="6.7328">
        <ele>2203.48</ele>
        <time>2018-12-12T12:51:52Z</time>
      </trkpt>
      <trkpt lat="44.91336" lon="6.73279">
        <ele>2203.48</ele>
        <time>2018-12-12T12:52:17Z</time>
      </trkpt>
      <trkpt lat="44.91342" lon="6.73271">
        <ele>2203.48</ele>
        <time>2018-12-12T12:52:26Z</time>
      </trkpt>
      <trkpt lat="44.91355" lon="6.73259">
        <ele>2200.59</ele>
        <time>2018-12-12T12:52:30Z</time>
      </trkpt>
      <trkpt lat="44.91369" lon="6.73243">
        <ele>2197.23</ele>
        <time>2018-12-12T12:52:34Z</time>
      </trkpt>
      <trkpt lat="44.9139" lon="6.73215">
        <ele>2193.39</ele>
        <time>2018-12-12T12:52:39Z</time>
      </trkpt>
      <trkpt lat="44.91402" lon="6.73199">
        <ele>2191.46</ele>
        <time>2018-12-12T12:52:42Z</time>
      </trkpt>
      <trkpt lat="44.91411" lon="6.73185">
        <ele>2190.02</ele>
        <time>2018-12-12T12:52:45Z</time>
      </trkpt>
      <trkpt lat="44.91418" lon="6.73167">
        <ele>2187.62</ele>
        <time>2018-12-12T12:52:48Z</time>
      </trkpt>
      <trkpt lat="44.91422" lon="6.73149">
        <ele>2185.69</ele>
        <time>2018-12-12T12:52:51Z</time>
      </trkpt>
      <trkpt lat="44.91424" lon="6.73139">
        <ele>2184.73</ele>
        <time>2018-12-12T12:52:54Z</time>
      </trkpt>
      <trkpt lat="44.91428" lon="6.73114">
        <ele>2181.37</ele>
        <time>2018-12-12T12:52:59Z</time>
      </trkpt>
      <trkpt lat="44.9143" lon="6.73109">
        <ele>2181.37</ele>
        <time>2018-12-12T12:53:00Z</time>
      </trkpt>
      <trkpt lat="44.91435" lon="6.73091">
        <ele>2178.97</ele>
        <time>2018-12-12T12:53:03Z</time>
      </trkpt>
      <trkpt lat="44.91457" lon="6.73071">
        <ele>2175.12</ele>
        <time>2018-12-12T12:53:11Z</time>
      </trkpt>
      <trkpt lat="44.91474" lon="6.73063">
        <ele>2172.24</ele>
        <time>2018-12-12T12:53:17Z</time>
      </trkpt>
      <trkpt lat="44.91487" lon="6.73052">
        <ele>2168.39</ele>
        <time>2018-12-12T12:53:20Z</time>
      </trkpt>
      <trkpt lat="44.91498" lon="6.73052">
        <ele>2165.51</ele>
        <time>2018-12-12T12:53:22Z</time>
      </trkpt>
      <trkpt lat="44.91504" lon="6.73052">
        <ele>2165.51</ele>
        <time>2018-12-12T12:53:23Z</time>
      </trkpt>
      <trkpt lat="44.91522" lon="6.73043">
        <ele>2164.06</ele>
        <time>2018-12-12T12:53:27Z</time>
      </trkpt>
      <trkpt lat="44.9155" lon="6.73035">
        <ele>2164.06</ele>
        <time>2018-12-12T12:53:36Z</time>
      </trkpt>
      <trkpt lat="44.91554" lon="6.73034">
        <ele>2163.1</ele>
        <time>2018-12-12T12:53:45Z</time>
      </trkpt>
      <trkpt lat="44.91553" lon="6.73038">
        <ele>2163.1</ele>
        <time>2018-12-12T12:54:13Z</time>
      </trkpt>
      <trkpt lat="44.91553" lon="6.73037">
        <ele>2163.1</ele>
        <time>2018-12-12T12:54:40Z</time>
      </trkpt>
      <trkpt lat="44.91552" lon="6.7304">
        <ele>2163.1</ele>
        <time>2018-12-12T12:54:53Z</time>
      </trkpt>
      <trkpt lat="44.91569" lon="6.73051">
        <ele>2160.7</ele>
        <time>2018-12-12T12:54:59Z</time>
      </trkpt>
      <trkpt lat="44.91595" lon="6.73057">
        <ele>2155.41</ele>
        <time>2018-12-12T12:55:03Z</time>
      </trkpt>
      <trkpt lat="44.91608" lon="6.73058">
        <ele>2153.97</ele>
        <time>2018-12-12T12:55:05Z</time>
      </trkpt>
      <trkpt lat="44.91644" lon="6.73058">
        <ele>2148.68</ele>
        <time>2018-12-12T12:55:10Z</time>
      </trkpt>
      <trkpt lat="44.91651" lon="6.73058">
        <ele>2148.68</ele>
        <time>2018-12-12T12:55:11Z</time>
      </trkpt>
      <trkpt lat="44.91685" lon="6.73059">
        <ele>2147.72</ele>
        <time>2018-12-12T12:55:17Z</time>
      </trkpt>
      <trkpt lat="44.91719" lon="6.73054">
        <ele>2145.32</ele>
        <time>2018-12-12T12:55:24Z</time>
      </trkpt>
      <trkpt lat="44.91734" lon="6.73056">
        <ele>2144.36</ele>
        <time>2018-12-12T12:55:27Z</time>
      </trkpt>
      <trkpt lat="44.91754" lon="6.73051">
        <ele>2144.36</ele>
        <time>2018-12-12T12:55:32Z</time>
      </trkpt>
      <trkpt lat="44.91759" lon="6.73044">
        <ele>2143.88</ele>
        <time>2018-12-12T12:55:34Z</time>
      </trkpt>
      <trkpt lat="44.91767" lon="6.73023">
        <ele>2142.92</ele>
        <time>2018-12-12T12:55:44Z</time>
      </trkpt>
      <trkpt lat="44.91769" lon="6.73022">
        <ele>2142.92</ele>
        <time>2018-12-12T12:56:15Z</time>
      </trkpt>
      <trkpt lat="44.91769" lon="6.73023">
        <ele>2142.44</ele>
        <time>2018-12-12T12:56:34Z</time>
      </trkpt>
      <trkpt lat="44.91768" lon="6.73024">
        <ele>2142.44</ele>
        <time>2018-12-12T12:56:47Z</time>
      </trkpt>
      <trkpt lat="44.91775" lon="6.72993">
        <ele>2136.19</ele>
        <time>2018-12-12T12:56:55Z</time>
      </trkpt>
      <trkpt lat="44.91783" lon="6.72985">
        <ele>2133.78</ele>
        <time>2018-12-12T12:56:57Z</time>
      </trkpt>
      <trkpt lat="44.91786" lon="6.72974">
        <ele>2130.9</ele>
        <time>2018-12-12T12:57:01Z</time>
      </trkpt>
      <trkpt lat="44.91787" lon="6.7297">
        <ele>2129.94</ele>
        <time>2018-12-12T12:57:13Z</time>
      </trkpt>
      <trkpt lat="44.91787" lon="6.72971">
        <ele>2129.94</ele>
        <time>2018-12-12T12:57:36Z</time>
      </trkpt>
      <trkpt lat="44.91787" lon="6.72972">
        <ele>2129.46</ele>
        <time>2018-12-12T12:57:57Z</time>
      </trkpt>
      <trkpt lat="44.91788" lon="6.72971">
        <ele>2129.46</ele>
        <time>2018-12-12T12:58:06Z</time>
      </trkpt>
      <trkpt lat="44.91807" lon="6.72967">
        <ele>2125.61</ele>
        <time>2018-12-12T12:58:13Z</time>
      </trkpt>
      <trkpt lat="44.91811" lon="6.72978">
        <ele>2124.17</ele>
        <time>2018-12-12T12:58:15Z</time>
      </trkpt>
      <trkpt lat="44.91815" lon="6.72991">
        <ele>2123.69</ele>
        <time>2018-12-12T12:58:17Z</time>
      </trkpt>
      <trkpt lat="44.91819" lon="6.73015">
        <ele>2119.84</ele>
        <time>2018-12-12T12:58:20Z</time>
      </trkpt>
      <trkpt lat="44.91822" lon="6.73041">
        <ele>2120.32</ele>
        <time>2018-12-12T12:58:28Z</time>
      </trkpt>
      <trkpt lat="44.91827" lon="6.73053">
        <ele>2120.32</ele>
        <time>2018-12-12T12:58:41Z</time>
      </trkpt>
      <trkpt lat="44.91831" lon="6.73058">
        <ele>2119.36</ele>
        <time>2018-12-12T12:58:53Z</time>
      </trkpt>
      <trkpt lat="44.91831" lon="6.7306">
        <ele>2119.36</ele>
        <time>2018-12-12T12:59:04Z</time>
      </trkpt>
      <trkpt lat="44.91846" lon="6.73078">
        <ele>2116</ele>
        <time>2018-12-12T12:59:12Z</time>
      </trkpt>
      <trkpt lat="44.91854" lon="6.73085">
        <ele>2115.04</ele>
        <time>2018-12-12T12:59:15Z</time>
      </trkpt>
      <trkpt lat="44.91872" lon="6.73092">
        <ele>2112.15</ele>
        <time>2018-12-12T12:59:19Z</time>
      </trkpt>
      <trkpt lat="44.91883" lon="6.73099">
        <ele>2109.75</ele>
        <time>2018-12-12T12:59:22Z</time>
      </trkpt>
      <trkpt lat="44.91886" lon="6.731">
        <ele>2108.31</ele>
        <time>2018-12-12T12:59:23Z</time>
      </trkpt>
      <trkpt lat="44.91908" lon="6.7311">
        <ele>2103.98</ele>
        <time>2018-12-12T12:59:30Z</time>
      </trkpt>
      <trkpt lat="44.91915" lon="6.73113">
        <ele>2102.54</ele>
        <time>2018-12-12T12:59:33Z</time>
      </trkpt>
      <trkpt lat="44.91931" lon="6.73116">
        <ele>2100.14</ele>
        <time>2018-12-12T12:59:39Z</time>
      </trkpt>
      <trkpt lat="44.9195" lon="6.73115">
        <ele>2097.25</ele>
        <time>2018-12-12T12:59:46Z</time>
      </trkpt>
      <trkpt lat="44.91962" lon="6.73115">
        <ele>2095.33</ele>
        <time>2018-12-12T12:59:49Z</time>
      </trkpt>
      <trkpt lat="44.91963" lon="6.73112">
        <ele>2091.97</ele>
        <time>2018-12-12T12:59:55Z</time>
      </trkpt>
      <trkpt lat="44.91962" lon="6.73112">
        <ele>2095.81</ele>
        <time>2018-12-12T12:59:56Z</time>
      </trkpt>
      <trkpt lat="44.91962" lon="6.73114">
        <ele>2093.41</ele>
        <time>2018-12-12T13:00:14Z</time>
      </trkpt>
      <trkpt lat="44.91964" lon="6.73114">
        <ele>2093.41</ele>
        <time>2018-12-12T13:00:18Z</time>
      </trkpt>
      <trkpt lat="44.91974" lon="6.73128">
        <ele>2089.56</ele>
        <time>2018-12-12T13:00:23Z</time>
      </trkpt>
      <trkpt lat="44.91973" lon="6.7313">
        <ele>2088.12</ele>
        <time>2018-12-12T13:00:25Z</time>
      </trkpt>
      <trkpt lat="44.91971" lon="6.73131">
        <ele>2087.64</ele>
        <time>2018-12-12T13:00:39Z</time>
      </trkpt>
      <trkpt lat="44.91973" lon="6.7313">
        <ele>2087.64</ele>
        <time>2018-12-12T13:00:54Z</time>
      </trkpt>
      <trkpt lat="44.91974" lon="6.73131">
        <ele>2087.64</ele>
        <time>2018-12-12T13:01:01Z</time>
      </trkpt>
      <trkpt lat="44.91978" lon="6.73129">
        <ele>2086.2</ele>
        <time>2018-12-12T13:01:10Z</time>
      </trkpt>
      <trkpt lat="44.91977" lon="6.73127">
        <ele>2086.2</ele>
        <time>2018-12-12T13:01:28Z</time>
      </trkpt>
      <trkpt lat="44.91981" lon="6.73126">
        <ele>2085.24</ele>
        <time>2018-12-12T13:01:33Z</time>
      </trkpt>
      <trkpt lat="44.91986" lon="6.73122">
        <ele>2084.28</ele>
        <time>2018-12-12T13:01:52Z</time>
      </trkpt>
      <trkpt lat="44.91987" lon="6.73122">
        <ele>2084.28</ele>
        <time>2018-12-12T13:01:59Z</time>
      </trkpt>
      <trkpt lat="44.91999" lon="6.73127">
        <ele>2079.95</ele>
        <time>2018-12-12T13:02:05Z</time>
      </trkpt>
      <trkpt lat="44.92011" lon="6.73125">
        <ele>2076.59</ele>
        <time>2018-12-12T13:02:09Z</time>
      </trkpt>
      <trkpt lat="44.92014" lon="6.73131">
        <ele>2073.22</ele>
        <time>2018-12-12T13:02:11Z</time>
      </trkpt>
      <trkpt lat="44.92019" lon="6.73126">
        <ele>2070.34</ele>
        <time>2018-12-12T13:02:15Z</time>
      </trkpt>
      <trkpt lat="44.92019" lon="6.73126">
        <ele>2070.34</ele>
        <time>2018-12-12T13:02:18Z</time>
      </trkpt>
      <trkpt lat="44.92026" lon="6.73133">
        <ele>2066.49</ele>
        <time>2018-12-12T13:02:22Z</time>
      </trkpt>
      <trkpt lat="44.92031" lon="6.73134">
        <ele>2063.61</ele>
        <time>2018-12-12T13:02:26Z</time>
      </trkpt>
      <trkpt lat="44.92028" lon="6.73133">
        <ele>2064.09</ele>
        <time>2018-12-12T13:02:45Z</time>
      </trkpt>
      <trkpt lat="44.92032" lon="6.73132">
        <ele>2063.13</ele>
        <time>2018-12-12T13:02:52Z</time>
      </trkpt>
      <trkpt lat="44.92037" lon="6.73141">
        <ele>2059.28</ele>
        <time>2018-12-12T13:02:56Z</time>
      </trkpt>
      <trkpt lat="44.92045" lon="6.73139">
        <ele>2055.92</ele>
        <time>2018-12-12T13:03:00Z</time>
      </trkpt>
      <trkpt lat="44.92047" lon="6.7314">
        <ele>2056.4</ele>
        <time>2018-12-12T13:03:16Z</time>
      </trkpt>
      <trkpt lat="44.92051" lon="6.73148">
        <ele>2053.03</ele>
        <time>2018-12-12T13:03:20Z</time>
      </trkpt>
      <trkpt lat="44.92059" lon="6.73148">
        <ele>2049.19</ele>
        <time>2018-12-12T13:03:24Z</time>
      </trkpt>
      <trkpt lat="44.9206" lon="6.73147">
        <ele>2048.23</ele>
        <time>2018-12-12T13:03:26Z</time>
      </trkpt>
      <trkpt lat="44.9206" lon="6.73145">
        <ele>2047.75</ele>
        <time>2018-12-12T13:03:33Z</time>
      </trkpt>
      <trkpt lat="44.92062" lon="6.73156">
        <ele>2044.38</ele>
        <time>2018-12-12T13:03:36Z</time>
      </trkpt>
      <trkpt lat="44.92061" lon="6.73158">
        <ele>2042.94</ele>
        <time>2018-12-12T13:03:38Z</time>
      </trkpt>
      <trkpt lat="44.92061" lon="6.73158">
        <ele>2042.94</ele>
        <time>2018-12-12T13:03:39Z</time>
      </trkpt>
      <trkpt lat="44.9207" lon="6.73155">
        <ele>2041.02</ele>
        <time>2018-12-12T13:03:43Z</time>
      </trkpt>
      <trkpt lat="44.92074" lon="6.7315">
        <ele>2040.05</ele>
        <time>2018-12-12T13:03:45Z</time>
      </trkpt>
      <trkpt lat="44.92073" lon="6.7315">
        <ele>2039.09</ele>
        <time>2018-12-12T13:03:55Z</time>
      </trkpt>
      <trkpt lat="44.92078" lon="6.73158">
        <ele>2035.73</ele>
        <time>2018-12-12T13:03:59Z</time>
      </trkpt>
      <trkpt lat="44.92083" lon="6.73158">
        <ele>2034.29</ele>
        <time>2018-12-12T13:04:01Z</time>
      </trkpt>
      <trkpt lat="44.92087" lon="6.73153">
        <ele>2031.88</ele>
        <time>2018-12-12T13:04:04Z</time>
      </trkpt>
      <trkpt lat="44.92087" lon="6.73153">
        <ele>2031.88</ele>
        <time>2018-12-12T13:04:19Z</time>
      </trkpt>
      <trkpt lat="44.92089" lon="6.73154">
        <ele>2031.88</ele>
        <time>2018-12-12T13:04:32Z</time>
      </trkpt>
      <trkpt lat="44.92093" lon="6.73164">
        <ele>2028.52</ele>
        <time>2018-12-12T13:04:36Z</time>
      </trkpt>
      <trkpt lat="44.92101" lon="6.73163">
        <ele>2025.64</ele>
        <time>2018-12-12T13:04:39Z</time>
      </trkpt>
      <trkpt lat="44.92109" lon="6.7317">
        <ele>2021.31</ele>
        <time>2018-12-12T13:04:44Z</time>
      </trkpt>
      <trkpt lat="44.92115" lon="6.73168">
        <ele>2019.87</ele>
        <time>2018-12-12T13:04:46Z</time>
      </trkpt>
      <trkpt lat="44.92115" lon="6.73165">
        <ele>2018.43</ele>
        <time>2018-12-12T13:04:54Z</time>
      </trkpt>
      <trkpt lat="44.92114" lon="6.73165">
        <ele>2018.43</ele>
        <time>2018-12-12T13:05:18Z</time>
      </trkpt>
      <trkpt lat="44.92114" lon="6.73164">
        <ele>2018.43</ele>
        <time>2018-12-12T13:05:31Z</time>
      </trkpt>
      <trkpt lat="44.92129" lon="6.73162">
        <ele>2014.58</ele>
        <time>2018-12-12T13:05:38Z</time>
      </trkpt>
      <trkpt lat="44.92134" lon="6.73162">
        <ele>2012.66</ele>
        <time>2018-12-12T13:05:51Z</time>
      </trkpt>
      <trkpt lat="44.92143" lon="6.73158">
        <ele>2011.22</ele>
        <time>2018-12-12T13:06:07Z</time>
      </trkpt>
      <trkpt lat="44.9215" lon="6.73159">
        <ele>2009.77</ele>
        <time>2018-12-12T13:06:09Z</time>
      </trkpt>
      <trkpt lat="44.92159" lon="6.73153">
        <ele>2007.37</ele>
        <time>2018-12-12T13:06:19Z</time>
      </trkpt>
      <trkpt lat="44.92162" lon="6.73147">
        <ele>2005.93</ele>
        <time>2018-12-12T13:06:35Z</time>
      </trkpt>
      <trkpt lat="44.92163" lon="6.73147">
        <ele>2005.93</ele>
        <time>2018-12-12T13:06:36Z</time>
      </trkpt>
      <trkpt lat="44.92169" lon="6.73157">
        <ele>2002.08</ele>
        <time>2018-12-12T13:06:40Z</time>
      </trkpt>
      <trkpt lat="44.9217" lon="6.73163">
        <ele>2000.64</ele>
        <time>2018-12-12T13:06:42Z</time>
      </trkpt>
      <trkpt lat="44.92176" lon="6.73151">
        <ele>1997.28</ele>
        <time>2018-12-12T13:06:46Z</time>
      </trkpt>
      <trkpt lat="44.92178" lon="6.73148">
        <ele>1994.87</ele>
        <time>2018-12-12T13:06:50Z</time>
      </trkpt>
      <trkpt lat="44.92182" lon="6.73146">
        <ele>1994.87</ele>
        <time>2018-12-12T13:07:03Z</time>
      </trkpt>
      <trkpt lat="44.9219" lon="6.73131">
        <ele>1991.03</ele>
        <time>2018-12-12T13:07:10Z</time>
      </trkpt>
      <trkpt lat="44.92193" lon="6.73132">
        <ele>1990.07</ele>
        <time>2018-12-12T13:07:12Z</time>
      </trkpt>
      <trkpt lat="44.92194" lon="6.73136">
        <ele>1987.18</ele>
        <time>2018-12-12T13:07:15Z</time>
      </trkpt>
      <trkpt lat="44.92191" lon="6.73139">
        <ele>1987.18</ele>
        <time>2018-12-12T13:07:36Z</time>
      </trkpt>
      <trkpt lat="44.92189" lon="6.73145">
        <ele>1987.18</ele>
        <time>2018-12-12T13:07:50Z</time>
      </trkpt>
      <trkpt lat="44.922" lon="6.73142">
        <ele>1984.3</ele>
        <time>2018-12-12T13:07:54Z</time>
      </trkpt>
      <trkpt lat="44.92203" lon="6.73149">
        <ele>1981.41</ele>
        <time>2018-12-12T13:07:57Z</time>
      </trkpt>
      <trkpt lat="44.92202" lon="6.73152">
        <ele>1979.49</ele>
        <time>2018-12-12T13:08:00Z</time>
      </trkpt>
      <trkpt lat="44.92201" lon="6.73151">
        <ele>1979.49</ele>
        <time>2018-12-12T13:08:12Z</time>
      </trkpt>
      <trkpt lat="44.92207" lon="6.73155">
        <ele>1975.17</ele>
        <time>2018-12-12T13:08:17Z</time>
      </trkpt>
      <trkpt lat="44.92205" lon="6.73153">
        <ele>1974.2</ele>
        <time>2018-12-12T13:08:30Z</time>
      </trkpt>
      <trkpt lat="44.92205" lon="6.73153">
        <ele>1974.2</ele>
        <time>2018-12-12T13:08:31Z</time>
      </trkpt>
      <trkpt lat="44.92209" lon="6.7315">
        <ele>1973.24</ele>
        <time>2018-12-12T13:08:33Z</time>
      </trkpt>
      <trkpt lat="44.92213" lon="6.7316">
        <ele>1969.4</ele>
        <time>2018-12-12T13:08:37Z</time>
      </trkpt>
      <trkpt lat="44.92218" lon="6.73164">
        <ele>1966.03</ele>
        <time>2018-12-12T13:08:40Z</time>
      </trkpt>
      <trkpt lat="44.92223" lon="6.73169">
        <ele>1963.15</ele>
        <time>2018-12-12T13:08:50Z</time>
      </trkpt>
      <trkpt lat="44.92219" lon="6.73172">
        <ele>1962.67</ele>
        <time>2018-12-12T13:09:21Z</time>
      </trkpt>
      <trkpt lat="44.92226" lon="6.73174">
        <ele>1962.19</ele>
        <time>2018-12-12T13:09:25Z</time>
      </trkpt>
      <trkpt lat="44.92234" lon="6.73158">
        <ele>1958.82</ele>
        <time>2018-12-12T13:09:30Z</time>
      </trkpt>
      <trkpt lat="44.92233" lon="6.73162">
        <ele>1958.34</ele>
        <time>2018-12-12T13:09:36Z</time>
      </trkpt>
      <trkpt lat="44.92242" lon="6.73174">
        <ele>1955.94</ele>
        <time>2018-12-12T13:09:41Z</time>
      </trkpt>
      <trkpt lat="44.92257" lon="6.73179">
        <ele>1950.17</ele>
        <time>2018-12-12T13:09:45Z</time>
      </trkpt>
      <trkpt lat="44.92267" lon="6.73184">
        <ele>1946.81</ele>
        <time>2018-12-12T13:09:52Z</time>
      </trkpt>
      <trkpt lat="44.92267" lon="6.73186">
        <ele>1946.81</ele>
        <time>2018-12-12T13:09:58Z</time>
      </trkpt>
      <trkpt lat="44.92279" lon="6.73179">
        <ele>1943.44</ele>
        <time>2018-12-12T13:10:03Z</time>
      </trkpt>
      <trkpt lat="44.92284" lon="6.73178">
        <ele>1941.04</ele>
        <time>2018-12-12T13:10:06Z</time>
      </trkpt>
      <trkpt lat="44.92291" lon="6.73174">
        <ele>1941.52</ele>
        <time>2018-12-12T13:10:20Z</time>
      </trkpt>
      <trkpt lat="44.923" lon="6.73173">
        <ele>1941.04</ele>
        <time>2018-12-12T13:10:32Z</time>
      </trkpt>
      <trkpt lat="44.92303" lon="6.73174">
        <ele>1940.56</ele>
        <time>2018-12-12T13:10:36Z</time>
      </trkpt>
      <trkpt lat="44.92308" lon="6.73173">
        <ele>1939.6</ele>
        <time>2018-12-12T13:10:40Z</time>
      </trkpt>
      <trkpt lat="44.92317" lon="6.73172">
        <ele>1938.64</ele>
        <time>2018-12-12T13:10:46Z</time>
      </trkpt>
      <trkpt lat="44.92325" lon="6.73176">
        <ele>1936.23</ele>
        <time>2018-12-12T13:10:51Z</time>
      </trkpt>
      <trkpt lat="44.92327" lon="6.73177">
        <ele>1935.75</ele>
        <time>2018-12-12T13:10:55Z</time>
      </trkpt>
      <trkpt lat="44.92343" lon="6.73177">
        <ele>1932.39</ele>
        <time>2018-12-12T13:11:00Z</time>
      </trkpt>
      <trkpt lat="44.92356" lon="6.73193">
        <ele>1928.54</ele>
        <time>2018-12-12T13:11:03Z</time>
      </trkpt>
      <trkpt lat="44.92362" lon="6.73205">
        <ele>1924.7</ele>
        <time>2018-12-12T13:11:05Z</time>
      </trkpt>
      <trkpt lat="44.92375" lon="6.73213">
        <ele>1923.74</ele>
        <time>2018-12-12T13:11:10Z</time>
      </trkpt>
      <trkpt lat="44.92386" lon="6.73211">
        <ele>1922.29</ele>
        <time>2018-12-12T13:11:20Z</time>
      </trkpt>
      <trkpt lat="44.92388" lon="6.73212">
        <ele>1922.29</ele>
        <time>2018-12-12T13:11:24Z</time>
      </trkpt>
      <trkpt lat="44.92406" lon="6.73226">
        <ele>1918.93</ele>
        <time>2018-12-12T13:11:36Z</time>
      </trkpt>
      <trkpt lat="44.92414" lon="6.73229">
        <ele>1917.97</ele>
        <time>2018-12-12T13:11:38Z</time>
      </trkpt>
      <trkpt lat="44.92433" lon="6.73237">
        <ele>1915.56</ele>
        <time>2018-12-12T13:11:42Z</time>
      </trkpt>
      <trkpt lat="44.9245" lon="6.7324">
        <ele>1914.6</ele>
        <time>2018-12-12T13:11:51Z</time>
      </trkpt>
      <trkpt lat="44.92452" lon="6.73242">
        <ele>1916.04</ele>
        <time>2018-12-12T13:12:06Z</time>
      </trkpt>
      <trkpt lat="44.92451" lon="6.73242">
        <ele>1915.08</ele>
        <time>2018-12-12T13:12:31Z</time>
      </trkpt>
      <trkpt lat="44.92453" lon="6.73241">
        <ele>1915.56</ele>
        <time>2018-12-12T13:12:57Z</time>
      </trkpt>
      <trkpt lat="44.9245" lon="6.73242">
        <ele>1915.56</ele>
        <time>2018-12-12T13:13:23Z</time>
      </trkpt>
      <trkpt lat="44.92452" lon="6.73246">
        <ele>1915.08</ele>
        <time>2018-12-12T13:13:43Z</time>
      </trkpt>
      <trkpt lat="44.92484" lon="6.73247">
        <ele>1912.2</ele>
        <time>2018-12-12T13:13:55Z</time>
      </trkpt>
      <trkpt lat="44.925" lon="6.7325">
        <ele>1908.83</ele>
        <time>2018-12-12T13:13:59Z</time>
      </trkpt>
      <trkpt lat="44.92524" lon="6.73254">
        <ele>1904.99</ele>
        <time>2018-12-12T13:14:03Z</time>
      </trkpt>
      <trkpt lat="44.92535" lon="6.73258">
        <ele>1906.43</ele>
        <time>2018-12-12T13:14:05Z</time>
      </trkpt>
      <trkpt lat="44.92544" lon="6.73263">
        <ele>1903.55</ele>
        <time>2018-12-12T13:14:07Z</time>
      </trkpt>
      <trkpt lat="44.92553" lon="6.73272">
        <ele>1903.07</ele>
        <time>2018-12-12T13:14:09Z</time>
      </trkpt>
      <trkpt lat="44.92569" lon="6.73288">
        <ele>1904.03</ele>
        <time>2018-12-12T13:14:13Z</time>
      </trkpt>
      <trkpt lat="44.92578" lon="6.73297">
        <ele>1902.11</ele>
        <time>2018-12-12T13:14:15Z</time>
      </trkpt>
      <trkpt lat="44.92582" lon="6.73302">
        <ele>1902.11</ele>
        <time>2018-12-12T13:14:16Z</time>
      </trkpt>
      <trkpt lat="44.92595" lon="6.73319">
        <ele>1899.7</ele>
        <time>2018-12-12T13:14:19Z</time>
      </trkpt>
      <trkpt lat="44.92608" lon="6.73335">
        <ele>1894.42</ele>
        <time>2018-12-12T13:14:22Z</time>
      </trkpt>
      <trkpt lat="44.92621" lon="6.73347">
        <ele>1892.49</ele>
        <time>2018-12-12T13:14:25Z</time>
      </trkpt>
      <trkpt lat="44.92652" lon="6.73365">
        <ele>1888.65</ele>
        <time>2018-12-12T13:14:31Z</time>
      </trkpt>
      <trkpt lat="44.9268" lon="6.73373">
        <ele>1880.48</ele>
        <time>2018-12-12T13:14:35Z</time>
      </trkpt>
      <trkpt lat="44.92704" lon="6.73379">
        <ele>1878.55</ele>
        <time>2018-12-12T13:14:38Z</time>
      </trkpt>
      <trkpt lat="44.9273" lon="6.7338">
        <ele>1880</ele>
        <time>2018-12-12T13:14:42Z</time>
      </trkpt>
      <trkpt lat="44.92738" lon="6.73381">
        <ele>1879.51</ele>
        <time>2018-12-12T13:14:51Z</time>
      </trkpt>
      <trkpt lat="44.92737" lon="6.73386">
        <ele>1879.51</ele>
        <time>2018-12-12T13:14:58Z</time>
      </trkpt>
      <trkpt lat="44.92756" lon="6.73399">
        <ele>1872.3</ele>
        <time>2018-12-12T13:15:05Z</time>
      </trkpt>
      <trkpt lat="44.92762" lon="6.73405">
        <ele>1874.23</ele>
        <time>2018-12-12T13:15:06Z</time>
      </trkpt>
      <trkpt lat="44.92774" lon="6.73416">
        <ele>1868.46</ele>
        <time>2018-12-12T13:15:08Z</time>
      </trkpt>
      <trkpt lat="44.92793" lon="6.7344">
        <ele>1861.73</ele>
        <time>2018-12-12T13:15:11Z</time>
      </trkpt>
      <trkpt lat="44.92814" lon="6.73458">
        <ele>1861.25</ele>
        <time>2018-12-12T13:15:14Z</time>
      </trkpt>
      <trkpt lat="44.92835" lon="6.73478">
        <ele>1859.33</ele>
        <time>2018-12-12T13:15:17Z</time>
      </trkpt>
      <trkpt lat="44.92854" lon="6.73509">
        <ele>1843.95</ele>
        <time>2018-12-12T13:15:20Z</time>
      </trkpt>
      <trkpt lat="44.92861" lon="6.73517">
        <ele>1844.43</ele>
        <time>2018-12-12T13:15:21Z</time>
      </trkpt>
      <trkpt lat="44.92901" lon="6.73562">
        <ele>1841.06</ele>
        <time>2018-12-12T13:15:27Z</time>
      </trkpt>
      <trkpt lat="44.92934" lon="6.73592">
        <ele>1837.7</ele>
        <time>2018-12-12T13:15:32Z</time>
      </trkpt>
      <trkpt lat="44.92954" lon="6.73611">
        <ele>1833.85</ele>
        <time>2018-12-12T13:15:35Z</time>
      </trkpt>
      <trkpt lat="44.93002" lon="6.73669">
        <ele>1830.49</ele>
        <time>2018-12-12T13:15:42Z</time>
      </trkpt>
      <trkpt lat="44.93021" lon="6.73695">
        <ele>1828.56</ele>
        <time>2018-12-12T13:15:45Z</time>
      </trkpt>
      <trkpt lat="44.93032" lon="6.73705">
        <ele>1827.12</ele>
        <time>2018-12-12T13:15:47Z</time>
      </trkpt>
      <trkpt lat="44.93043" lon="6.73711">
        <ele>1826.16</ele>
        <time>2018-12-12T13:15:49Z</time>
      </trkpt>
      <trkpt lat="44.93051" lon="6.73711">
        <ele>1823.76</ele>
        <time>2018-12-12T13:15:55Z</time>
      </trkpt>
      <trkpt lat="44.9305" lon="6.73712">
        <ele>1824.72</ele>
        <time>2018-12-12T13:16:05Z</time>
      </trkpt>
      <trkpt lat="44.93055" lon="6.7371">
        <ele>1824.24</ele>
        <time>2018-12-12T13:16:22Z</time>
      </trkpt>
      <trkpt lat="44.93055" lon="6.73718">
        <ele>1824.72</ele>
        <time>2018-12-12T13:16:38Z</time>
      </trkpt>
      <trkpt lat="44.93057" lon="6.73729">
        <ele>1824.72</ele>
        <time>2018-12-12T13:16:49Z</time>
      </trkpt>
      <trkpt lat="44.93083" lon="6.73758">
        <ele>1822.8</ele>
        <time>2018-12-12T13:17:05Z</time>
      </trkpt>
      <trkpt lat="44.93103" lon="6.73775">
        <ele>1821.84</ele>
        <time>2018-12-12T13:17:18Z</time>
      </trkpt>
      <trkpt lat="44.93104" lon="6.73776">
        <ele>1821.35</ele>
        <time>2018-12-12T13:17:19Z</time>
      </trkpt>
      <trkpt lat="44.93116" lon="6.73795">
        <ele>1820.39</ele>
        <time>2018-12-12T13:17:36Z</time>
      </trkpt>
      <trkpt lat="44.93133" lon="6.73808">
        <ele>1818.95</ele>
        <time>2018-12-12T13:17:47Z</time>
      </trkpt>
      <trkpt lat="44.93145" lon="6.73834">
        <ele>1818.47</ele>
        <time>2018-12-12T13:17:56Z</time>
      </trkpt>
      <trkpt lat="44.93149" lon="6.73847">
        <ele>1818.95</ele>
        <time>2018-12-12T13:18:09Z</time>
      </trkpt>
      <trkpt lat="44.93157" lon="6.73863">
        <ele>1818.47</ele>
        <time>2018-12-12T13:18:23Z</time>
      </trkpt>
      <trkpt lat="44.93169" lon="6.73887">
        <ele>1817.51</ele>
        <time>2018-12-12T13:18:39Z</time>
      </trkpt>
      <trkpt lat="44.93186" lon="6.7391">
        <ele>1816.55</ele>
        <time>2018-12-12T13:18:53Z</time>
      </trkpt>
      <trkpt lat="44.93192" lon="6.73915">
        <ele>1816.55</ele>
        <time>2018-12-12T13:19:07Z</time>
      </trkpt>
      <trkpt lat="44.93194" lon="6.73916">
        <ele>1816.55</ele>
        <time>2018-12-12T13:19:26Z</time>
      </trkpt>
      <trkpt lat="44.93197" lon="6.73916">
        <ele>1817.03</ele>
        <time>2018-12-12T13:19:44Z</time>
      </trkpt>
      <trkpt lat="44.93202" lon="6.73926">
        <ele>1817.03</ele>
        <time>2018-12-12T13:20:02Z</time>
      </trkpt>
      <trkpt lat="44.93209" lon="6.73964">
        <ele>1814.15</ele>
        <time>2018-12-12T13:20:11Z</time>
      </trkpt>
      <trkpt lat="44.93212" lon="6.73991">
        <ele>1813.18</ele>
        <time>2018-12-12T13:20:23Z</time>
      </trkpt>
      <trkpt lat="44.93209" lon="6.73993">
        <ele>1813.18</ele>
        <time>2018-12-12T13:20:40Z</time>
      </trkpt>
      <trkpt lat="44.9321" lon="6.73997">
        <ele>1813.18</ele>
        <time>2018-12-12T13:20:49Z</time>
      </trkpt>
      <trkpt lat="44.9321" lon="6.74007">
        <ele>1812.7</ele>
        <time>2018-12-12T13:20:52Z</time>
      </trkpt>
      <trkpt lat="44.93231" lon="6.74056">
        <ele>1810.3</ele>
        <time>2018-12-12T13:21:03Z</time>
      </trkpt>
      <trkpt lat="44.93242" lon="6.74073">
        <ele>1809.34</ele>
        <time>2018-12-12T13:21:15Z</time>
      </trkpt>
      <trkpt lat="44.93254" lon="6.74101">
        <ele>1808.86</ele>
        <time>2018-12-12T13:21:33Z</time>
      </trkpt>
      <trkpt lat="44.93254" lon="6.74109">
        <ele>1808.38</ele>
        <time>2018-12-12T13:21:47Z</time>
      </trkpt>
      <trkpt lat="44.93257" lon="6.74112">
        <ele>1807.9</ele>
        <time>2018-12-12T13:22:03Z</time>
      </trkpt>
      <trkpt lat="44.93257" lon="6.74112">
        <ele>1808.38</ele>
        <time>2018-12-12T13:22:04Z</time>
      </trkpt>
      <trkpt lat="44.9327" lon="6.74152">
        <ele>1805.01</ele>
        <time>2018-12-12T13:22:14Z</time>
      </trkpt>
      <trkpt lat="44.93278" lon="6.7418">
        <ele>1805.01</ele>
        <time>2018-12-12T13:22:17Z</time>
      </trkpt>
      <trkpt lat="44.933" lon="6.74211">
        <ele>1800.21</ele>
        <time>2018-12-12T13:22:21Z</time>
      </trkpt>
      <trkpt lat="44.93315" lon="6.74218">
        <ele>1798.28</ele>
        <time>2018-12-12T13:22:23Z</time>
      </trkpt>
      <trkpt lat="44.93365" lon="6.74241">
        <ele>1793.48</ele>
        <time>2018-12-12T13:22:30Z</time>
      </trkpt>
      <trkpt lat="44.93384" lon="6.74256">
        <ele>1792.03</ele>
        <time>2018-12-12T13:22:33Z</time>
      </trkpt>
      <trkpt lat="44.93415" lon="6.74281">
        <ele>1788.67</ele>
        <time>2018-12-12T13:22:39Z</time>
      </trkpt>
      <trkpt lat="44.93423" lon="6.74285">
        <ele>1788.67</ele>
        <time>2018-12-12T13:22:41Z</time>
      </trkpt>
      <trkpt lat="44.93426" lon="6.74287">
        <ele>1788.19</ele>
        <time>2018-12-12T13:22:42Z</time>
      </trkpt>
      <trkpt lat="44.93429" lon="6.74291">
        <ele>1787.71</ele>
        <time>2018-12-12T13:22:43Z</time>
      </trkpt>
      <trkpt lat="44.93456" lon="6.74319">
        <ele>1785.31</ele>
        <time>2018-12-12T13:22:55Z</time>
      </trkpt>
      <trkpt lat="44.9348" lon="6.74325">
        <ele>1784.34</ele>
        <time>2018-12-12T13:23:06Z</time>
      </trkpt>
      <trkpt lat="44.93496" lon="6.74355">
        <ele>1783.38</ele>
        <time>2018-12-12T13:23:19Z</time>
      </trkpt>
      <trkpt lat="44.93507" lon="6.74391">
        <ele>1781.94</ele>
        <time>2018-12-12T13:23:34Z</time>
      </trkpt>
      <trkpt lat="44.93523" lon="6.74424">
        <ele>1780.5</ele>
        <time>2018-12-12T13:23:51Z</time>
      </trkpt>
      <trkpt lat="44.93535" lon="6.74461">
        <ele>1779.06</ele>
        <time>2018-12-12T13:24:05Z</time>
      </trkpt>
      <trkpt lat="44.93548" lon="6.74483">
        <ele>1778.1</ele>
        <time>2018-12-12T13:24:16Z</time>
      </trkpt>
      <trkpt lat="44.93548" lon="6.74484">
        <ele>1778.1</ele>
        <time>2018-12-12T13:24:17Z</time>
      </trkpt>
      <trkpt lat="44.93549" lon="6.74485">
        <ele>1777.61</ele>
        <time>2018-12-12T13:24:18Z</time>
      </trkpt>
      <trkpt lat="44.9355" lon="6.74487">
        <ele>1778.1</ele>
        <time>2018-12-12T13:24:19Z</time>
      </trkpt>
      <trkpt lat="44.93551" lon="6.74489">
        <ele>1778.1</ele>
        <time>2018-12-12T13:24:20Z</time>
      </trkpt>
      <trkpt lat="44.93552" lon="6.74491">
        <ele>1778.1</ele>
        <time>2018-12-12T13:24:21Z</time>
      </trkpt>
      <trkpt lat="44.93561" lon="6.74509">
        <ele>1777.61</ele>
        <time>2018-12-12T13:24:36Z</time>
      </trkpt>
      <trkpt lat="44.93566" lon="6.74522">
        <ele>1777.61</ele>
        <time>2018-12-12T13:24:50Z</time>
      </trkpt>
      <trkpt lat="44.93567" lon="6.74524">
        <ele>1777.61</ele>
        <time>2018-12-12T13:24:52Z</time>
      </trkpt>
      <trkpt lat="44.93568" lon="6.74526">
        <ele>1777.61</ele>
        <time>2018-12-12T13:24:53Z</time>
      </trkpt>
      <trkpt lat="44.93568" lon="6.74527">
        <ele>1777.61</ele>
        <time>2018-12-12T13:24:54Z</time>
      </trkpt>
      <trkpt lat="44.93569" lon="6.74529">
        <ele>1777.13</ele>
        <time>2018-12-12T13:24:55Z</time>
      </trkpt>
      <trkpt lat="44.9357" lon="6.74531">
        <ele>1777.13</ele>
        <time>2018-12-12T13:24:56Z</time>
      </trkpt>
      <trkpt lat="44.93583" lon="6.74552">
        <ele>1776.17</ele>
        <time>2018-12-12T13:25:08Z</time>
      </trkpt>
      <trkpt lat="44.93584" lon="6.74554">
        <ele>1776.17</ele>
        <time>2018-12-12T13:25:09Z</time>
      </trkpt>
      <trkpt lat="44.93584" lon="6.74557">
        <ele>1776.17</ele>
        <time>2018-12-12T13:25:10Z</time>
      </trkpt>
      <trkpt lat="44.93586" lon="6.74574">
        <ele>1775.69</ele>
        <time>2018-12-12T13:25:24Z</time>
      </trkpt>
      <trkpt lat="44.93591" lon="6.74576">
        <ele>1775.69</ele>
        <time>2018-12-12T13:25:40Z</time>
      </trkpt>
      <trkpt lat="44.93594" lon="6.7459">
        <ele>1775.69</ele>
        <time>2018-12-12T13:25:51Z</time>
      </trkpt>
      <trkpt lat="44.93596" lon="6.74592">
        <ele>1775.21</ele>
        <time>2018-12-12T13:25:52Z</time>
      </trkpt>
      <trkpt lat="44.93598" lon="6.74594">
        <ele>1775.21</ele>
        <time>2018-12-12T13:25:53Z</time>
      </trkpt>
      <trkpt lat="44.936" lon="6.74596">
        <ele>1774.73</ele>
        <time>2018-12-12T13:25:54Z</time>
      </trkpt>
      <trkpt lat="44.93602" lon="6.74598">
        <ele>1774.73</ele>
        <time>2018-12-12T13:25:55Z</time>
      </trkpt>
      <trkpt lat="44.93613" lon="6.7462">
        <ele>1773.77</ele>
        <time>2018-12-12T13:26:10Z</time>
      </trkpt>
      <trkpt lat="44.93619" lon="6.74636">
        <ele>1774.25</ele>
        <time>2018-12-12T13:26:27Z</time>
      </trkpt>
      <trkpt lat="44.93625" lon="6.74651">
        <ele>1773.77</ele>
        <time>2018-12-12T13:26:41Z</time>
      </trkpt>
      <trkpt lat="44.93628" lon="6.7466">
        <ele>1774.25</ele>
        <time>2018-12-12T13:26:56Z</time>
      </trkpt>
      <trkpt lat="44.93632" lon="6.74674">
        <ele>1774.25</ele>
        <time>2018-12-12T13:27:09Z</time>
      </trkpt>
      <trkpt lat="44.93637" lon="6.74683">
        <ele>1773.77</ele>
        <time>2018-12-12T13:27:22Z</time>
      </trkpt>
      <trkpt lat="44.93639" lon="6.7469">
        <ele>1774.25</ele>
        <time>2018-12-12T13:27:34Z</time>
      </trkpt>
      <trkpt lat="44.93642" lon="6.74697">
        <ele>1774.73</ele>
        <time>2018-12-12T13:27:47Z</time>
      </trkpt>
      <trkpt lat="44.93644" lon="6.74704">
        <ele>1774.73</ele>
        <time>2018-12-12T13:27:59Z</time>
      </trkpt>
      <trkpt lat="44.93647" lon="6.7471">
        <ele>1775.21</ele>
        <time>2018-12-12T13:28:12Z</time>
      </trkpt>
      <trkpt lat="44.93648" lon="6.74723">
        <ele>1775.21</ele>
        <time>2018-12-12T13:28:27Z</time>
      </trkpt>
      <trkpt lat="44.93648" lon="6.74731">
        <ele>1775.21</ele>
        <time>2018-12-12T13:28:44Z</time>
      </trkpt>
      <trkpt lat="44.93652" lon="6.74729">
        <ele>1773.77</ele>
        <time>2018-12-12T13:28:59Z</time>
      </trkpt>
      <trkpt lat="44.93651" lon="6.7473">
        <ele>1775.21</ele>
        <time>2018-12-12T13:29:14Z</time>
      </trkpt>
      <trkpt lat="44.93652" lon="6.74728">
        <ele>1775.21</ele>
        <time>2018-12-12T13:29:31Z</time>
      </trkpt>
      <trkpt lat="44.93651" lon="6.74728">
        <ele>1775.21</ele>
        <time>2018-12-12T13:29:48Z</time>
      </trkpt>
      <trkpt lat="44.93651" lon="6.74729">
        <ele>1775.21</ele>
        <time>2018-12-12T13:30:04Z</time>
      </trkpt>
      <trkpt lat="44.93651" lon="6.74729">
        <ele>1775.21</ele>
        <time>2018-12-12T13:30:05Z</time>
      </trkpt>
      <trkpt lat="44.93657" lon="6.74726">
        <ele>1775.69</ele>
        <time>2018-12-12T13:30:22Z</time>
      </trkpt>
      <trkpt lat="44.9367" lon="6.74725">
        <ele>1776.65</ele>
        <time>2018-12-12T13:30:40Z</time>
      </trkpt>
      <trkpt lat="44.93675" lon="6.74728">
        <ele>1776.65</ele>
        <time>2018-12-12T13:30:47Z</time>
      </trkpt>
      <trkpt lat="44.93684" lon="6.74743">
        <ele>1775.69</ele>
        <time>2018-12-12T13:31:03Z</time>
      </trkpt>
      <trkpt lat="44.93687" lon="6.74747">
        <ele>1775.21</ele>
        <time>2018-12-12T13:31:07Z</time>
      </trkpt>
      <trkpt lat="44.93697" lon="6.74772">
        <ele>1773.77</ele>
        <time>2018-12-12T13:31:26Z</time>
      </trkpt>
      <trkpt lat="44.93699" lon="6.74778">
        <ele>1773.77</ele>
        <time>2018-12-12T13:31:30Z</time>
      </trkpt>
      <trkpt lat="44.93714" lon="6.74793">
        <ele>1774.25</ele>
        <time>2018-12-12T13:31:47Z</time>
      </trkpt>
      <trkpt lat="44.93726" lon="6.748">
        <ele>1774.73</ele>
        <time>2018-12-12T13:32:01Z</time>
      </trkpt>
      <trkpt lat="44.93729" lon="6.74795">
        <ele>1775.21</ele>
        <time>2018-12-12T13:32:12Z</time>
      </trkpt>
      <trkpt lat="44.9372" lon="6.74785">
        <ele>1776.17</ele>
        <time>2018-12-12T13:32:27Z</time>
      </trkpt>
      <trkpt lat="44.93718" lon="6.74786">
        <ele>1776.17</ele>
        <time>2018-12-12T13:32:41Z</time>
      </trkpt>
      <trkpt lat="44.93719" lon="6.74784">
        <ele>1776.17</ele>
        <time>2018-12-12T13:32:57Z</time>
      </trkpt>
      <trkpt lat="44.93719" lon="6.74782">
        <ele>1776.17</ele>
        <time>2018-12-12T13:33:17Z</time>
      </trkpt>
      <trkpt lat="44.93719" lon="6.74781">
        <ele>1776.17</ele>
        <time>2018-12-12T13:33:33Z</time>
      </trkpt>
      <trkpt lat="44.93719" lon="6.74784">
        <ele>1776.65</ele>
        <time>2018-12-12T13:33:46Z</time>
      </trkpt>
      <trkpt lat="44.93719" lon="6.74786">
        <ele>1776.17</ele>
        <time>2018-12-12T13:34:07Z</time>
      </trkpt>
      <trkpt lat="44.93717" lon="6.74781">
        <ele>1775.69</ele>
        <time>2018-12-12T13:34:21Z</time>
      </trkpt>
      <trkpt lat="44.93719" lon="6.74783">
        <ele>1775.69</ele>
        <time>2018-12-12T13:34:46Z</time>
      </trkpt>
      <trkpt lat="44.93718" lon="6.74784">
        <ele>1775.69</ele>
        <time>2018-12-12T13:35:09Z</time>
      </trkpt>
      <trkpt lat="44.93717" lon="6.74783">
        <ele>1775.69</ele>
        <time>2018-12-12T13:35:31Z</time>
      </trkpt>
      <trkpt lat="44.93718" lon="6.74784">
        <ele>1775.69</ele>
        <time>2018-12-12T13:36:00Z</time>
      </trkpt>
      <trkpt lat="44.93716" lon="6.74784">
        <ele>1775.69</ele>
        <time>2018-12-12T13:36:33Z</time>
      </trkpt>
      <trkpt lat="44.93718" lon="6.74784">
        <ele>1775.69</ele>
        <time>2018-12-12T13:36:56Z</time>
      </trkpt>
      <trkpt lat="44.93716" lon="6.74783">
        <ele>1776.17</ele>
        <time>2018-12-12T13:37:25Z</time>
      </trkpt>
      <trkpt lat="44.93716" lon="6.74783">
        <ele>1776.65</ele>
        <time>2018-12-12T13:37:41Z</time>
      </trkpt>
      <trkpt lat="44.93715" lon="6.74782">
        <ele>1777.13</ele>
        <time>2018-12-12T13:37:44Z</time>
      </trkpt>
    </trkseg>
  </trk>
</gpx>